Date StartTime U_cm/s V_cm/s W_cm/s Ustd_cm/s Vstd_cm/s Wstd_cm/s Uvar_(cm/s)^2 Vvar_(cm/s)^2 Wvar_(cm/s)^2 KE_(m/s)^2 TurbulentKE_(m/s)^2 HorizWindSpeed_cm/s FrictionSpeec_cm/s DragCoef SpeedOfSound_m/s SonicTemperature_C Pressure_mb 
01/28/2015  00:00:00      -71.982      -42.186        2.687       64.753       38.773       25.268     4192.945     1503.310      638.466        0.665        0.317       83.433       21.345        0.065      334.372        4.302      867.978
01/28/2015  00:01:00     -112.504      -33.133       -6.442       36.468       39.534       22.843     1329.895     1562.969      521.822        0.861        0.171      117.282       19.822        0.029      334.397        4.342      867.975
01/28/2015  00:02:00      -87.898      -10.824       -0.880       29.558       27.699       18.598      873.670      767.232      345.870        0.492        0.099       88.562       14.434        0.027      334.377        4.310      867.969
01/28/2015  00:03:00      -65.165      -18.013        1.763       22.043       23.857       16.103      485.903      569.149      259.319        0.294        0.066       67.609       10.825        0.026      334.421        4.383      867.970
01/28/2015  00:04:00     -106.813      -43.995       -4.294       32.027       26.950       18.632     1025.728      726.327      347.160        0.773        0.105      115.518       18.918        0.027      334.418        4.376      867.968
01/28/2015  00:05:00     -108.317      -66.064       -2.608       36.763       27.529       20.959     1351.483      757.864      439.298        0.933        0.127      126.874       19.311        0.023      334.338        4.245      867.965
01/28/2015  00:06:00     -135.070      -56.633      -10.102       23.756       23.048       17.673      564.347      531.197      312.341        1.148        0.070      146.462       13.144        0.008      334.277        4.142      867.964
01/28/2015  00:07:00     -110.065      -46.627       -3.317       20.752       22.902       15.707      430.657      524.483      246.701        0.775        0.060      119.534       12.928        0.012      334.240        4.084      867.961
01/28/2015  00:08:00      -76.746      -31.684       -4.363       28.351       38.931       19.736      803.790     1515.607      389.495        0.481        0.135       83.029       16.357        0.039      334.246        4.092      867.966
01/28/2015  00:09:00     -113.952      -32.349       -6.540       52.936       31.667       25.409     2802.172     1002.769      645.608        0.926        0.223      118.454       30.615        0.067      334.235        4.074      867.968
01/28/2015  00:10:00     -134.715      -20.768      -12.214       38.663       44.657       28.058     1494.790     1994.260      787.224        1.150        0.214      136.306       20.600        0.023      334.222        4.052      867.974
01/28/2015  00:11:00     -148.408      -19.039       -7.411       53.089       38.329       28.852     2818.407     1469.095      832.445        1.378        0.256      149.624       30.396        0.041      334.181        3.982      867.974
01/28/2015  00:12:00      -84.542      -17.715       -2.478       34.700       53.863       30.262     1204.071     2901.246      915.763        0.624        0.251       86.378       22.799        0.070      334.184        3.989      867.963
01/28/2015  00:13:00      -83.638       -5.891       -0.612       38.246       28.629       21.758     1462.771      819.642      473.405        0.489        0.138       83.845       21.406        0.065      334.262        4.120      867.960
01/28/2015  00:14:00      -59.225       -4.236       -6.026       24.298       26.138       14.315      590.382      683.206      204.914        0.252        0.074       59.376       11.422        0.037      334.214        4.038      867.956
01/28/2015  00:15:00      -99.729        4.020       -9.588       39.099       28.043       18.348     1528.736      786.432      336.647        0.635        0.133       99.810       18.572        0.035      334.257        4.110      867.957
01/28/2015  00:16:00      -70.570      -12.783       -7.220       42.270       32.894       17.382     1786.713     1082.047      302.117        0.418        0.159       71.718       15.736        0.048      334.169        3.964      867.964
01/28/2015  00:17:00      -30.258      -17.600       13.483       57.704       33.479       19.202     3329.719     1120.819      368.730        0.311        0.241       35.004       28.866        0.680      334.149        3.931      867.980
01/28/2015  00:18:00       24.610        7.969       -1.781       20.474       23.554       18.957      419.168      554.785      359.358        0.100        0.067       25.868        7.434        0.083      334.203        4.022      867.993
01/28/2015  00:19:00       21.901       10.274       30.193       20.818       18.212       12.263      433.372      331.666      150.389        0.121        0.046       24.191        9.946        0.169      334.227        4.060      868.005
01/28/2015  00:20:00       -9.225        1.039       12.606       22.427       22.336       18.942      502.953      498.910      358.796        0.080        0.068        9.283       20.564        4.907      334.239        4.082      868.023
01/28/2015  00:21:00      -43.120      -24.318        2.808       25.873       23.127       13.307      669.419      534.850      177.076        0.192        0.069       49.504       10.480        0.045      334.183        3.987      868.035
01/28/2015  00:22:00      -66.602      -47.284       -6.066       18.759       19.837       14.584      351.884      393.502      212.698        0.383        0.048       81.680       10.925        0.018      334.212        4.035      868.023
01/28/2015  00:23:00      -90.494      -20.704       -1.277       24.672       36.573       15.120      608.710     1337.564      228.611        0.540        0.109       92.833        7.721        0.007      334.184        3.990      868.019
01/28/2015  00:24:00      -92.953      -56.740       -0.821       31.743       25.933       18.700     1007.589      672.517      349.698        0.694        0.101      108.903       10.369        0.009      334.244        4.089      868.022
01/28/2015  00:25:00      -99.107      -54.655        3.990       42.387       31.707       18.693     1796.672     1005.311      349.422        0.799        0.158      113.178       12.951        0.013      334.288        4.163      868.024
01/28/2015  00:26:00     -122.962      -37.964       -7.045       20.919       22.242       16.719      437.607      494.687      279.524        0.891        0.061      128.689        9.101        0.005      334.165        3.958      868.034
01/28/2015  00:27:00     -123.784      -10.222       -3.973       35.423       25.090       20.329     1254.777      629.486      413.274        0.887        0.115      124.205       20.151        0.026      334.010        3.700      868.053
01/28/2015  00:28:00     -127.162      -12.111       -7.047       38.899       43.737       23.840     1513.151     1912.955      568.340        1.018        0.200      127.737       21.971        0.030      334.095        3.842      868.063
01/28/2015  00:29:00      -88.747      -12.896        1.009       39.924       41.367       24.767     1593.950     1711.198      613.422        0.598        0.196       89.679       22.269        0.062      333.988        3.664      868.071
01/28/2015  00:30:00      -90.577       -9.271        3.281       42.207       21.909       17.331     1781.402      480.001      300.378        0.543        0.128       91.050       22.729        0.062      334.001        3.687      868.068
01/28/2015  00:31:00     -111.173       -3.234       -4.040       31.541       17.259       17.086      994.820      297.865      291.918        0.699        0.079      111.220       17.872        0.026      333.983        3.657      868.071
01/28/2015  00:32:00      -74.649        3.661       -2.833       33.854       25.428       17.647     1146.116      646.579      311.423        0.385        0.105       74.739       18.771        0.063      334.053        3.771      868.064
01/28/2015  00:33:00      -50.076        4.707        0.621       33.740       20.213       16.875     1138.417      408.559      284.767        0.218        0.092       50.297       18.263        0.132      334.054        3.774      868.070
01/28/2015  00:34:00      -48.776       25.267       -8.251       14.416       16.356       14.457      207.811      267.528      208.995        0.188        0.034       54.932        8.257        0.023      334.027        3.729      868.067
01/28/2015  00:35:00      -23.150       39.778       -5.638       24.840       21.941       11.523      617.004      481.402      132.785        0.169        0.062       46.024        5.611        0.015      334.151        3.934      868.072
01/28/2015  00:36:00      -11.533       43.969        0.564       20.225       30.369       13.066      409.068      922.249      170.728        0.178        0.075       45.457        7.474        0.027      334.176        3.977      868.070
01/28/2015  00:37:00       13.070       57.772       -7.585       16.962       30.593       10.631      287.702      935.950      113.026        0.245        0.067       59.232       14.901        0.063      334.267        4.128      868.067
01/28/2015  00:38:00       11.186       22.183        0.051       26.582       24.237       17.353      706.596      587.436      301.124        0.111        0.080       24.843       12.278        0.244      334.216        4.042      868.075
01/28/2015  00:39:00       26.338       29.105        1.593       19.809       19.740       10.578      392.408      389.649      111.884        0.122        0.045       39.253        6.526        0.028      334.124        3.889      868.088
01/28/2015  00:40:00       17.212       19.349        2.248       11.924       11.325        8.030      142.192      128.249       64.483        0.051        0.017       25.897        6.980        0.073      334.063        3.788      868.098
01/28/2015  00:41:00       -0.911       -1.032       -1.088        9.778       12.355        9.487       95.604      152.640       90.007        0.017        0.017        1.377        7.005       25.892      334.066        3.792      868.103
01/28/2015  00:42:00      -53.987       -1.451      -10.225       25.536       19.064        8.809      652.099      363.449       77.595        0.206        0.055       54.007       11.598        0.046      333.992        3.671      868.098
01/28/2015  00:43:00      -46.736      -12.065       -2.026       18.264       10.320        9.923      333.561      106.498       98.470        0.144        0.027       48.268        7.877        0.027      333.854        3.442      868.091
01/28/2015  00:44:00      -52.949       -2.055      -10.257        8.173       11.806        6.035       66.797      139.392       36.421        0.158        0.012       52.989        3.696        0.005      334.047        3.763      868.083
01/28/2015  00:45:00      -51.362        6.569       -8.012       10.113       10.055        7.070      102.281      101.101       49.981        0.150        0.013       51.780        4.235        0.007      334.065        3.794      868.089
01/28/2015  00:46:00      -64.104        4.723       -7.412       16.894       10.678       11.605      285.391      114.014      134.667        0.236        0.027       64.278        9.709        0.023      334.092        3.837      868.093
01/28/2015  00:47:00      -90.348       -4.481      -11.446       15.853       13.047       14.847      251.305      170.233      220.429        0.448        0.032       90.459       11.459        0.016      334.122        3.887      868.092
01/28/2015  00:48:00      -85.071      -22.864      -17.308       16.161        9.054        6.932      261.166       81.967       48.058        0.423        0.020       88.090        3.727        0.002      333.940        3.585      868.083
01/28/2015  00:49:00     -104.654      -31.913       -9.295       17.933       16.238       10.340      321.591      263.681      106.911        0.637        0.035      109.412        9.184        0.007      333.859        3.450      868.072
01/28/2015  00:50:00     -117.797      -27.340      -17.580       11.594       11.055        8.826      134.424      122.205       77.906        0.763        0.017      120.928        5.265        0.002      333.916        3.544      868.066
01/28/2015  00:51:00     -110.121      -60.639       -9.367       17.718       19.736       12.605      313.931      389.501      158.895        0.838        0.043      125.712        8.056        0.004      333.896        3.512      868.058
01/28/2015  00:52:00     -104.238      -53.875       -0.352       36.900       29.470       18.139     1361.578      868.498      329.034        0.816        0.128      117.338       17.427        0.022      333.969        3.632      868.051
01/28/2015  00:53:00     -106.977      -48.356       -1.036       27.942       27.109       15.131      780.745      734.889      228.954        0.776        0.087      117.398       13.818        0.014      334.079        3.814      868.052
01/28/2015  00:54:00      -92.978      -21.656       -8.682       19.537       18.362       13.999      381.705      337.152      195.974        0.505        0.046       95.467       10.097        0.011      334.018        3.714      868.055
01/28/2015  00:55:00      -95.869      -15.177       -8.059       20.808       15.570       15.303      432.990      242.425      234.173        0.520        0.045       97.063       14.379        0.022      333.945        3.592      868.059
01/28/2015  00:56:00     -103.868      -21.936       -2.441       26.318       17.227       16.635      692.636      296.759      276.738        0.627        0.063      106.159       15.101        0.020      333.921        3.554      868.065
01/28/2015  00:57:00     -138.843      -51.396       -5.911       20.408       18.543       17.703      416.475      343.840      313.387        1.151        0.054      148.050       14.310        0.009      333.878        3.481      868.066
01/28/2015  00:58:00     -133.039      -52.792       -8.680       27.185       20.564       15.133      739.029      422.886      229.021        1.098        0.070      143.131        8.057        0.003      333.859        3.449      868.082
01/28/2015  00:59:00     -110.874      -57.835       -3.806       28.815       20.228       15.891      830.285      409.186      252.534        0.857        0.075      125.052       15.763        0.016      333.850        3.435      868.081
01/28/2015  01:00:00     -109.357      -52.187        1.703       31.608       27.631       18.179      999.093      763.464      330.493        0.839        0.105      121.171       18.583        0.024      333.766        3.296      868.080
01/28/2015  01:01:00     -135.741      -49.622      -11.342       16.541       19.683       15.323      273.600      387.421      234.785        1.096        0.045      144.527        9.689        0.004      333.731        3.239      868.077
01/28/2015  01:02:00     -118.880      -56.460       -8.721       31.646       26.382       19.747     1001.449      696.023      389.952        0.974        0.104      131.606       16.552        0.016      333.692        3.172      868.067
01/28/2015  01:03:00     -106.661      -51.291       -8.597       18.549       20.340       12.868      344.061      413.725      165.589        0.750        0.046      118.353        8.323        0.005      333.730        3.235      868.060
01/28/2015  01:04:00     -146.577      -49.184       -7.514       22.086       23.512       15.291      487.798      552.812      233.815        1.262        0.064      154.609        9.962        0.004      333.713        3.207      868.046
01/28/2015  01:05:00     -147.852      -41.248       -7.121       27.284       18.777       15.226      744.414      352.576      231.818        1.247        0.066      153.498       14.777        0.009      333.686        3.164      868.044
01/28/2015  01:06:00     -127.512      -33.952       -8.725       12.850       15.574       12.560      165.113      242.558      157.762        0.903        0.028      131.954        7.684        0.003      333.650        3.102      868.039
01/28/2015  01:07:00     -124.465      -33.725      -11.228       21.781       22.902       14.662      474.409      524.498      214.987        0.898        0.061      128.953       12.438        0.009      333.616        3.047      868.040
01/28/2015  01:08:00     -115.903       -9.219       -8.522       32.761       23.908       17.730     1073.264      571.595      314.341        0.777        0.098      116.269       17.506        0.023      333.577        2.982      868.046
01/28/2015  01:09:00     -135.330       33.667      -10.571       46.845       34.236       25.932     2194.428     1172.131      672.450        1.180        0.202      139.455       18.497        0.018      333.607        3.032      868.049
01/28/2015  01:10:00      -84.101       -6.347       -5.355       49.965       39.052       22.118     2496.480     1525.054      489.203        0.583        0.226       84.341       25.729        0.093      333.550        2.938      868.042
01/28/2015  01:11:00     -102.188      -49.656       -3.555       37.729       34.621       26.457     1423.444     1198.586      699.983        0.812        0.166      113.613       22.685        0.040      333.522        2.893      868.034
01/28/2015  01:12:00      -79.349      -26.094        1.767       33.679       39.082       21.220     1134.276     1527.436      450.268        0.505        0.156       83.529       16.686        0.040      333.510        2.871      868.030
01/28/2015  01:13:00      -97.050      -13.279      -10.011       29.717       28.489       17.018      883.118      811.607      289.619        0.584        0.099       97.954       10.524        0.012      333.503        2.860      868.022
01/28/2015  01:14:00      -88.580       -4.010      -15.255       31.915       25.079       22.342     1018.567      628.957      499.170        0.512        0.107       88.671       16.337        0.034      333.478        2.819      868.020
01/28/2015  01:15:00      -42.950      -39.254       -4.200       46.971       35.601       23.777     2206.296     1267.443      565.348        0.372        0.202       58.186       20.400        0.123      333.479        2.820      868.025
01/28/2015  01:16:00     -122.486      -40.652      -13.412       34.026       25.305       14.251     1157.739      640.319      203.104        0.942        0.100      129.056       12.823        0.010      333.431        2.740      868.033
01/28/2015  01:17:00     -104.050      -31.737      -15.451       22.784       23.982       13.416      519.105      575.131      179.980        0.667        0.064      108.783        6.697        0.004      333.459        2.787      868.032
01/28/2015  01:18:00      -88.402      -37.279      -16.239       23.899       20.253       16.199      571.169      410.184      262.420        0.536        0.062       95.940        6.854        0.005      333.490        2.837      868.049
01/28/2015  01:19:00      -26.230      -31.134      -14.848       40.227       25.334       16.582     1618.234      641.804      274.976        0.221        0.127       40.711       12.886        0.100      333.521        2.890      868.067
01/28/2015  01:20:00       -4.049       -4.735      -10.472       17.212       25.210       17.901      296.250      635.547      320.443        0.070        0.063        6.230        5.429        0.759      333.467        2.801      868.085
01/28/2015  01:21:00      -45.413       -5.070        5.531       11.218       12.225        9.674      125.843      149.448       93.596        0.124        0.018       45.695        6.002        0.017      333.589        3.001      868.108
01/28/2015  01:22:00      -21.690      -23.839       -4.793       15.044       15.840        9.755      226.315      250.921       95.151        0.082        0.029       32.230        5.960        0.034      333.611        3.040      868.117
01/28/2015  01:23:00      -65.312        1.758       -6.526       21.621       11.660        9.040      467.483      135.958       81.727        0.250        0.034       65.335        7.406        0.013      333.559        2.954      868.134
01/28/2015  01:24:00      -30.918       -3.308       -4.995       11.291        5.870        6.852      127.488       34.457       46.948        0.060        0.010       31.095        3.503        0.013      333.679        3.153      868.150
01/28/2015  01:25:00      -47.413      -21.320       -2.195       15.570       10.142        8.222      242.415      102.865       67.608        0.156        0.021       51.986        4.916        0.009      333.644        3.096      868.166
01/28/2015  01:26:00     -108.615      -33.968       -4.520       13.129       11.371        7.119      172.378      129.300       50.681        0.666        0.018      113.803        3.999        0.001      333.506        2.865      868.175
01/28/2015  01:27:00     -124.199      -24.642      -13.153       16.094       13.228        8.108      259.020      174.974       65.748        0.835        0.025      126.620        5.170        0.002      333.482        2.826      868.164
01/28/2015  01:28:00     -136.650      -32.608      -16.715       14.014        8.246        6.678      196.380       67.999       44.597        1.016        0.015      140.487        2.220        0.000      333.472        2.807      868.156
01/28/2015  01:29:00     -124.357      -32.577      -11.693       22.352       19.783       13.938      499.608      391.380      194.277        0.887        0.054      128.553       11.485        0.008      333.407        2.702      868.150
01/28/2015  01:30:00     -127.099      -44.268       -7.672       24.268       16.186       12.546      588.938      261.977      157.404        0.959        0.050      134.587       12.120        0.008      333.439        2.752      868.150
01/28/2015  01:31:00     -107.961      -31.060       -5.959       27.223       28.175       19.116      741.116      793.857      365.407        0.728        0.095      112.340       14.428        0.016      333.381        2.659      868.162
01/28/2015  01:32:00     -101.024      -23.357       -5.923       20.602       16.437       12.067      424.434      270.176      145.608        0.581        0.042      103.689        6.984        0.005      333.456        2.783      868.170
01/28/2015  01:33:00     -120.824      -31.551       -6.349       20.228       22.543       13.760      409.177      508.208      189.332        0.837        0.055      124.876       10.663        0.007      333.445        2.764      868.176
01/28/2015  01:34:00      -97.596      -41.734        4.197       37.634       26.574       15.204     1416.305      706.188      231.175        0.682        0.118      106.145       15.604        0.022      333.440        2.755      868.194
01/28/2015  01:35:00      -86.911      -39.027       -0.617       35.976       21.126       17.166     1294.295      446.315      294.660        0.556        0.102       95.272       15.728        0.027      333.496        2.848      868.205
01/28/2015  01:36:00     -105.731      -38.090       -5.755       35.673       25.899       16.150     1272.540      670.742      260.815        0.743        0.110      112.383       16.820        0.022      333.503        2.861      868.210
01/28/2015  01:37:00     -114.068      -47.434       -7.633       19.475       22.404       12.387      379.284      501.921      153.439        0.818        0.052      123.537       11.439        0.009      333.486        2.831      868.210
01/28/2015  01:38:00     -101.443      -39.487       -1.184       33.184       18.210       17.170     1101.168      331.606      294.826        0.679        0.086      108.857       18.823        0.030      333.471        2.807      868.220
01/28/2015  01:39:00     -114.319      -53.266       -4.419       24.499       15.910       12.657      600.187      253.134      160.206        0.847        0.051      126.120       14.632        0.013      333.444        2.762      868.232
01/28/2015  01:40:00     -119.373      -37.681       -8.535       16.869       14.661       10.636      284.570      214.957      113.134        0.818        0.031      125.179        8.145        0.004      333.409        2.705      868.230
01/28/2015  01:41:00      -95.359      -17.577       -5.235       27.868       18.644       16.253      776.612      347.584      264.175        0.541        0.069       96.966       15.612        0.026      333.359        2.622      868.224
01/28/2015  01:42:00     -116.469      -16.030      -19.571       15.318       13.663       15.326      234.648      186.688      234.892        0.743        0.033      117.567        6.348        0.003      333.438        2.753      868.215
01/28/2015  01:43:00     -109.341      -23.622      -15.881       11.354       12.770        8.737      128.905      163.069       76.341        0.657        0.018      111.864        6.371        0.003      333.439        2.752      868.215
01/28/2015  01:44:00     -120.312      -10.722      -15.284       13.146       15.328       10.383      172.819      234.958      107.801        0.767        0.026      120.789        3.836        0.001      333.353        2.611      868.222
01/28/2015  01:45:00     -108.831       -6.815      -13.558       18.676       13.159        8.834      348.802      173.153       78.037        0.634        0.030      109.044        9.067        0.007      333.324        2.564      868.230
01/28/2015  01:46:00      -72.824       -5.296      -14.294        9.723       12.650        9.702       94.545      160.030       94.138        0.294        0.017       73.017        6.991        0.009      333.361        2.626      868.239
01/28/2015  01:47:00      -68.388       -7.916       -7.162       13.018       10.183        8.676      169.459      103.689       75.279        0.257        0.017       68.845        2.838        0.002      333.476        2.816      868.250
01/28/2015  01:48:00      -29.846      -14.019       -4.241       11.449        7.113        5.323      131.088       50.594       28.331        0.066        0.011       32.975        5.398        0.027      333.427        2.733      868.255
01/28/2015  01:49:00        4.776       -2.661        0.337       16.556        8.191        6.963      274.085       67.095       48.487        0.021        0.019        5.467        5.842        1.142      333.616        3.049      868.254
01/28/2015  01:50:00       14.227       13.190       -6.048       20.087       14.663        9.368      403.476      215.016       87.757        0.056        0.035       19.400        4.985        0.066      333.661        3.122      868.249
01/28/2015  01:51:00       -0.492       -2.605       -3.365       19.272       10.476        9.599      371.395      109.754       92.146        0.030        0.029        2.651       11.426       18.581      333.644        3.094      868.241
01/28/2015  01:52:00      -55.096      -14.871      -13.823       14.172       11.045        9.212      200.859      121.985       84.861        0.193        0.020       57.068        6.029        0.011      333.280        2.489      868.235
01/28/2015  01:53:00      -58.240      -10.509       -7.976       10.536        9.374        8.908      111.013       87.877       79.347        0.192        0.014       59.181        5.402        0.008      333.347        2.602      868.238
01/28/2015  01:54:00      -44.576      -18.244       -8.166       11.011       13.014        7.174      121.237      169.353       51.459        0.136        0.017       48.165        4.336        0.008      333.455        2.781      868.236
01/28/2015  01:55:00      -36.564       -3.971       -0.500        8.910       10.477        7.093       79.381      109.763       50.310        0.080        0.012       36.779        3.443        0.009      333.442        2.760      868.246
01/28/2015  01:56:00      -34.341       -5.703       -4.294       21.308       17.220       18.039      454.021      296.544      325.413        0.115        0.054       34.812       15.329        0.194      333.406        2.700      868.257
01/28/2015  01:57:00      -38.542      -15.895      -11.639       14.790       12.348        8.500      218.742      152.483       72.248        0.116        0.022       41.691        5.972        0.021      333.159        2.290      868.263
01/28/2015  01:58:00      -50.725      -12.642      -14.685       12.807       14.747        9.688      164.017      217.488       93.856        0.171        0.024       52.276        5.327        0.010      333.091        2.179      868.265
01/28/2015  01:59:00      -30.295      -27.314       -9.961       14.626       10.576        9.503      213.913      111.854       90.299        0.109        0.021       40.790        4.297        0.011      333.262        2.461      868.268
01/28/2015  02:00:00       18.854        6.980       -2.851       17.520       14.717       12.081      306.955      216.582      145.943        0.054        0.033       20.104        8.771        0.190      333.586        2.997      868.271
01/28/2015  02:01:00       44.714       25.402        0.531       11.682       10.284       12.282      136.462      105.763      150.851        0.152        0.020       51.426        7.678        0.022      333.664        3.125      868.269
01/28/2015  02:02:00       47.930       26.638        1.998       14.807       13.982        8.859      219.261      195.504       78.485        0.175        0.025       54.835        6.320        0.013      333.627        3.065      868.264
01/28/2015  02:03:00       56.650       20.733        5.836       15.085       13.227        9.577      227.554      174.948       91.719        0.208        0.025       60.325        4.937        0.007      333.651        3.106      868.261
01/28/2015  02:04:00       26.557       12.050        5.426       19.685       10.745        7.771      387.493      115.456       60.391        0.072        0.028       29.163        8.397        0.083      333.770        3.302      868.246
01/28/2015  02:05:00      -16.099        1.139       -4.118       19.363       11.953        6.366      374.916      142.870       40.528        0.042        0.028       16.139        6.625        0.169      333.736        3.245      868.238
01/28/2015  02:06:00      -63.517       -5.651       -6.875        6.859        9.357        6.433       47.047       87.551       41.379        0.214        0.009       63.768        3.781        0.004      333.069        2.141      868.218
01/28/2015  02:07:00      -42.117        6.979       -3.690       16.289       17.376        8.815      265.345      301.926       77.699        0.124        0.032       42.692        5.996        0.020      333.571        2.974      868.190
01/28/2015  02:08:00      -30.323       15.986      -12.536       17.448       13.481        8.919      304.420      181.726       79.554        0.095        0.028       34.279        9.982        0.085      333.904        3.525      868.164
01/28/2015  02:09:00      -42.678       -2.276      -11.810       12.020       10.855        8.079      144.480      117.822       65.266        0.115        0.016       42.739        7.444        0.030      333.698        3.184      868.146
01/28/2015  02:10:00      -93.276      -18.252      -12.903       47.661       18.390       15.716     2271.568      338.185      246.996        0.603        0.143       95.045       18.165        0.037      333.188        2.340      868.141
01/28/2015  02:11:00     -173.112       -9.814      -16.159       35.289       22.735       21.529     1245.349      516.859      463.480        1.628        0.111      173.390       16.807        0.009      333.029        2.075      868.142
01/28/2015  02:12:00      -91.064      -32.422      -11.659       31.970       21.931       12.016     1022.051      480.951      144.377        0.556        0.082       96.664        9.259        0.009      333.183        2.331      868.154
01/28/2015  02:13:00      -32.349      -38.513       -1.932       16.549       15.820        6.324      273.869      250.273       39.990        0.155        0.028       50.296        3.781        0.006      333.596        3.012      868.160
01/28/2015  02:14:00      -53.090        0.560       -7.880       11.433       23.266        8.983      130.709      541.293       80.688        0.182        0.038       53.093        8.572        0.026      333.885        3.494      868.168
01/28/2015  02:15:00      -12.744        9.091       -9.929       18.590        9.665        8.048      345.597       93.408       64.764        0.042        0.025       15.654        9.500        0.368      334.193        4.004      868.173
01/28/2015  02:16:00       18.776       -2.274       -0.846        8.242        5.218        5.064       67.936       27.226       25.645        0.024        0.006       18.913        3.056        0.026      334.126        3.894      868.174
01/28/2015  02:17:00       -5.551      -21.296       -0.772       27.561       16.816        8.605      759.621      282.766       74.043        0.080        0.056       22.008        7.410        0.113      333.850        3.436      868.178
01/28/2015  02:18:00      -53.981      -15.868      -10.953        9.795       11.737        7.121       95.937      137.761       50.714        0.178        0.014       56.264        4.129        0.005      333.422        2.727      868.180
01/28/2015  02:19:00      -35.900      -20.971       -1.101       11.464       12.032        6.898      131.427      144.779       47.586        0.103        0.016       41.577        7.460        0.032      333.618        3.052      868.168
01/28/2015  02:20:00      -39.488      -14.260       -8.568        9.766       13.074        4.985       95.371      170.931       24.849        0.106        0.015       41.984        4.155        0.010      333.363        2.628      868.159
01/28/2015  02:21:00      -48.876      -29.184       -8.417        9.673       16.359        5.459       93.564      267.603       29.804        0.185        0.020       56.926        4.207        0.005      333.709        3.202      868.150
01/28/2015  02:22:00      -61.227       -2.678      -10.562       15.040        7.760        4.511      226.195       60.215       20.352        0.209        0.015       61.286        2.949        0.002      333.813        3.375      868.143
01/28/2015  02:23:00      -46.999       11.876       -9.850       29.379       15.817       10.927      863.126      250.171      119.391        0.184        0.062       48.476        9.451        0.038      334.324        4.222      868.128
01/28/2015  02:24:00      -32.195       46.140      -10.171       18.893       34.972       12.487      356.936     1223.045      155.932        0.250        0.087       56.262        9.581        0.029      334.316        4.209      868.119
01/28/2015  02:25:00      -60.871       21.096       -7.263       15.382       17.532        7.601      236.601      307.362       57.777        0.240        0.030       64.423        5.329        0.007      334.076        3.811      868.123
01/28/2015  02:26:00      -62.251       49.473       -8.731       20.807       19.141        9.453      432.932      366.375       89.362        0.364        0.044       79.516        6.775        0.007      334.353        4.270      868.124
01/28/2015  02:27:00      -51.065       41.725      -10.175       18.081       16.910        8.928      326.928      285.958       79.702        0.257        0.035       65.944        3.405        0.003      334.293        4.172      868.133
01/28/2015  02:28:00      -49.415        0.391       -1.878       15.588       24.909       12.659      242.988      620.471      160.256        0.173        0.051       49.416       10.525        0.045      333.983        3.656      868.128
01/28/2015  02:29:00      -63.061      -35.911       -8.793       13.947       20.874        9.791      194.505      435.732       95.862        0.303        0.036       72.569        4.551        0.004      333.524        2.894      868.133
01/28/2015  02:30:00      -66.157      -48.932       -3.097       15.152       12.801        9.454      229.577      163.862       89.376        0.363        0.024       82.286        6.636        0.007      333.391        2.675      868.128
01/28/2015  02:31:00      -62.318      -42.313        3.815       24.605       15.934       13.460      605.398      253.892      181.175        0.336        0.052       75.326       10.613        0.020      333.302        2.527      868.136
01/28/2015  02:32:00      -35.805      -43.729        5.254       20.266       21.504       15.040      410.729      462.413      226.206        0.216        0.055       56.517       11.634        0.042      333.435        2.746      868.143
01/28/2015  02:33:00      -68.206      -49.750       -0.017       27.668       28.030       15.448      765.530      785.703      238.644        0.446        0.089       84.422       10.714        0.016      333.405        2.698      868.155
01/28/2015  02:34:00      -52.670      -20.589        2.425       17.232       30.525       13.774      296.943      931.805      189.718        0.231        0.071       56.551       11.986        0.045      333.659        3.118      868.161
01/28/2015  02:35:00      -43.085      -21.011        3.775       31.141       16.091       13.324      969.756      258.919      177.540        0.186        0.070       47.935        5.588        0.014      333.728        3.235      868.164
01/28/2015  02:36:00      -70.636      -18.496       -2.087       33.378       15.998       12.607     1114.110      255.927      158.931        0.343        0.076       73.017       16.065        0.048      333.640        3.088      868.172
01/28/2015  02:37:00     -101.295      -44.256       -8.476       16.830       15.647       12.866      283.260      244.835      165.522        0.649        0.035      110.541        5.409        0.002      333.593        3.009      868.184
01/28/2015  02:38:00      -91.046      -29.056       -7.669       20.068       15.099       11.998      402.731      227.973      143.954        0.498        0.039       95.570        9.959        0.011      333.501        2.857      868.188
01/28/2015  02:39:00     -119.735      -46.470       -6.813       15.421       13.438       11.309      237.816      180.571      127.887        0.854        0.027      128.436        8.117        0.004      333.547        2.932      868.182
01/28/2015  02:40:00     -128.432      -20.567      -10.127       18.088       17.479       12.919      327.169      305.517      166.899        0.891        0.040      130.069       10.909        0.007      333.433        2.744      868.177
01/28/2015  02:41:00     -127.642      -17.686       -8.260       25.884       20.319       14.526      669.987      412.846      211.013        0.898        0.065      128.861       14.092        0.012      333.371        2.643      868.169
01/28/2015  02:42:00     -104.018      -16.141       -4.242       28.875       21.363       15.630      833.761      456.380      244.286        0.632        0.077      105.263       12.672        0.014      333.318        2.555      868.160
01/28/2015  02:43:00     -102.908      -25.704       -2.396       17.150       18.862       12.341      294.132      355.790      152.296        0.603        0.040      106.070        4.925        0.002      333.266        2.468      868.152
01/28/2015  02:44:00      -92.870      -23.737        0.002       24.973       19.292       14.018      623.629      372.163      196.494        0.519        0.060       95.856       11.906        0.015      333.223        2.396      868.148
01/28/2015  02:45:00      -65.653       -8.277       -5.650       27.947       18.685       14.103      781.028      349.147      198.887        0.287        0.066       66.172       12.838        0.038      333.283        2.495      868.147
01/28/2015  02:46:00      -97.483       -7.257       -7.213       18.239       13.004       11.552      332.653      169.100      133.451        0.512        0.032       97.753        8.658        0.008      333.414        2.712      868.147
01/28/2015  02:47:00      -76.871      -27.930      -15.023       18.660       18.179       11.661      348.200      330.492      135.984        0.386        0.041       81.787        9.050        0.012      333.353        2.612      868.150
01/28/2015  02:48:00      -40.840      -61.625       -1.897       24.477       25.481       18.217      599.135      649.289      331.868        0.352        0.079       73.929       13.748        0.035      333.327        2.568      868.146
01/28/2015  02:49:00      -40.767      -57.539       -2.605       28.950       18.730       19.574      838.102      350.818      383.152        0.328        0.079       70.517       16.288        0.053      333.208        2.371      868.152
01/28/2015  02:50:00      -40.702      -37.565        3.868       21.843        9.024       13.281      477.123       81.433      176.377        0.191        0.037       55.388       13.285        0.058      333.319        2.555      868.153
01/28/2015  02:51:00      -42.411      -36.789       -4.827       19.192        9.729        6.528      368.319       94.646       42.618        0.184        0.025       56.144        5.679        0.010      333.507        2.867      868.166
01/28/2015  02:52:00      -24.684      -28.317       -0.822       10.751        6.865        7.147      115.588       47.130       51.075        0.081        0.011       37.565        5.985        0.025      333.617        3.049      868.174
01/28/2015  02:53:00      -41.437       -0.719       -4.430       15.142        6.177        7.878      229.272       38.152       62.065        0.103        0.016       41.443        6.495        0.025      333.580        2.988      868.187
01/28/2015  02:54:00      -69.750        3.430      -10.623       10.328        5.461        6.891      106.669       29.818       47.481        0.259        0.009       69.834        5.464        0.006      333.414        2.714      868.206
01/28/2015  02:55:00      -91.093        5.359      -14.127        8.078       12.307        9.722       65.255      151.460       94.510        0.442        0.016       91.251        5.696        0.004      333.399        2.689      868.216
01/28/2015  02:56:00     -114.099       -8.903      -15.073       10.798        9.225        7.246      116.597       85.100       52.511        0.679        0.013      114.446        4.159        0.001      333.396        2.684      868.225
01/28/2015  02:57:00     -123.635      -19.776      -11.954       10.890       16.153       10.257      118.592      260.912      105.212        0.815        0.024      125.206        5.309        0.002      333.416        2.715      868.241
01/28/2015  02:58:00     -124.941      -15.311       -7.567       24.753       17.739       18.859      612.718      314.685      355.656        0.859        0.064      125.876       14.964        0.014      333.284        2.498      868.242
01/28/2015  02:59:00     -124.212      -18.853       -4.355       35.806       21.575       18.052     1282.075      465.481      325.869        0.894        0.104      125.635       14.678        0.014      333.165        2.301      868.247
01/28/2015  03:00:00     -126.430      -30.481       -1.500       29.871       23.777       18.639      892.271      565.355      347.402        0.936        0.090      130.052       16.745        0.017      333.078        2.156      868.254
01/28/2015  03:01:00     -108.331      -16.712       -1.510       34.796       17.928       16.769     1210.777      321.413      281.201        0.692        0.091      109.613       19.856        0.033      333.010        2.045      868.265
01/28/2015  03:02:00     -125.823      -17.339       -4.329       28.409       24.648       20.873      807.078      607.506      435.694        0.900        0.093      127.013       20.864        0.027      333.063        2.133      868.274
01/28/2015  03:03:00     -102.927       -9.053       -4.843       35.689       27.955       19.180     1273.685      781.468      367.868        0.656        0.121      103.325       18.054        0.031      333.193        2.346      868.290
01/28/2015  03:04:00     -104.652      -12.760       -4.325       35.194       21.555       19.622     1238.589      464.636      385.008        0.661        0.104      105.427       20.138        0.036      333.260        2.457      868.309
01/28/2015  03:05:00      -85.844      -10.908       -1.202       34.863       23.370       18.915     1215.451      546.152      357.789        0.480        0.106       86.534       19.600        0.051      333.238        2.421      868.325
01/28/2015  03:06:00      -56.652       -8.453       -2.285       31.325       17.945       13.108      981.282      322.040      171.827        0.238        0.074       57.279       13.942        0.059      333.345        2.599      868.339
01/28/2015  03:07:00      -45.030       -8.877       -5.292       19.909       15.941        9.474      396.357      254.127       89.752        0.144        0.037       45.896        7.508        0.027      333.357        2.617      868.355
01/28/2015  03:08:00      -43.322      -19.064       -0.846       14.833       23.392        9.747      220.021      547.186       94.998        0.155        0.043       47.331        9.056        0.037      333.356        2.616      868.371
01/28/2015  03:09:00      -49.330      -26.573       -3.078       11.625        9.759        7.490      135.137       95.242       56.103        0.172        0.014       56.032        6.202        0.012      333.333        2.579      868.393
01/28/2015  03:10:00      -32.768      -20.846       -3.931        9.306        7.691        4.857       86.603       59.155       23.595        0.085        0.008       38.837        3.520        0.008      333.350        2.606      868.406
01/28/2015  03:11:00      -15.521      -22.980        3.513        9.241        9.092        8.432       85.400       82.656       71.100        0.051        0.012       27.730        5.155        0.035      333.362        2.628      868.425
01/28/2015  03:12:00      -34.377      -31.824       -5.000        6.585        8.044        4.631       43.358       64.709       21.450        0.117        0.006       46.846        3.714        0.006      333.364        2.631      868.447
01/28/2015  03:13:00      -23.585      -24.655       -4.769        7.939        8.259        4.708       63.022       68.217       22.167        0.067        0.008       34.119        4.190        0.015      333.533        2.910      868.455
01/28/2015  03:14:00      -15.621      -18.368       -0.126        5.086        3.487        3.422       25.871       12.162       11.708        0.032        0.002       24.113        1.646        0.005      333.614        3.046      868.457
01/28/2015  03:15:00      -29.008      -20.525       -2.514        6.546        5.943        6.959       42.847       35.318       48.430        0.070        0.006       35.535        4.176        0.014      333.529        2.904      868.470
01/28/2015  03:16:00      -48.644      -24.178       -4.343        8.591        6.715        5.412       73.805       45.094       29.284        0.156        0.007       54.321        2.753        0.003      333.239        2.423      868.482
01/28/2015  03:17:00      -67.225      -21.087       -5.436       12.023        9.849        5.492      144.557       97.010       30.166        0.263        0.014       70.455        4.793        0.005      333.094        2.184      868.485
01/28/2015  03:18:00      -82.429      -35.901       -6.232       10.357        9.122        7.840      107.263       83.208       61.461        0.419        0.013       89.908        6.182        0.005      333.252        2.442      868.479
01/28/2015  03:19:00     -101.715      -33.771       -7.584        5.853        8.333        4.426       34.261       69.436       19.591        0.583        0.006      107.174        3.707        0.001      333.333        2.581      868.472
01/28/2015  03:20:00     -123.298      -31.779       -8.378       23.837       16.762       10.069      568.201      280.953      101.382        0.862        0.048      127.328        8.460        0.004      333.237        2.418      868.476
01/28/2015  03:21:00     -133.702      -33.067       -3.783       21.507       19.887       14.160      462.566      395.502      200.503        1.002        0.053      137.730        9.120        0.004      333.033        2.083      868.477
01/28/2015  03:22:00     -111.291      -55.215        3.547       38.846       30.154       20.117     1509.020      909.240      404.711        0.913        0.141      124.235       19.357        0.024      332.995        2.020      868.492
01/28/2015  03:23:00     -110.350      -57.948        4.203       34.627       27.204       18.107     1199.061      740.056      327.851        0.891        0.113      124.640       15.123        0.015      333.078        2.157      868.497
01/28/2015  03:24:00     -105.459      -47.832       -0.888       31.746       18.733       18.040     1007.800      350.919      325.444        0.755        0.084      115.800       17.593        0.023      333.097        2.187      868.504
01/28/2015  03:25:00     -113.881      -44.767       -2.016       30.237       24.673       15.644      914.302      608.769      244.747        0.837        0.088      122.364       14.170        0.013      333.191        2.344      868.515
01/28/2015  03:26:00      -97.696      -17.343       -3.739       33.422       20.650       21.875     1117.012      426.434      478.519        0.594        0.101       99.223       19.807        0.040      333.177        2.321      868.528
01/28/2015  03:27:00      -83.810      -42.868        6.811       32.753       21.536       14.326     1072.775      463.802      205.231        0.532        0.087       94.137       13.873        0.022      333.215        2.384      868.534
01/28/2015  03:28:00      -98.133      -32.908       -1.108       21.745       17.844       10.873      472.846      318.416      118.215        0.581        0.045      103.503        9.038        0.008      333.262        2.461      868.533
01/28/2015  03:29:00     -104.525      -30.669       -1.430       23.945       14.924       10.610      573.373      222.737      112.581        0.639        0.045      108.931       10.088        0.009      333.218        2.388      868.532
01/28/2015  03:30:00     -128.600      -34.850       -2.650       11.824       13.444       11.402      139.795      180.734      130.013        0.910        0.023      133.238        6.923        0.003      333.159        2.289      868.529
01/28/2015  03:31:00     -114.224      -38.645        2.276       25.001       18.837       15.080      625.032      354.839      227.408        0.788        0.060      120.584       12.743        0.011      333.105        2.202      868.526
01/28/2015  03:32:00     -124.464      -43.548       -0.248       13.373       13.698        7.510      178.835      187.632       56.393        0.891        0.021      131.862        5.775        0.002      333.116        2.219      868.531
01/28/2015  03:33:00     -118.980      -42.782       -2.432       23.334       20.981       13.485      544.468      440.191      181.839        0.858        0.058      126.438       12.806        0.010      333.090        2.176      868.542
01/28/2015  03:34:00     -134.140      -41.095       -8.573       15.984       13.885       10.724      255.474      192.794      115.003        1.016        0.028      140.294        8.697        0.004      333.004        2.035      868.543
01/28/2015  03:35:00     -120.102      -41.606       -1.264       28.508       31.374       16.664      812.712      984.304      277.700        0.912        0.104      127.105       11.821        0.009      332.850        1.781      868.542
01/28/2015  03:36:00      -94.572      -28.447        0.777       30.722       32.586       17.198      943.861     1061.870      295.780        0.603        0.115       98.758       11.943        0.015      332.751        1.620      868.536
01/28/2015  03:37:00      -54.710      -31.158        1.250       29.842       22.402       13.970      890.553      501.848      195.155        0.278        0.079       62.960       15.291        0.059      332.815        1.724      868.525
01/28/2015  03:38:00      -57.425      -35.041       -0.015       21.529       13.384       12.263      463.484      179.120      150.376        0.266        0.040       67.271        8.171        0.015      333.008        2.043      868.515
01/28/2015  03:39:00      -56.054        2.289       -0.462        9.296       10.018        9.478       86.420      100.355       89.838        0.171        0.014       56.101        4.898        0.008      333.009        2.045      868.503
01/28/2015  03:40:00      -61.477       11.837       -2.928       20.226       15.377       12.159      409.099      236.439      147.848        0.236        0.040       62.606       11.226        0.032      332.905        1.871      868.498
01/28/2015  03:41:00      -82.505       -0.553       -5.624       20.162       19.781       13.192      406.495      391.299      174.027        0.391        0.049       82.507       10.049        0.015      332.855        1.790      868.500
01/28/2015  03:42:00      -83.048      -17.066       -3.078       11.870       12.424        9.091      140.885      154.354       82.639        0.379        0.019       84.783        7.388        0.008      332.651        1.452      868.488
01/28/2015  03:43:00      -70.492      -26.681        1.147       23.983       15.779       14.370      575.167      248.992      206.511        0.336        0.052       75.373       12.510        0.028      332.595        1.360      868.460
01/28/2015  03:44:00      -88.359       -5.131        0.619       27.567       25.199       17.040      759.955      635.011      290.375        0.476        0.084       88.508       15.034        0.029      332.806        1.708      868.445
01/28/2015  03:45:00      -82.079       10.498       -5.564       28.388       16.406       12.002      805.862      269.157      144.038        0.405        0.061       82.748       11.848        0.021      332.769        1.648      868.451
01/28/2015  03:46:00      -51.229        9.782       -8.535       14.509       17.283       10.792      210.523      298.698      116.457        0.171        0.031       52.155        8.336        0.026      332.845        1.774      868.451
01/28/2015  03:47:00      -53.221      -11.159       -4.803       13.832       16.220       12.370      191.325      263.074      153.022        0.179        0.030       54.378        8.100        0.022      332.835        1.757      868.451
01/28/2015  03:48:00      -69.578      -31.941       -9.530       14.346       21.108       11.215      205.804      445.547      125.766        0.336        0.039       76.559        5.766        0.006      332.798        1.697      868.430
01/28/2015  03:49:00      -83.246      -21.041        0.927       25.011       23.324       13.519      625.551      544.025      182.769        0.436        0.068       85.864       11.373        0.018      332.636        1.427      868.420
01/28/2015  03:50:00      -84.260       -9.426       -3.330       28.916       22.217       13.978      836.159      493.613      195.393        0.436        0.076       84.785       12.961        0.023      332.632        1.420      868.424
01/28/2015  03:51:00      -68.961       11.729       -7.175       18.099       14.172       10.622      327.586      200.841      112.832        0.279        0.032       69.951        8.981        0.016      332.710        1.550      868.427
01/28/2015  03:52:00      -75.841      -10.540       -5.887       15.235       25.418       12.506      232.090      646.070      156.396        0.347        0.052       76.570       13.665        0.032      332.784        1.673      868.433
01/28/2015  03:53:00      -90.071      -46.234       -7.875       13.773       13.328       12.268      189.689      177.631      150.510        0.542        0.026      101.245        8.667        0.007      332.627        1.413      868.419
01/28/2015  03:54:00      -83.973      -45.312       -2.407       51.670       27.028       19.917     2669.766      730.511      396.684        0.645        0.190       95.418       29.757        0.097      332.547        1.280      868.397
01/28/2015  03:55:00     -105.062      -52.196       -4.464       25.030       20.046       11.573      626.477      401.853      133.927        0.747        0.058      117.314       10.461        0.008      332.630        1.417      868.377
01/28/2015  03:56:00      -94.074      -45.150       -2.904       18.969       19.772       13.791      359.822      390.938      190.200        0.592        0.047      104.348       10.818        0.011      332.594        1.359      868.370
01/28/2015  03:57:00      -81.942      -32.141       -2.601       19.071       11.717        8.116      363.687      137.291       65.868        0.416        0.028       88.020        9.427        0.011      332.575        1.325      868.375
01/28/2015  03:58:00      -83.729       -7.525       -3.249       22.049       16.415       15.413      486.143      269.448      237.548        0.404        0.050       84.066       11.785        0.020      332.583        1.341      868.395
01/28/2015  03:59:00      -95.788        4.045       -7.136       31.408       17.583       15.233      986.443      309.161      232.055        0.538        0.076       95.874       10.973        0.013      332.524        1.242      868.416
01/28/2015  04:00:00      -70.790       -5.307       -0.260       32.798       17.069       14.098     1075.739      291.365      198.763        0.330        0.078       70.989       16.293        0.053      332.564        1.308      868.424
01/28/2015  04:01:00      -54.577       -4.519        5.924       43.319       22.600       16.863     1876.534      510.762      284.366        0.285        0.134       54.764       20.431        0.139      332.508        1.216      868.435
01/28/2015  04:02:00      -43.029      -16.330       -9.180       33.317       20.533       16.012     1110.046      421.623      256.395        0.199        0.089       46.024        6.844        0.022      332.483        1.175      868.442
01/28/2015  04:03:00      -50.050      -11.248        0.609       22.221       20.943       13.634      493.774      438.596      185.892        0.187        0.056       51.298       10.683        0.043      332.367        0.984      868.452
01/28/2015  04:04:00      -51.991      -26.747       -8.511       12.832       14.387        5.939      164.665      206.972       35.276        0.195        0.020       58.468        3.622        0.004      332.485        1.178      868.468
01/28/2015  04:05:00      -39.058      -32.256       -6.409        6.599       14.785        6.552       43.545      218.589       42.928        0.146        0.015       50.655        4.303        0.007      332.657        1.463      868.465
01/28/2015  04:06:00      -58.352      -25.103       -2.864       11.489        8.955        6.283      131.987       80.185       39.476        0.215        0.013       63.522        4.889        0.006      332.687        1.513      868.456
01/28/2015  04:07:00      -49.512      -32.690       -4.400       29.739       10.968        8.707      884.387      120.301       75.818        0.231        0.054       59.330        9.454        0.025      332.631        1.419      868.449
01/28/2015  04:08:00      -53.286      -28.553        3.774       37.552       16.063       14.967     1410.119      258.012      224.015        0.278        0.095       60.454       21.183        0.123      332.530        1.251      868.449
01/28/2015  04:09:00      -71.745      -31.199        4.856       35.158       24.140       17.036     1236.114      582.729      290.209        0.413        0.105       78.235       11.040        0.020      332.454        1.127      868.457
01/28/2015  04:10:00      -29.834      -26.987        7.616       33.535       23.679       18.779     1124.619      560.714      352.653        0.186        0.102       40.229       21.114        0.275      332.518        1.231      868.473
01/28/2015  04:11:00       -8.701        5.327        4.409       31.721       12.361       13.100     1006.200      152.799      171.600        0.073        0.067       10.202       13.249        1.686      332.574        1.324      868.477
01/28/2015  04:12:00       10.728       26.603        2.889       17.100       11.278       14.377      292.397      127.195      206.692        0.073        0.031       28.685       10.790        0.141      332.731        1.585      868.479
01/28/2015  04:13:00        0.689        6.593        7.186       14.644        7.988       12.493      214.451       63.804      156.067        0.026        0.022        6.629       12.474        3.541      332.709        1.547      868.488
01/28/2015  04:14:00      -12.567        2.094        3.024       21.216       10.676        7.467      450.117      113.970       55.759        0.040        0.031       12.741        7.703        0.366      332.624        1.408      868.494
01/28/2015  04:15:00      -58.448      -24.040       -5.339       22.065       23.941       15.260      486.863      573.154      232.882        0.266        0.065       63.199       12.590        0.040      332.512        1.223      868.511
01/28/2015  04:16:00      -65.425        7.366       -4.558       21.809       27.501       15.366      475.652      756.315      236.116        0.291        0.073       65.838       12.779        0.038      332.430        1.086      868.520
01/28/2015  04:17:00      -67.382      -35.341        0.469       35.339       28.673       15.667     1248.865      822.161      245.471        0.405        0.116       76.088       17.389        0.052      332.513        1.223      868.517
01/28/2015  04:18:00      -51.283      -12.291        0.455       29.235       19.469       13.275      854.671      379.037      176.221        0.210        0.070       52.735        6.829        0.017      332.390        1.022      868.520
01/28/2015  04:19:00      -81.465      -21.243       -1.799       26.939       24.785       19.215      725.698      614.291      369.203        0.440        0.085       84.189       17.264        0.042      332.429        1.085      868.522
01/28/2015  04:20:00     -108.410       -7.884       -7.250       35.490       25.068       15.861     1259.518      628.416      251.567        0.700        0.107      108.696       15.970        0.022      332.355        0.962      868.531
01/28/2015  04:21:00     -122.759      -18.605       -5.603       32.543       32.223       19.337     1059.076     1038.340      373.939        0.896        0.124      124.161       15.548        0.016      332.285        0.849      868.542
01/28/2015  04:22:00      -94.196      -25.963       -7.721       25.888       30.061       18.634      670.186      903.642      347.213        0.576        0.096       97.709       15.607        0.026      332.241        0.777      868.565
01/28/2015  04:23:00      -41.903      -42.888       -3.124       26.834       24.458       16.182      720.055      598.175      261.857        0.259        0.079       59.960       12.725        0.045      332.305        0.881      868.568
01/28/2015  04:24:00      -19.788      -32.330        9.826       26.992       18.405       13.772      728.576      338.745      189.672        0.139        0.063       37.905       12.892        0.116      332.414        1.060      868.569
01/28/2015  04:25:00      -46.836      -17.059        3.978       32.339       16.786       11.749     1045.841      281.754      138.028        0.198        0.073       49.846        8.688        0.030      332.495        1.194      868.575
01/28/2015  04:26:00     -107.844      -27.235       -4.835       21.766       18.474       14.221      473.769      341.305      202.247        0.671        0.051      111.230        5.969        0.003      332.381        1.007      868.579
01/28/2015  04:27:00     -113.536      -36.585       -9.157       20.954       19.592       10.013      439.089      383.842      100.260        0.762        0.046      119.285        8.956        0.006      332.221        0.744      868.573
01/28/2015  04:28:00     -108.766      -36.256       -6.135       16.701       20.504       14.561      278.936      420.395      212.013        0.705        0.046      114.649       12.060        0.011      332.156        0.638      868.575
01/28/2015  04:29:00     -138.773      -56.206       -9.558       14.352       17.014       12.641      205.992      289.468      159.788        1.158        0.033      149.723        9.354        0.004      332.177        0.671      868.577
01/28/2015  04:30:00     -138.432      -45.827      -12.021       18.041       18.000       15.901      325.487      324.008      252.826        1.116        0.045      145.820        9.560        0.004      332.150        0.625      868.583
01/28/2015  04:31:00     -118.711       -0.474      -12.124       37.579       22.423       22.856     1412.183      502.775      522.415        0.834        0.122      118.712       23.247        0.038      332.124        0.583      868.584
01/28/2015  04:32:00     -113.349      -18.095       -3.384       46.322       25.141       22.593     2145.768      632.057      510.443        0.824        0.164      114.785       24.857        0.047      332.050        0.462      868.592
01/28/2015  04:33:00     -110.256      -29.626      -10.940       33.220       18.582       17.830     1103.554      345.297      317.900        0.746        0.088      114.166       17.585        0.024      332.079        0.508      868.602
01/28/2015  04:34:00     -102.097      -31.309       -4.999       21.341       19.624       16.253      455.453      385.108      264.176        0.627        0.055      106.790       11.867        0.012      332.100        0.544      868.620
01/28/2015  04:35:00      -95.540      -25.760       -9.151       33.031       30.600       17.484     1091.063      936.388      305.698        0.610        0.117       98.952       18.908        0.037      332.127        0.589      868.638
01/28/2015  04:36:00      -99.312      -37.722        1.872       32.866       35.160       20.708     1080.205     1236.251      428.836        0.702        0.137      106.235       15.270        0.021      332.159        0.642      868.644
01/28/2015  04:37:00      -75.514      -34.890        1.019       23.964       25.360       15.798      574.267      643.148      249.573        0.419        0.073       83.184       13.389        0.026      332.140        0.610      868.662
01/28/2015  04:38:00      -76.815      -41.423        0.015       31.471       24.505       16.509      990.432      600.496      272.558        0.474        0.093       87.272       17.567        0.041      332.201        0.711      868.679
01/28/2015  04:39:00     -103.519      -37.582      -10.263       24.444       17.564       13.904      597.528      308.497      193.331        0.667        0.055      110.130        6.463        0.003      332.250        0.790      868.697
01/28/2015  04:40:00      -37.283      -36.137        3.274       21.079       20.230       13.372      444.345      409.238      178.809        0.187        0.052       51.922        7.628        0.022      332.325        0.914      868.707
01/28/2015  04:41:00      -45.867      -43.928       -2.096       21.933       16.018       15.916      481.041      256.579      253.325        0.251        0.050       63.510        9.764        0.024      332.385        1.011      868.729
01/28/2015  04:42:00      -85.939      -39.723       -3.065       28.685       20.822       18.321      822.855      433.541      335.670        0.528        0.080       94.675       17.694        0.035      332.404        1.043      868.745
01/28/2015  04:43:00     -103.100      -37.919       -7.810       25.258       20.684       13.869      637.970      427.841      192.358        0.669        0.063      109.852       13.497        0.015      332.394        1.029      868.763
01/28/2015  04:44:00     -112.294      -55.372        0.867       32.243       19.661       16.700     1039.605      386.573      278.890        0.869        0.085      125.204       16.774        0.018      332.438        1.098      868.779
01/28/2015  04:45:00     -128.011      -47.249       -7.810       16.642       13.277       10.860      276.965      176.289      117.931        0.963        0.029      136.453        8.601        0.004      332.445        1.113      868.782
01/28/2015  04:46:00     -132.153      -49.221       -3.380       29.794       24.517       18.150      887.695      601.107      329.423        1.086        0.091      141.022       14.111        0.010      332.378        1.002      868.785
01/28/2015  04:47:00     -123.274      -71.983       -0.576       38.905       31.767       20.150     1513.634     1009.159      406.040        1.165        0.146      142.752       17.633        0.015      332.397        1.033      868.793
01/28/2015  04:48:00     -102.472      -28.341       -4.067       30.701       29.497       16.492      942.559      870.096      271.970        0.670        0.104      106.319       16.466        0.024      332.322        0.910      868.805
01/28/2015  04:49:00     -104.655      -25.791       -0.099       39.821       33.904       21.002     1585.745     1149.507      441.080        0.740        0.159      107.786       18.522        0.030      332.370        0.988      868.807
01/28/2015  04:50:00     -132.706      -31.783       -9.966       28.690       25.631       17.960      823.135      656.956      322.572        1.026        0.090      136.459       14.827        0.012      332.414        1.061      868.812
01/28/2015  04:51:00     -116.816      -29.404       -7.653       20.454       21.954       15.585      418.360      481.973      242.895        0.786        0.057      120.459       10.788        0.008      332.456        1.132      868.810
01/28/2015  04:52:00      -98.116      -16.779       -1.363       50.221       28.380       27.493     2522.138      805.410      755.845        0.700        0.204       99.540       29.987        0.091      332.407        1.050      868.810
01/28/2015  04:53:00     -154.171       -6.998      -12.923       50.086       28.718       24.702     2508.628      824.724      610.205        1.396        0.197      154.330       26.008        0.028      332.304        0.878      868.814
01/28/2015  04:54:00     -159.163        5.347      -11.123       38.493       35.063       23.539     1481.736     1229.427      554.091        1.437        0.163      159.253       23.705        0.022      332.290        0.856      868.806
01/28/2015  04:55:00     -180.054       26.525      -18.032       33.914       32.786       19.427     1150.181     1074.918      377.425        1.802        0.130      181.997       15.815        0.008      332.411        1.055      868.797
01/28/2015  04:56:00     -151.078       22.351      -15.981       34.799       36.402       17.912     1210.967     1325.075      320.839        1.322        0.143      152.723        9.206        0.004      332.402        1.041      868.785
01/28/2015  04:57:00     -146.527       17.112       -7.348       48.562       37.128       24.227     2358.257     1378.468      586.952        1.307        0.216      147.523       23.946        0.026      332.419        1.069      868.773
01/28/2015  04:58:00     -176.812       35.194      -11.928       32.069       37.866       22.450     1028.396     1433.797      503.988        1.780        0.148      180.280       10.009        0.003      332.435        1.094      868.774
01/28/2015  04:59:00     -188.259       62.989      -19.194       46.632       37.841       25.965     2174.546     1431.907      674.190        2.203        0.214      198.517       16.351        0.007      332.478        1.164      868.787
01/28/2015  05:00:00     -188.963       64.474      -16.409       54.409       33.522       32.113     2960.317     1123.725     1031.255        2.262        0.256      199.660       23.490        0.014      332.428        1.082      868.798
01/28/2015  05:01:00     -154.008       68.052       -6.093       57.196       33.718       30.367     3271.401     1136.923      922.156        1.686        0.267      168.373       25.741        0.023      332.480        1.168      868.802
01/28/2015  05:02:00     -128.820       46.768       -7.825       53.879       28.930       27.094     2902.962      836.940      734.110        1.166        0.224      137.047       28.732        0.044      332.550        1.284      868.806
01/28/2015  05:03:00     -168.041       42.426      -16.158       39.889       34.281       22.712     1591.143     1175.186      515.852        1.679        0.164      173.314       12.489        0.005      332.545        1.276      868.808
01/28/2015  05:04:00      -46.816        7.992       -5.535       42.427       27.102       16.548     1800.089      734.497      273.839        0.255        0.140       47.493       14.499        0.093      332.515        1.227      868.816
01/28/2015  05:05:00      -17.797      -10.692       -4.656       21.252       19.742       15.163      451.647      389.727      229.915        0.076        0.054       20.762        7.884        0.144      332.674        1.490      868.819
01/28/2015  05:06:00        8.265      -31.922       -0.411       16.245       19.294       14.347      263.894      372.267      205.836        0.096        0.042       32.974       13.457        0.167      332.653        1.456      868.826
01/28/2015  05:07:00        5.767      -49.693      -10.428       13.014       14.213       13.680      169.370      202.010      187.154        0.158        0.028       50.026        6.327        0.016      332.694        1.524      868.842
01/28/2015  05:08:00       12.436      -34.525      -12.068       13.955       12.672        9.384      194.743      160.584       88.053        0.097        0.022       36.697        5.721        0.024      332.652        1.455      868.859
01/28/2015  05:09:00       -0.092      -31.467       -5.549       19.768       21.243       12.511      390.787      451.261      156.522        0.101        0.050       31.467       10.097        0.103      332.689        1.516      868.862
01/28/2015  05:10:00        0.819      -13.568        4.933        9.764       13.136       13.481       95.333      172.565      181.730        0.033        0.022       13.592        8.934        0.432      332.603        1.372      868.875
01/28/2015  05:11:00      -28.474      -16.858        2.468       17.432       13.276       13.023      303.885      176.264      169.605        0.088        0.032       33.090       13.626        0.170      332.515        1.228      868.887
01/28/2015  05:12:00      -76.341      -29.746       -4.555       15.455       17.567        9.857      238.859      308.600       97.165        0.369        0.032       81.932        2.464        0.001      332.422        1.074      868.886
01/28/2015  05:13:00      -63.992      -14.325        0.008       27.321       21.180       10.483      746.417      448.606      109.889        0.280        0.065       65.576        4.482        0.005      332.359        0.970      868.898
01/28/2015  05:14:00      -49.231       -7.769       -4.153       11.163       11.427        7.667      124.615      130.580       58.782        0.141        0.016       49.840        5.881        0.014      332.354        0.962      868.916
01/28/2015  05:15:00      -40.626       -5.831       -2.965        7.370        6.434        7.486       54.313       41.401       56.033        0.092        0.008       41.042        3.970        0.009      332.385        1.014      868.911
01/28/2015  05:16:00      -14.989      -28.092       -5.871       12.179       12.069        9.933      148.317      145.650       98.661        0.072        0.020       31.840        5.374        0.028      332.487        1.180      868.911
01/28/2015  05:17:00      -20.481      -12.211       -9.791        7.544        7.621        4.114       56.906       58.080       16.924        0.040        0.007       23.845        1.776        0.006      332.503        1.209      868.920
01/28/2015  05:18:00       -8.292        5.473        2.155        6.719        4.582        5.737       45.138       20.992       32.913        0.010        0.005        9.936        4.371        0.194      332.517        1.229      868.928
01/28/2015  05:19:00        3.517        5.197        1.676        5.879        3.494        4.305       34.560       12.212       18.530        0.005        0.003        6.275        1.405        0.050      332.486        1.180      868.943
01/28/2015  05:20:00       -6.614        5.222        6.686        7.566        8.193        7.059       57.242       67.121       49.833        0.014        0.009        8.427        4.219        0.251      332.504        1.210      868.964
01/28/2015  05:21:00      -24.116      -15.826       -3.486        6.391        5.287        4.437       40.851       27.953       19.686        0.047        0.004       28.845        3.738        0.017      332.539        1.268      868.986
01/28/2015  05:22:00       -9.546      -17.264       -0.233       10.252        8.592        7.443      105.095       73.824       55.395        0.031        0.012       19.727        7.038        0.127      332.556        1.295      869.011
01/28/2015  05:23:00       -8.339        1.247        1.044        5.383        8.300        4.759       28.978       68.897       22.644        0.010        0.006        8.432        3.378        0.161      332.516        1.230      869.028
01/28/2015  05:24:00       -9.096       10.444        2.239        6.077        5.524        6.582       36.935       30.512       43.329        0.015        0.006       13.849        3.340        0.058      332.597        1.361      869.035
01/28/2015  05:25:00      -36.444        8.790       -2.388       11.095        9.528        3.568      123.090       90.791       12.733        0.082        0.011       37.489        2.787        0.006      332.634        1.425      869.046
01/28/2015  05:26:00      -45.282      -16.428       -4.612        7.748        6.295        6.484       60.034       39.623       42.045        0.124        0.007       48.170        3.697        0.006      332.491        1.188      869.056
01/28/2015  05:27:00       -8.573       -0.334        5.515       14.175       12.337        9.832      200.917      152.210       96.660        0.028        0.022        8.580        8.742        1.038      332.483        1.175      869.066
01/28/2015  05:28:00       13.637       20.203        4.817       16.055        9.678        8.688      257.763       93.672       75.480        0.052        0.021       24.374        8.769        0.129      332.549        1.285      869.083
01/28/2015  05:29:00       13.884        9.183        2.918        5.932        9.996        8.736       35.183       99.915       76.317        0.025        0.011       16.646        3.802        0.052      332.604        1.374      869.102
01/28/2015  05:30:00       10.980        3.565        7.911        6.964        3.717       10.087       48.493       13.817      101.738        0.018        0.008       11.544        6.353        0.303      332.592        1.353      869.116
01/28/2015  05:31:00       -9.329       -3.916       -3.092       20.359        8.315        5.782      414.479       69.144       33.431        0.031        0.026       10.118        7.325        0.524      332.462        1.140      869.130
01/28/2015  05:32:00      -42.909       -0.927       -5.572        7.777        7.865        7.153       60.474       61.866       51.165        0.102        0.009       42.919        2.081        0.002      332.329        0.919      869.142
01/28/2015  05:33:00      -49.498        4.523       -2.936        9.026       12.578        4.921       81.468      158.197       24.215        0.137        0.013       49.705        3.484        0.005      332.341        0.941      869.153
01/28/2015  05:34:00      -30.352      -14.990       -0.523        9.835        7.628        8.290       96.735       58.189       68.717        0.068        0.011       33.852        4.331        0.016      332.305        0.879      869.168
01/28/2015  05:35:00      -29.662       -5.644       -5.166        6.636        9.391        4.961       44.031       88.193       24.610        0.055        0.008       30.194        2.948        0.010      332.347        0.949      869.188
01/28/2015  05:36:00      -41.662       -0.706       -5.496        6.807        5.008        6.109       46.336       25.078       37.316        0.094        0.005       41.668        1.261        0.001      332.344        0.946      869.200
01/28/2015  05:37:00      -34.101       -6.056       -6.838        8.835        6.344        5.345       78.050       40.245       28.569        0.070        0.007       34.634        4.463        0.017      332.355        0.962      869.206
01/28/2015  05:38:00      -32.131       -4.807       -0.392        6.978        4.636        3.754       48.697       21.496       14.092        0.057        0.004       32.489        2.438        0.006      332.420        1.072      869.205
01/28/2015  05:39:00      -18.686       -0.109       -3.869        4.000        3.387        3.710       15.999       11.469       13.767        0.020        0.002       18.686        1.132        0.004      332.389        1.022      869.205
01/28/2015  05:40:00      -10.585       -5.887       -5.190        6.656        7.362        3.392       44.303       54.197       11.503        0.014        0.006       12.111        2.912        0.058      332.338        0.935      869.210
01/28/2015  05:41:00      -12.676       -8.953       -5.817        6.837        6.178        8.415       46.741       38.169       70.815        0.022        0.008       15.519        3.286        0.045      332.456        1.130      869.216
01/28/2015  05:42:00      -11.883       -7.175       -3.662        4.783        4.194        3.914       22.876       17.588       15.323        0.013        0.003       13.881        2.623        0.036      332.426        1.078      869.225
01/28/2015  05:43:00       -9.485       -2.435       -1.002        3.896        3.765        2.754       15.182       14.176        7.582        0.007        0.002        9.792        1.354        0.019      332.390        1.020      869.235
01/28/2015  05:44:00      -10.606       -1.486        6.435        4.508        4.744        4.134       20.321       22.502       17.087        0.011        0.003       10.709        2.840        0.070      332.415        1.062      869.237
01/28/2015  05:45:00      -34.494        3.627       -3.004       19.564        8.778        5.898      382.742       77.053       34.788        0.085        0.025       34.684        4.423        0.016      332.349        0.955      869.238
01/28/2015  05:46:00      -61.581       20.576       -1.720       17.980       10.716        8.281      323.293      114.840       68.576        0.236        0.025       64.928        6.267        0.009      332.312        0.893      869.237
01/28/2015  05:47:00      -73.512       25.657       -6.832       11.775        7.603        7.328      138.649       57.807       53.706        0.318        0.013       77.861        4.777        0.004      332.337        0.934      869.232
01/28/2015  05:48:00      -67.404       19.196      -10.336       11.157       13.632       10.279      124.469      185.828      105.666        0.272        0.021       70.085        4.221        0.004      332.249        0.788      869.229
01/28/2015  05:49:00      -48.447        8.984       -3.764       15.891       22.706        8.533      252.518      515.545       72.816        0.164        0.042       49.273        6.166        0.016      332.219        0.738      869.235
01/28/2015  05:50:00      -48.097       22.476       -7.493       16.589       15.763       11.083      275.184      248.480      122.824        0.176        0.032       53.090        7.268        0.019      332.303        0.879      869.242
01/28/2015  05:51:00      -54.220        3.955       -1.205       15.129       17.090       12.423      228.884      292.079      154.333        0.182        0.034       54.364        8.503        0.024      332.247        0.786      869.246
01/28/2015  05:52:00      -69.830        5.849       -8.494       14.072       11.244       12.053      198.031      126.433      145.267        0.273        0.023       70.075        4.201        0.004      332.095        0.534      869.247
01/28/2015  05:53:00      -73.113        0.140      -10.499       15.623       13.550       14.639      244.074      183.603      214.310        0.305        0.032       73.113       11.352        0.024      332.109        0.559      869.248
01/28/2015  05:54:00      -77.255       -5.195      -16.052       14.636       23.478       13.401      214.220      551.210      179.589        0.360        0.047       77.430        6.382        0.007      332.183        0.680      869.243
01/28/2015  05:55:00      -57.486      -22.453      -18.034       18.717       18.377       11.090      350.340      337.703      122.990        0.247        0.041       61.716        5.710        0.009      331.954        0.302      869.251
01/28/2015  05:56:00      -57.337      -32.275      -11.261       30.488       18.417       17.246      929.498      339.171      297.440        0.301        0.078       65.797       17.819        0.073      331.934        0.269      869.261
01/28/2015  05:57:00      -29.369       -9.183      -14.923       16.120       28.746       12.920      259.870      826.305      166.937        0.121        0.063       30.771        9.898        0.103      331.987        0.357      869.267
01/28/2015  05:58:00      -27.348       -7.942      -11.907       15.961       25.931       10.976      254.768      672.391      120.477        0.100        0.052       28.478        9.304        0.107      332.101        0.545      869.273
01/28/2015  05:59:00      -29.548        4.165      -12.288       21.515       20.612       11.231      462.876      424.851      126.139        0.103        0.051       29.840        8.992        0.091      332.125        0.585      869.274
01/28/2015  06:00:00      -36.490       25.597      -12.653       21.384       30.818       14.402      457.294      949.718      207.416        0.188        0.081       44.573       12.487        0.078      332.279        0.838      869.270
01/28/2015  06:01:00      -31.229        0.096       -8.868       29.894       32.973       21.197      893.624     1087.220      449.302        0.174        0.122       31.229       13.899        0.198      332.134        0.601      869.261
01/28/2015  06:02:00      -33.019       13.558       -5.658       27.197       28.099       22.842      739.680      789.530      521.778        0.168        0.103       35.694       14.822        0.172      332.157        0.638      869.256
01/28/2015  06:03:00      -34.096        7.448       -3.528       35.381       26.676       23.819     1251.811      711.614      567.365        0.188        0.127       34.900       23.829        0.466      332.069        0.492      869.255
01/28/2015  06:04:00      -35.181       -4.816       -3.123       33.656       41.207       17.747     1132.713     1698.050      314.956        0.221        0.157       35.510        7.619        0.046      332.164        0.649      869.268
01/28/2015  06:05:00      -84.695       -5.837       -8.309       40.150       33.611       21.892     1612.021     1129.667      479.260        0.525        0.161       84.896        7.727        0.008      332.213        0.730      869.292
01/28/2015  06:06:00      -48.993       21.326        0.372       44.760       24.446       24.850     2003.480      597.625      617.543        0.304        0.161       53.433       24.284        0.207      332.154        0.633      869.316
01/28/2015  06:07:00      -35.267       16.048       -2.952       18.886       32.358       17.083      356.690     1047.051      291.835        0.160        0.085       38.746        8.540        0.049      332.132        0.597      869.335
01/28/2015  06:08:00      -33.964       -1.538       -0.538       17.721       25.088       12.089      314.037      629.424      146.142        0.112        0.054       33.999       11.086        0.106      332.117        0.571      869.342
01/28/2015  06:09:00       -4.235      -29.143        0.248       15.735       13.315       11.229      247.586      177.285      126.081        0.071        0.028       29.449       11.269        0.146      332.216        0.735      869.339
01/28/2015  06:10:00        6.090      -13.467        9.354       11.167       16.784        9.499      124.706      281.696       90.230        0.040        0.025       14.780        6.920        0.219      332.154        0.631      869.333
01/28/2015  06:11:00       -3.235      -14.856        0.260        7.840       15.311        9.627       61.472      234.431       92.676        0.031        0.019       15.204        9.105        0.359      332.175        0.667      869.337
01/28/2015  06:12:00      -39.021      -23.525       -2.291       21.027       14.108        9.510      442.134      199.046       90.431        0.141        0.037       45.564        9.644        0.045      332.134        0.599      869.339
01/28/2015  06:13:00      -40.102      -20.283       -3.542       22.559       11.177       14.942      508.909      124.928      223.265        0.144        0.043       44.940       15.312        0.116      332.068        0.491      869.340
01/28/2015  06:14:00      -60.411       -6.737      -10.906       13.958       10.755        8.352      194.824      115.664       69.760        0.210        0.019       60.786        7.412        0.015      332.129        0.592      869.331
01/28/2015  06:15:00      -97.181       -7.708      -10.544       18.740       13.202       10.385      351.195      174.297      107.856        0.512        0.032       97.486        8.092        0.007      332.114        0.565      869.315
01/28/2015  06:16:00     -118.434      -15.011      -13.941       18.844       16.245       15.188      355.099      263.902      230.688        0.765        0.042      119.381       12.877        0.012      332.047        0.455      869.295
01/28/2015  06:17:00     -114.130      -18.420       -4.945       22.560       19.239       18.160      508.951      370.125      329.796        0.730        0.060      115.606       16.246        0.020      331.971        0.330      869.288
01/28/2015  06:18:00     -113.000       -9.563       -3.172       17.084       15.261       13.625      291.874      232.886      185.650        0.679        0.036      113.404        8.991        0.006      331.894        0.204      869.278
01/28/2015  06:19:00      -98.655       -1.092       -0.251       28.360       17.457       17.827      804.292      304.738      317.809        0.558        0.071       98.661       14.768        0.022      331.957        0.306      869.283
01/28/2015  06:20:00      -68.273       -8.543       -3.263       23.600       17.372       13.187      556.952      301.794      173.909        0.289        0.052       68.805       10.796        0.025      331.999        0.376      869.293
01/28/2015  06:21:00      -53.761       -8.597       -1.334       13.028        6.421        4.684      169.732       41.233       21.937        0.160        0.012       54.444        3.102        0.003      332.075        0.504      869.305
01/28/2015  06:22:00      -44.253      -14.548       -4.461       11.888        7.988        7.447      141.319       63.814       55.457        0.123        0.013       46.583        3.600        0.006      332.058        0.476      869.311
01/28/2015  06:23:00      -45.925      -10.136       -7.755        9.356        7.715        6.924       87.541       59.526       47.937        0.123        0.010       47.030        4.930        0.011      332.068        0.489      869.313
01/28/2015  06:24:00      -71.769      -21.384       -9.470       11.310       10.794        5.778      127.917      116.521       33.391        0.299        0.014       74.887        3.422        0.002      332.007        0.390      869.301
01/28/2015  06:25:00      -65.739      -15.278       -5.308       29.072       20.807       13.535      845.206      432.918      183.205        0.302        0.073       67.491       11.684        0.030      331.832        0.101      869.272
01/28/2015  06:26:00     -118.022      -11.090       -9.313       26.750       14.052       12.497      715.547      197.467      156.176        0.760        0.053      118.542       12.768        0.012      331.895        0.206      869.249
01/28/2015  06:27:00     -121.101       -3.731       -9.877       20.518       14.220       14.483      420.981      202.207      209.758        0.780        0.042      121.158       12.901        0.011      331.770        0.000      869.242
01/28/2015  06:28:00      -88.673      -15.616       -0.011       30.830       16.021       17.884      950.513      256.685      319.833        0.482        0.076       90.038       18.563        0.043      331.818        0.078      869.245
01/28/2015  06:29:00      -98.877       -9.127       -5.564       25.656       16.591       16.502      658.206      275.264      272.316        0.555        0.060       99.298       15.368        0.024      331.788        0.030      869.246
01/28/2015  06:30:00      -92.266      -18.479       -4.134       22.877       16.358       13.478      523.353      267.575      181.655        0.492        0.049       94.099       12.775        0.018      331.804        0.055      869.244
01/28/2015  06:31:00     -114.852      -15.803      -11.140       28.741       14.602       15.089      826.034      213.225      227.687        0.742        0.063      115.934       14.505        0.016      331.731       -0.064      869.237
01/28/2015  06:32:00      -97.380        2.461       -4.647       29.502       19.934       17.777      870.395      397.362      316.006        0.555        0.079       97.411       16.259        0.028      331.796        0.041      869.218
01/28/2015  06:33:00      -58.264       -6.953       -3.531       34.506       20.834       16.907     1190.642      434.055      285.846        0.268        0.096       58.678       19.014        0.105      331.813        0.070      869.213
01/28/2015  06:34:00      -61.819      -20.552        1.151       29.420       22.355       17.554      865.526      499.736      308.150        0.296        0.084       65.146       16.324        0.063      331.783        0.021      869.216
01/28/2015  06:35:00      -54.356       -8.991        0.041       29.702       18.076       16.324      882.219      326.750      266.473        0.226        0.074       55.094       14.440        0.069      331.748       -0.037      869.227
01/28/2015  06:36:00      -49.467      -10.918       -5.721       19.625       13.142       10.435      385.154      172.701      108.893        0.163        0.033       50.657       10.131        0.040      331.724       -0.077      869.247
01/28/2015  06:37:00      -84.784      -13.073      -11.548       31.225       13.269       11.733      975.025      176.065      137.675        0.439        0.064       85.786       14.922        0.030      331.747       -0.039      869.256
01/28/2015  06:38:00     -118.732      -15.321      -12.874       17.497       10.645       12.334      306.135      113.322      152.134        0.753        0.029      119.716        9.966        0.007      331.682       -0.144      869.267
01/28/2015  06:39:00     -117.884      -14.971      -11.897       20.469       10.323       14.888      418.989      106.566      221.638        0.750        0.037      118.831       12.994        0.012      331.697       -0.120      869.282
01/28/2015  06:40:00     -128.126      -30.611      -14.794       15.922       15.980       12.816      253.507      255.355      164.249        0.912        0.034      131.732        6.522        0.002      331.719       -0.084      869.315
01/28/2015  06:41:00      -94.752      -16.365       -5.488       25.067       22.993       16.624      628.348      528.667      276.345        0.535        0.072       96.155       15.241        0.025      331.633       -0.226      869.343
01/28/2015  06:42:00      -91.559      -25.874      -11.594       19.597       18.817       13.926      384.024      354.075      193.920        0.506        0.047       95.145       10.989        0.013      331.653       -0.192      869.369
01/28/2015  06:43:00     -106.105      -21.835      -11.717       18.192       16.374       13.436      330.964      268.115      180.516        0.633        0.039      108.329        7.917        0.005      331.703       -0.111      869.385
01/28/2015  06:44:00     -107.979      -11.892      -21.683       20.839       13.508        9.938      434.258      182.461       98.768        0.649        0.036      108.632        6.649        0.004      331.665       -0.173      869.392
01/28/2015  06:45:00     -111.915       -2.697      -10.567       34.459       22.901       20.415     1187.390      524.444      416.756        0.739        0.106      111.948       19.336        0.030      331.634       -0.224      869.401
01/28/2015  06:46:00      -83.256       -8.873       -1.686       54.885       26.329       21.473     3012.352      693.212      461.096        0.559        0.208       83.728       26.603        0.101      331.538       -0.383      869.401
01/28/2015  06:47:00      -99.273       -4.242       -2.612       45.309       34.727       26.872     2052.937     1205.963      722.093        0.693        0.199       99.363       26.250        0.070      331.533       -0.390      869.403
01/28/2015  06:48:00     -117.148        3.544       -2.112       56.016       36.234       26.627     3137.742     1312.870      709.018        0.945        0.258      117.201       28.969        0.061      331.533       -0.390      869.401
01/28/2015  06:49:00     -135.695       -2.620       -4.199       49.381       31.369       26.247     2438.451      984.013      688.920        1.127        0.206      135.720       27.768        0.042      331.518       -0.417      869.406
01/28/2015  06:50:00     -129.072      -19.479      -11.346       34.928       36.763       19.936     1219.975     1351.490      397.442        1.007        0.148      130.533       12.882        0.010      331.504       -0.439      869.405
01/28/2015  06:51:00      -99.768       -0.882       -6.976       42.228       30.976       21.157     1783.236      959.495      447.608        0.660        0.160       99.772       20.513        0.042      331.553       -0.359      869.411
01/28/2015  06:52:00      -93.430        7.528       -5.572       40.965       41.545       21.266     1678.128     1725.978      452.250        0.634        0.193       93.733       19.555        0.044      331.593       -0.292      869.394
01/28/2015  06:53:00     -110.972        1.344      -11.631       44.051       34.121       17.745     1940.516     1164.239      314.873        0.794        0.171      110.980       16.220        0.021      331.604       -0.273      869.393
01/28/2015  06:54:00      -74.817      -23.559       -1.683       35.880       25.608       15.876     1287.386      655.760      252.045        0.417        0.110       78.439       12.858        0.027      331.555       -0.355      869.399
01/28/2015  06:55:00      -87.558      -22.108       -8.579       38.726       28.524       16.320     1499.667      813.625      266.337        0.540        0.129       90.306       14.583        0.026      331.527       -0.401      869.406
01/28/2015  06:56:00     -125.368      -26.582      -16.658       20.605       23.353       15.724      424.587      545.348      247.250        0.896        0.061      128.155        6.813        0.003      331.559       -0.347      869.414
01/28/2015  06:57:00      -90.649      -18.968      -12.356       15.949       23.726       13.971      254.365      562.936      195.197        0.487        0.051       92.613        7.109        0.006      331.606       -0.271      869.424
01/28/2015  06:58:00      -93.449      -20.499      -15.892       16.923       13.394       13.016      286.380      179.391      169.421        0.502        0.032       95.671        8.039        0.007      331.603       -0.277      869.439
01/28/2015  06:59:00      -54.530      -13.285      -10.095       20.094       16.610       11.996      403.753      275.896      143.910        0.204        0.041       56.125        7.481        0.018      331.701       -0.113      869.451
01/28/2015  07:00:00      -85.051       -9.021      -19.219       17.914       18.345       17.121      320.901      336.524      293.142        0.432        0.048       85.528       12.744        0.022      331.774        0.006      869.451
01/28/2015  07:01:00      -90.018       -6.647      -13.829       25.733       19.718       16.199      662.169      388.803      262.402        0.483        0.066       90.263       11.293        0.016      331.745       -0.041      869.439
01/28/2015  07:02:00     -104.962       -5.443      -11.029       27.178       18.027       13.416      738.655      324.985      179.998        0.621        0.062      105.103       11.077        0.011      331.670       -0.163      869.427
01/28/2015  07:03:00     -103.195        1.205      -15.079       21.360       15.770       13.733      456.253      248.696      188.584        0.589        0.045      103.202        7.846        0.006      331.649       -0.198      869.419
01/28/2015  07:04:00      -97.403        8.705      -11.869       26.004       19.330       15.599      676.190      373.630      243.340        0.550        0.065       97.791        6.641        0.005      331.749       -0.035      869.409
01/28/2015  07:05:00      -91.268       17.464      -14.849       38.679       19.339       16.317     1496.102      373.986      266.253        0.550        0.107       92.924        7.600        0.007      331.837        0.109      869.402
01/28/2015  07:06:00      -49.291       -7.207      -11.981       14.134       14.319        9.833      199.769      205.022       96.696        0.156        0.025       49.816        9.207        0.034      331.747       -0.040      869.404
01/28/2015  07:07:00      -38.899      -31.242       -7.305       17.981       10.105       10.975      323.300      102.119      120.442        0.154        0.027       49.892        6.212        0.016      331.794        0.039      869.418
01/28/2015  07:08:00      -49.589      -24.159      -13.978       10.805       13.393        9.659      116.750      179.364       93.299        0.181        0.019       55.161        5.357        0.009      331.745       -0.042      869.440
01/28/2015  07:09:00      -45.824      -10.002      -10.680       11.443        6.941        6.356      130.952       48.177       40.403        0.127        0.011       46.902        3.214        0.005      331.891        0.197      869.452
01/28/2015  07:10:00      -68.598      -10.875      -12.626       14.832        9.791        7.942      219.977       95.856       63.070        0.268        0.019       69.455        4.262        0.004      331.853        0.137      869.442
01/28/2015  07:11:00      -86.531      -16.520      -14.071       17.965       15.549       11.148      322.732      241.762      124.271        0.432        0.034       88.094        7.501        0.007      331.758       -0.020      869.424
01/28/2015  07:12:00      -94.575        1.525      -16.146       28.860       17.394       12.830      832.917      302.552      164.617        0.525        0.065       94.587       11.444        0.015      331.717       -0.089      869.409
01/28/2015  07:13:00      -92.735       -0.677      -14.912       16.360       10.108       12.647      267.666      102.169      159.943        0.468        0.026       92.737        7.861        0.007      331.732       -0.062      869.401
01/28/2015  07:14:00      -65.352      -10.656      -12.312        9.398       13.492       10.207       88.313      182.039      104.189        0.246        0.019       66.215        4.332        0.004      331.794        0.039      869.398
01/28/2015  07:15:00      -57.236       -3.485       -7.973       14.919       12.540        7.431      222.564      157.262       55.213        0.189        0.022       57.343        3.671        0.004      331.904        0.220      869.398
01/28/2015  07:16:00      -57.792      -19.497      -11.401       10.114       13.168        7.336      102.303      173.387       53.811        0.209        0.016       60.992        3.173        0.003      331.767       -0.007      869.390
01/28/2015  07:17:00      -61.869      -23.679      -10.656        6.869        7.087        6.319       47.177       50.224       39.936        0.232        0.007       66.246        4.063        0.004      331.721       -0.082      869.382
01/28/2015  07:18:00      -47.185      -27.943      -17.412        7.173        7.811        6.629       51.451       61.019       43.948        0.173        0.008       54.838        3.653        0.004      331.831        0.100      869.376
01/28/2015  07:19:00      -51.733      -31.324      -11.710       15.846       10.699        9.591      251.107      114.462       91.987        0.213        0.023       60.477        5.820        0.009      331.802        0.052      869.380
01/28/2015  07:20:00      -48.623      -25.389       -8.746       16.212        8.301        9.849      262.830       68.906       97.012        0.176        0.021       54.852        5.526        0.010      331.779        0.013      869.390
01/28/2015  07:21:00      -53.645      -24.349       -8.143       14.203       15.040       12.018      201.738      226.189      144.424        0.205        0.029       58.912        8.150        0.019      331.821        0.083      869.416
01/28/2015  07:22:00      -72.770      -13.954      -12.704       12.212        9.856        9.168      149.127       97.146       84.047        0.299        0.017       74.096        7.878        0.011      331.771        0.000      869.435
01/28/2015  07:23:00      -47.297      -27.434       -7.048       13.328        8.926        9.759      177.627       79.679       95.232        0.170        0.018       54.677        8.045        0.022      331.884        0.185      869.456
01/28/2015  07:24:00      -57.599      -21.019      -11.638        8.430       11.046        9.563       71.068      122.022       91.450        0.209        0.014       61.314        5.026        0.007      331.871        0.165      869.468
01/28/2015  07:25:00      -71.888      -25.373      -11.904       14.876       12.423        9.528      221.304      154.327       90.786        0.321        0.023       76.234        3.636        0.002      331.892        0.201      869.477
01/28/2015  07:26:00      -77.822      -39.479       -9.761       37.672       14.914       10.792     1419.189      222.433      116.466        0.473        0.088       87.263        6.840        0.006      331.884        0.186      869.484
01/28/2015  07:27:00      -85.878      -36.718       -2.422       22.259       19.357       12.282      495.443      374.676      150.856        0.487        0.051       93.399        9.074        0.009      331.948        0.292      869.495
01/28/2015  07:28:00      -85.294      -24.237        0.218       18.221       18.415       12.132      331.998      339.108      147.196        0.434        0.041       88.671       10.116        0.013      331.975        0.336      869.507
01/28/2015  07:29:00      -60.234       -6.609       -1.541       18.658       26.211       11.631      348.117      687.025      135.280        0.242        0.059       60.595       10.331        0.029      331.995        0.371      869.525
01/28/2015  07:30:00      -68.680      -20.825        0.183       31.230       18.542       13.108      975.293      343.799      171.828        0.332        0.075       71.768       14.284        0.040      332.001        0.379      869.546
01/28/2015  07:31:00      -87.952      -39.806       -0.564       30.609       18.174       13.453      936.888      330.295      180.973        0.538        0.072       96.541       14.414        0.022      331.954        0.303      869.564
01/28/2015  07:32:00      -99.663      -39.416       -6.083       23.945       19.286       10.988      573.366      371.939      120.732        0.629        0.053      107.174        9.254        0.007      331.936        0.272      869.580
01/28/2015  07:33:00      -75.483      -17.692        1.594       21.214       18.876       13.416      450.052      356.296      180.002        0.350        0.049       77.528       12.165        0.025      331.899        0.210      869.595
01/28/2015  07:34:00      -81.734      -26.775       -0.031       31.829       15.664       16.058     1013.088      245.355      257.859        0.446        0.076       86.008       15.634        0.033      331.945        0.287      869.604
01/28/2015  07:35:00      -91.906      -33.315        2.046       23.124       23.429       14.270      534.740      548.904      203.630        0.542        0.064       97.758       12.446        0.016      331.922        0.250      869.617
01/28/2015  07:36:00     -120.441      -43.142        0.608       31.945       30.475       16.083     1020.456      928.708      258.651        0.929        0.110      127.934       14.326        0.013      331.965        0.320      869.630
01/28/2015  07:37:00     -101.487      -35.342       -2.915       33.917       41.421       20.303     1150.356     1715.726      412.224        0.742        0.164      107.465       18.651        0.030      331.989        0.360      869.625
01/28/2015  07:38:00     -117.682      -42.803        1.633       46.073       28.555       21.822     2122.744      815.412      476.221        0.955        0.171      125.225       19.705        0.025      332.007        0.391      869.631
01/28/2015  07:39:00     -132.056      -36.049       -0.301       39.981       28.187       19.116     1598.462      794.481      365.431        1.075        0.138      136.888       16.884        0.015      332.027        0.423      869.640
01/28/2015  07:40:00     -119.305      -32.869        0.959       30.936       28.544       16.669      957.042      814.769      277.865        0.868        0.102      123.750       15.319        0.015      332.066        0.488      869.639
01/28/2015  07:41:00     -129.900      -46.539        1.333       37.358       24.058       20.580     1395.650      578.788      423.534        1.072        0.120      137.986       18.911        0.019      332.058        0.473      869.653
01/28/2015  07:42:00     -110.052      -46.480       -0.382       42.132       42.058       22.634     1775.123     1768.876      512.279        0.916        0.203      119.464       14.589        0.015      332.070        0.494      869.653
01/28/2015  07:43:00     -140.568      -58.129       -0.056       42.643       36.775       20.487     1818.433     1352.397      419.723        1.336        0.180      152.113       19.345        0.016      332.083        0.515      869.657
01/28/2015  07:44:00     -147.316      -63.933       -5.198       39.898       31.725       24.706     1591.851     1006.506      610.384        1.451        0.160      160.591       18.007        0.013      332.053        0.464      869.667
01/28/2015  07:45:00     -110.312      -53.157       -8.720       39.820       38.277       21.165     1585.619     1465.119      447.942        0.928        0.175      122.452        6.661        0.003      332.073        0.498      869.682
01/28/2015  07:46:00     -119.502      -41.602       -6.480       31.722       29.717       18.182     1006.317      883.103      330.595        0.914        0.111      126.536       16.765        0.018      332.091        0.528      869.691
01/28/2015  07:47:00      -94.129      -41.182       -4.584       30.720       34.319       18.447      943.747     1177.771      340.299        0.652        0.123      102.743       19.549        0.036      332.096        0.536      869.711
01/28/2015  07:48:00     -118.290        2.780      -13.549       23.769       21.213       13.433      564.967      449.989      180.448        0.769        0.060      118.323        8.883        0.006      332.116        0.570      869.719
01/28/2015  07:49:00     -114.458       -6.238       -8.883       32.508       19.327       20.458     1056.744      373.551      418.538        0.753        0.092      114.628       21.344        0.035      332.090        0.527      869.733
01/28/2015  07:50:00     -120.462        0.983      -14.479       28.539       16.032       16.010      814.475      257.026      256.313        0.802        0.066      120.466       13.768        0.013      332.066        0.488      869.735
01/28/2015  07:51:00     -113.465       -0.942      -12.311       25.711       19.410       18.405      661.081      376.745      338.735        0.720        0.069      113.469       15.344        0.018      332.124        0.582      869.743
01/28/2015  07:52:00      -89.647       -8.235        1.381       39.215       34.888       23.543     1537.787     1217.152      554.284        0.571        0.165       90.025       24.116        0.072      332.145        0.618      869.754
01/28/2015  07:53:00      -91.955      -15.646       -7.274       34.221       23.588       17.308     1171.048      556.396      299.575        0.539        0.101       93.276       14.734        0.025      332.166        0.650      869.751
01/28/2015  07:54:00      -83.894      -10.912       -5.327       18.184       31.876       13.289      330.640     1016.083      176.607        0.435        0.076       84.601       10.815        0.016      332.213        0.731      869.755
01/28/2015  07:55:00      -64.683       12.111      -10.543       30.389       25.110       15.241      923.516      630.494      232.300        0.311        0.089       65.807        1.955        0.001      332.273        0.829      869.761
01/28/2015  07:56:00      -33.199       13.424       -9.959       15.547       18.001        8.609      241.724      324.054       74.112        0.101        0.032       35.811        4.566        0.016      332.350        0.954      869.766
01/28/2015  07:57:00      -50.896        7.520       -9.869       10.854       13.193       10.037      117.819      174.055      100.748        0.157        0.020       51.448        6.089        0.014      332.376        0.997      869.774
01/28/2015  07:58:00      -30.902        4.786      -11.204       15.830       11.722       11.104      250.601      137.399      123.301        0.081        0.026       31.270        6.669        0.045      332.492        1.189      869.790
01/28/2015  07:59:00      -42.790       -2.621       -5.883        9.880        8.011       10.184       97.621       64.181      103.706        0.107        0.013       42.870        5.849        0.019      332.423        1.076      869.803
01/28/2015  08:00:00      -52.702       -7.293      -12.503        8.461        8.948       10.325       71.584       80.073      106.614        0.162        0.013       53.204        4.521        0.007      332.465        1.145      869.796
01/28/2015  08:01:00      -42.394      -20.344      -10.175       12.491       10.870       10.486      156.026      118.147      109.948        0.135        0.019       47.023        3.386        0.005      332.547        1.280      869.799
01/28/2015  08:02:00      -45.935      -17.020       -7.870       11.737       10.962        8.062      137.757      120.156       64.997        0.139        0.016       48.987        4.757        0.009      332.536        1.262      869.788
01/28/2015  08:03:00      -23.147       20.989       -3.442       19.415       24.632        9.328      376.938      606.722       87.016        0.103        0.054       31.246        7.576        0.059      332.711        1.552      869.776
01/28/2015  08:04:00      -10.776       49.887       -0.082       13.047       22.596       13.796      170.229      510.565      190.330        0.174        0.044       51.037       13.449        0.069      332.868        1.811      869.760
01/28/2015  08:05:00       -5.959       36.723        5.869       11.473       22.397       12.974      131.637      501.613      168.327        0.111        0.040       37.203       14.522        0.152      332.970        1.981      869.751
01/28/2015  08:06:00       -8.078       61.192        2.147       13.595       18.870       10.857      184.837      356.063      117.881        0.224        0.033       61.723        5.803        0.009      333.024        2.068      869.741
01/28/2015  08:07:00        6.404       54.603        4.020       14.514       19.543       13.628      210.669      381.948      185.721        0.191        0.039       54.977       12.322        0.050      333.149        2.274      869.726
01/28/2015  08:08:00       23.892       62.280       -1.393       18.208       23.909       20.424      331.523      571.650      417.159        0.289        0.066       66.706       18.363        0.076      333.085        2.169      869.720
01/28/2015  08:09:00       25.072       48.422       -1.402       25.781       27.684       14.817      664.670      766.403      219.546        0.231        0.083       54.528       13.058        0.057      333.194        2.351      869.732
01/28/2015  08:10:00       54.202       25.853        3.588       17.558       15.617       16.335      308.284      243.875      266.817        0.222        0.041       60.052        9.000        0.022      333.147        2.272      869.740
01/28/2015  08:11:00       64.100       25.843       15.190       35.560       17.487       16.695     1264.506      305.797      278.738        0.343        0.092       69.114       11.599        0.028      333.185        2.333      869.741
01/28/2015  08:12:00       96.402       46.339        8.008       28.956       24.797       23.549      838.456      614.902      554.537        0.676        0.100      106.961       13.258        0.015      333.087        2.173      869.747
01/28/2015  08:13:00      106.941       49.040       10.022       30.866       24.605       28.710      952.711      605.383      824.252        0.816        0.119      117.649       17.788        0.023      333.007        2.040      869.751
01/28/2015  08:14:00      104.665       50.613        2.600       26.982       26.288       24.780      728.027      691.046      614.041        0.778        0.102      116.260       18.433        0.025      333.061        2.130      869.756
01/28/2015  08:15:00       90.707       65.065        7.076       24.468       19.959       25.228      598.696      398.344      636.459        0.707        0.082      111.630        8.114        0.005      333.146        2.270      869.757
01/28/2015  08:16:00       96.414       73.766       22.531       20.913       22.373       27.678      437.362      500.532      766.098        0.847        0.085      121.396       13.565        0.012      333.131        2.244      869.763
01/28/2015  08:17:00       86.699       63.872        1.338       21.879       15.842       24.140      478.671      250.963      582.733        0.645        0.066      107.686        7.005        0.004      333.093        2.183      869.765
01/28/2015  08:18:00       71.779       53.034       10.245       21.334       25.379       22.541      455.138      644.076      508.119        0.484        0.080       89.246        6.856        0.006      333.334        2.581      869.764
01/28/2015  08:19:00       37.063       31.204       12.669       23.780       21.920       20.390      565.490      480.493      415.748        0.198        0.073       48.450       11.582        0.057      333.355        2.616      869.765
01/28/2015  08:20:00       14.102       49.341       38.952       29.940       26.825       34.623      896.401      719.554     1198.780        0.348        0.141       51.317       26.916        0.275      333.591        3.005      869.761
01/28/2015  08:21:00        5.319       45.359       57.055       22.907       29.975       14.187      524.734      898.489      201.275        0.348        0.081       45.670        8.716        0.036      333.555        2.946      869.760
01/28/2015  08:22:00       -0.074       65.173       77.409       19.666       32.603       20.983      386.741     1062.973      440.293        0.606        0.095       65.173       17.502        0.072      333.525        2.896      869.768
01/28/2015  08:23:00       -2.939       58.713       70.807       25.194       40.967       22.321      634.757     1678.333      498.245        0.564        0.141       58.787       17.836        0.092      333.581        2.989      869.780
01/28/2015  08:24:00       38.222       71.801       78.574       41.174       31.961       18.725     1695.284     1021.530      350.608        0.793        0.153       81.341       19.694        0.059      333.412        2.710      869.798
01/28/2015  08:25:00       63.013      117.129       93.355       28.029       28.567       20.839      785.615      816.086      434.273        1.422        0.102      133.003       14.450        0.012      333.232        2.413      869.810
01/28/2015  08:26:00       99.389       58.291       37.047       32.723       30.396       25.229     1070.777      923.901      636.492        0.864        0.132      115.222       16.448        0.020      333.098        2.191      869.813
01/28/2015  08:27:00       91.524       83.055       64.996       32.427       33.758       33.963     1051.502     1139.591     1153.506        1.142        0.167      123.591       19.683        0.025      333.205        2.366      869.817
01/28/2015  08:28:00       86.131       79.975       52.662       37.704       31.675       36.142     1421.587     1003.326     1306.236        1.016        0.187      117.535       23.500        0.040      333.160        2.293      869.819
01/28/2015  08:29:00       52.465       64.266       34.720       46.025       29.926       29.730     2118.335      895.585      883.844        0.599        0.195       82.962       20.393        0.060      333.149        2.274      869.825
01/28/2015  08:30:00       15.875      -26.205       29.156       37.286       54.839       31.755     1390.257     3007.277     1008.368        0.360        0.270       30.639       24.304        0.629      333.588        3.000      869.832
01/28/2015  08:31:00        8.043       28.521       66.990       20.053       47.241       26.687      402.110     2231.665      712.191        0.436        0.167       29.634       26.906        0.824      333.682        3.158      869.833
01/28/2015  08:32:00       10.927       38.992       66.767       29.402       45.842       24.462      864.489     2101.526      598.373        0.483        0.178       40.494       25.000        0.381      333.569        2.969      869.839
01/28/2015  08:33:00       33.856       62.462       71.195       40.097       36.299       19.223     1607.775     1317.651      369.525        0.671        0.165       71.047       16.051        0.051      333.519        2.886      869.838
01/28/2015  08:34:00        6.201       45.248       74.122       30.852       57.772       34.738      951.815     3337.642     1206.745        0.654        0.275       45.671       38.318        0.704      333.533        2.909      869.826
01/28/2015  08:35:00       37.965      -55.662       22.701       26.855       42.734       28.616      721.189     1826.180      818.889        0.421        0.168       67.377       26.970        0.160      333.575        2.979      869.812
01/28/2015  08:36:00       21.762       43.099       55.887       33.926       28.557       29.291     1150.940      815.517      857.983        0.414        0.141       48.282       24.688        0.261      333.705        3.195      869.794
01/28/2015  08:37:00        3.918       47.642       64.562       24.674       29.504       20.988      608.830      870.490      440.490        0.419        0.096       47.803       19.549        0.167      333.709        3.200      869.771
01/28/2015  08:38:00       52.687       54.516       34.669       31.520       20.096       29.218      993.528      403.858      853.670        0.460        0.113       75.815       22.015        0.084      333.449        2.770      869.761
01/28/2015  08:39:00       89.324       64.694       47.575       37.876       22.737       27.878     1434.574      516.974      777.182        0.858        0.136      110.291       24.462        0.049      333.492        2.842      869.760
01/28/2015  08:40:00       57.755       57.014       38.499       34.201       27.375       31.770     1169.732      749.414     1009.304        0.550        0.146       81.156        5.587        0.005      333.544        2.928      869.772
01/28/2015  08:41:00       57.214       73.567       55.262       37.829       32.366       27.737     1431.020     1047.554      769.367        0.749        0.162       93.196       23.162        0.062      333.652        3.108      869.786
01/28/2015  08:42:00       66.644       79.026       64.188       53.235       27.587       24.939     2833.953      761.040      621.971        0.951        0.211      103.376       14.788        0.020      333.603        3.026      869.802
01/28/2015  08:43:00       55.321       41.065       51.385       40.223       35.866       23.829     1617.892     1286.358      567.810        0.543        0.174       68.896       15.075        0.048      333.679        3.151      869.808
01/28/2015  08:44:00       55.260       53.810       49.509       50.905       37.891       31.592     2591.272     1435.755      998.064        0.671        0.251       77.131       26.548        0.118      333.759        3.284      869.810
01/28/2015  08:45:00       12.653       29.206       35.079       25.118       27.917       23.407      630.931      779.334      547.897        0.210        0.098       31.829       13.779        0.187      333.930        3.570      869.800
01/28/2015  08:46:00       31.158       41.702       63.112       40.800       66.664       37.151     1664.604     4444.137     1380.206        0.709        0.374       52.057       36.381        0.488      334.015        3.709      869.796
01/28/2015  08:47:00       28.059       26.504       57.583       32.899       48.259       35.914     1082.358     2328.904     1289.841        0.475        0.235       38.597       29.062        0.567      333.884        3.493      869.791
01/28/2015  08:48:00       24.295       26.362       21.971       25.018       46.959       25.794      625.925     2205.117      665.344        0.263        0.175       35.850       19.482        0.295      334.019        3.717      869.775
01/28/2015  08:49:00       20.955       52.299       51.482       35.690       36.818       38.066     1273.746     1355.531     1449.049        0.495        0.204       56.341       28.837        0.262      334.069        3.799      869.758
01/28/2015  08:50:00       61.648       19.639       47.145       36.482       48.065       35.424     1330.924     2310.212     1254.857        0.565        0.245       64.701       32.921        0.259      333.884        3.492      869.747
01/28/2015  08:51:00       49.355       14.062       34.183       47.030       29.454       29.874     2211.824      867.532      892.481        0.389        0.199       51.320       28.406        0.306      333.938        3.582      869.744
01/28/2015  08:52:00       51.492       36.760       37.464       36.739       36.557       32.117     1349.725     1336.401     1031.534        0.456        0.186       63.267       25.639        0.164      334.006        3.694      869.739
01/28/2015  08:53:00       70.525       70.299       37.721       45.665       31.799       35.450     2085.295     1011.200     1256.669        0.785        0.218       99.577       25.568        0.066      333.712        3.205      869.734
01/28/2015  08:54:00        4.991       47.963       62.469       27.083       37.332       26.263      733.488     1393.667      689.725        0.452        0.141       48.222       21.298        0.195      334.142        3.920      869.727
01/28/2015  08:55:00       65.072       61.780       50.409       36.685       39.127       40.628     1345.778     1530.957     1650.595        0.756        0.226       89.728       23.897        0.071      333.924        3.559      869.725
01/28/2015  08:56:00      113.947       82.717        7.898       19.409       22.429       24.004      376.725      503.068      576.195        1.067        0.073      140.805       10.580        0.006      333.590        3.004      869.728
01/28/2015  08:57:00       80.631       68.839       21.641       34.010       34.205       32.571     1156.677     1170.010     1060.878        0.755        0.169      106.020        7.703        0.005      333.854        3.443      869.724
01/28/2015  08:58:00       66.768       45.499       16.409       55.171       53.815       29.513     3043.849     2896.075      871.026        0.680        0.341       80.797       27.683        0.117      333.983        3.656      869.723
01/28/2015  08:59:00       47.999       75.645       68.951       35.579       37.569       24.881     1265.831     1411.455      619.063        0.804        0.165       89.588       16.018        0.032      333.922        3.554      869.733
01/28/2015  09:00:00       41.655       80.947       68.467       51.968       36.406       32.200     2700.662     1325.374     1036.868        0.902        0.253       91.036       30.673        0.114      333.886        3.495      869.734
01/28/2015  09:01:00       62.357       45.133       25.818       48.621       42.764       26.885     2363.989     1828.772      722.784        0.575        0.246       76.976       18.257        0.056      333.895        3.510      869.757
01/28/2015  09:02:00       85.904       44.122        7.515       41.610       40.820       32.789     1731.363     1666.272     1075.093        0.693        0.224       96.573       18.315        0.036      333.785        3.326      869.771
01/28/2015  09:03:00       53.417       16.866       34.761       41.988       43.351       28.733     1762.952     1879.321      825.557        0.441        0.223       56.016       17.038        0.093      334.109        3.866      869.793
01/28/2015  09:04:00       77.151       51.688        3.860       26.915       26.555       21.674      724.435      705.176      469.743        0.527        0.095       92.865       20.276        0.048      334.022        3.721      869.801
01/28/2015  09:05:00      118.589       92.339       11.803       31.879       25.374       33.460     1016.270      643.825     1119.573        1.275        0.139      150.299       17.768        0.014      333.830        3.403      869.797
01/28/2015  09:06:00       93.137       65.552        5.112       33.560       34.011       25.062     1126.285     1156.743      628.110        0.795        0.146      113.893       13.339        0.014      333.827        3.398      869.790
01/28/2015  09:07:00       95.781       72.310       -2.986       30.640       29.453       25.301      938.805      867.488      640.124        0.843        0.122      120.012       16.019        0.018      333.958        3.615      869.786
01/28/2015  09:08:00      115.736       64.924       10.027       42.159       41.494       30.034     1777.376     1721.732      902.024        1.106        0.220      132.703       17.290        0.017      333.884        3.491      869.783
01/28/2015  09:09:00      101.244       59.549       20.389       39.412       31.074       35.740     1553.267      965.621     1277.347        0.900        0.190      117.458       18.620        0.025      333.918        3.548      869.783
01/28/2015  09:10:00        7.127       44.013       51.323       31.344       28.087       28.604      982.475      788.890      818.194        0.361        0.129       44.586       23.041        0.267      334.345        4.257      869.786
01/28/2015  09:11:00       -3.808       45.945       69.585       27.641       51.023       39.044      764.046     2603.337     1524.444        0.593        0.245       46.103       38.194        0.686      334.456        4.440      869.789
01/28/2015  09:12:00       35.129       81.829       82.454       53.321       47.154       40.284     2843.102     2223.508     1622.779        1.071        0.334       89.051       40.707        0.209      334.210        4.033      869.794
01/28/2015  09:13:00       61.861       63.960       37.850       35.288       28.213       34.659     1245.256      795.972     1201.259        0.630        0.162       88.981       28.189        0.100      333.963        3.624      869.803
01/28/2015  09:14:00      137.378       89.893       13.967       23.614       18.452       32.316      557.619      340.490     1044.355        1.455        0.097      164.175       21.048        0.016      333.792        3.339      869.802
01/28/2015  09:15:00       86.542       61.625        3.912       33.993       25.842       30.017     1155.536      667.826      900.995        0.701        0.136      106.241       14.879        0.020      334.067        3.796      869.813
01/28/2015  09:16:00       86.742       44.535       25.371       56.972       49.570       34.931     3245.847     2457.227     1220.151        0.854        0.346       97.507       24.111        0.061      334.115        3.875      869.814
01/28/2015  09:17:00      102.100       77.703       21.376       34.352       27.902       26.024     1180.033      778.511      677.250        0.978        0.132      128.305       10.158        0.006      333.916        3.544      869.807
01/28/2015  09:18:00       26.438       45.274       36.525       27.231       29.653       24.464      741.517      879.291      598.510        0.315        0.111       52.428       17.988        0.118      334.373        4.302      869.801
01/28/2015  09:19:00       49.635      100.124       85.694       54.063       27.960       23.336     2922.837      781.741      544.582        1.204        0.212      111.752       27.219        0.059      334.245        4.091      869.790
01/28/2015  09:20:00       79.137       91.193       69.900       32.454       23.133       27.351     1053.236      535.141      748.066        1.090        0.117      120.743       21.520        0.032      334.030        3.733      869.779
01/28/2015  09:21:00       63.175       62.091       36.966       31.524       24.421       30.868      993.741      596.369      952.820        0.588        0.127       88.580        9.087        0.011      334.257        4.111      869.791
01/28/2015  09:22:00       21.738       44.315       64.433       40.409       46.833       32.574     1632.917     2193.293     1061.058        0.574        0.244       49.360       29.321        0.353      334.604        4.686      869.804
01/28/2015  09:23:00       19.155       20.768       39.656       37.820       37.285       30.603     1430.328     1390.175      936.518        0.306        0.188       28.253       25.824        0.835      334.534        4.569      869.819
01/28/2015  09:24:00       38.910       66.905       67.208       45.116       36.258       24.397     2035.488     1314.636      595.200        0.723        0.197       77.397       21.336        0.076      334.429        4.396      869.827
01/28/2015  09:25:00       37.476        6.495       -1.988       32.992       27.940       30.254     1088.480      780.661      915.294        0.212        0.139       38.035       23.608        0.385      334.255        4.107      869.833
01/28/2015  09:26:00        4.601       47.492       49.593       30.964       32.532       30.230      958.763     1058.314      913.829        0.383        0.147       47.714       20.651        0.187      334.878        5.141      869.825
01/28/2015  09:27:00       76.222       81.157       58.051       41.883       33.168       32.978     1754.148     1100.127     1087.560        0.985        0.197      111.338       18.843        0.029      334.269        4.132      869.815
01/28/2015  09:28:00       50.942       70.648       11.300       21.021       33.467       23.824      441.868     1120.067      567.597        0.492        0.106       87.099       10.741        0.015      334.327        4.227      869.814
01/28/2015  09:29:00        7.822       33.786       46.460       33.896       34.077       24.776     1148.953     1161.270      613.861        0.314        0.146       34.680       15.425        0.198      334.968        5.291      869.807
01/28/2015  09:30:00        4.966       75.002       97.243       30.175       36.658       27.413      910.510     1343.845      751.469        0.906        0.150       75.167       25.951        0.119      334.528        4.560      869.792
01/28/2015  09:31:00       38.426       12.700       41.685       45.744       37.549       27.879     2092.543     1409.921      777.264        0.383        0.214       40.470       17.713        0.192      334.858        5.108      869.780
01/28/2015  09:32:00       35.817       41.121        6.727       33.214       39.302       32.022     1103.142     1544.660     1025.412        0.335        0.184       54.533       26.196        0.231      334.640        4.746      869.781
01/28/2015  09:33:00        5.386       21.092       37.034       28.088       34.676       32.702      788.934     1202.423     1069.429        0.245        0.153       21.769       18.774        0.744      335.074        5.467      869.776
01/28/2015  09:34:00       10.457       33.478       64.603       32.569       53.669       35.601     1060.749     2880.400     1267.406        0.531        0.260       35.073       38.648        1.214      334.828        5.058      869.776
01/28/2015  09:35:00       87.236       50.446       34.022       40.328       38.839       38.982     1626.356     1508.479     1519.594        0.798        0.233      100.772       31.880        0.100      334.516        4.540      869.776
01/28/2015  09:36:00       64.582       42.019       -3.740       26.002       18.667       18.435      676.092      348.449      339.854        0.366        0.068       77.049       10.550        0.019      334.249        4.096      869.784
01/28/2015  09:37:00       32.371       15.277       -1.480       12.146        8.664       13.397      147.517       75.068      179.481        0.084        0.020       35.795        6.637        0.034      334.313        4.203      869.779
01/28/2015  09:38:00       39.506        0.730      -11.113       15.822       15.585       11.692      250.344      242.904      136.695        0.116        0.031       39.513        9.682        0.060      334.335        4.241      869.768
01/28/2015  09:39:00       49.454       33.569        4.172       21.807       21.502       27.076      475.538      462.345      733.089        0.263        0.084       59.771       20.334        0.116      334.487        4.492      869.770
01/28/2015  09:40:00       43.883       -2.971       29.317       31.086       38.277       22.175      966.324     1465.120      491.723        0.286        0.146       43.984       15.390        0.122      334.807        5.023      869.767
01/28/2015  09:41:00       91.370       55.888       16.121       31.796       24.899       29.361     1010.980      619.983      862.054        0.711        0.125      107.107       18.782        0.031      334.765        4.953      869.757
01/28/2015  09:42:00       88.637       68.033       -0.267       34.498       24.853       28.132     1190.100      617.672      791.437        0.754        0.130      111.737       16.436        0.022      334.718        4.876      869.770
01/28/2015  09:43:00      103.930       73.010       16.845       19.834       28.618       19.350      393.377      819.016      374.425        0.900        0.079      127.012       10.190        0.006      334.490        4.497      869.789
01/28/2015  09:44:00       77.650       51.908       23.770       36.203       26.187       29.988     1310.639      685.779      899.271        0.609        0.145       93.403       16.533        0.031      334.913        5.199      869.807
01/28/2015  09:45:00       53.833       61.180        8.956       27.421       20.390       26.809      751.895      415.759      718.739        0.430        0.094       81.492       14.314        0.031      334.750        4.928      869.809
01/28/2015  09:46:00       39.673       53.761        7.584       29.022       19.758       21.580      842.254      390.375      465.692        0.311        0.085       66.815       14.402        0.046      334.763        4.949      869.807
01/28/2015  09:47:00       58.771       34.584       15.023       31.602       28.929       26.178      998.691      836.908      685.276        0.370        0.126       68.191       11.986        0.031      334.808        5.025      869.803
01/28/2015  09:48:00       33.575       43.526       12.706       38.813       27.876       23.614     1506.438      777.075      557.608        0.301        0.142       54.971       19.208        0.122      334.909        5.194      869.806
01/28/2015  09:49:00       65.840       47.283       10.152       34.665       28.635       27.113     1201.664      819.957      735.128        0.471        0.138       81.059       22.431        0.077      335.001        5.345      869.797
01/28/2015  09:50:00       22.760       30.356       15.965       28.765       27.359       23.792      827.453      748.496      566.043        0.192        0.107       37.941       15.965        0.177      335.269        5.792      869.806
01/28/2015  09:51:00       40.988       63.736       22.578       37.150       38.659       34.228     1380.122     1494.524     1171.523        0.515        0.202       75.778       24.551        0.105      335.320        5.875      869.812
01/28/2015  09:52:00       16.531       60.335       71.583       26.011       32.935       15.362      676.578     1084.708      235.986        0.552        0.100       62.559       13.884        0.049      335.144        5.582      869.825
01/28/2015  09:53:00       85.819       45.651       -1.473       24.660       45.155       28.384      608.130     2039.011      805.669        0.645        0.173       97.205        8.602        0.008      334.899        5.178      869.821
01/28/2015  09:54:00       82.830       58.703        8.659       30.546       26.374       27.122      933.078      695.585      735.624        0.637        0.118      101.523       15.114        0.022      334.896        5.170      869.818
01/28/2015  09:55:00       16.712        2.669        1.456       31.900       31.717       24.116     1017.627     1005.956      581.578        0.145        0.130       16.924       16.377        0.936      335.085        5.485      869.813
01/28/2015  09:56:00       68.357       71.584       21.096       57.883       41.216       33.935     3350.394     1698.768     1151.612        0.822        0.310       98.979       27.496        0.077      335.060        5.444      869.798
01/28/2015  09:57:00       42.640       23.212        0.204       26.461       54.539       37.536      700.166     2974.501     1408.924        0.372        0.254       48.549       34.253        0.498      335.065        5.453      869.795
01/28/2015  09:58:00       47.655       23.985       41.656       38.241       34.342       40.177     1462.344     1179.359     1614.189        0.442        0.213       53.350       35.768        0.449      335.035        5.403      869.797
01/28/2015  09:59:00       22.296      -20.846        6.768       38.216       46.822       23.531     1460.476     2192.271      553.703        0.259        0.210       30.523       25.581        0.702      335.071        5.462      869.802
01/28/2015  10:00:00       12.141       10.781        8.824       32.681       22.542       21.247     1068.055      508.126      451.414        0.118        0.101       16.237       18.194        1.256      335.362        5.946      869.799
01/28/2015  10:01:00        7.584       68.817       -3.365       29.142       36.770       29.625      849.248     1352.036      877.665        0.394        0.154       69.233       18.695        0.073      335.276        5.804      869.803
01/28/2015  10:02:00       61.708       40.501        7.600       44.120       27.671       28.801     1946.583      765.667      829.516        0.452        0.177       73.811       12.696        0.030      335.230        5.725      869.797
01/28/2015  10:03:00       35.684       63.254       50.318       47.495       36.629       67.541     2255.790     1341.651     4561.767        0.798        0.408       72.625       53.175        0.536      335.308        5.855      869.786
01/28/2015  10:04:00       40.536      106.219      104.870       51.692       38.855       36.988     2672.098     1509.733     1368.093        1.474        0.277      113.691       33.726        0.088      335.254        5.765      869.773
01/28/2015  10:05:00       91.695       78.944       25.831       23.881       19.933       31.323      570.321      397.322      981.102        0.863        0.097      120.996        7.427        0.004      335.026        5.388      869.770
01/28/2015  10:06:00       62.169       57.829       30.727       30.016       21.782       22.570      900.980      474.455      509.393        0.502        0.094       84.907       10.001        0.014      335.007        5.355      869.754
01/28/2015  10:07:00       13.906       28.498       37.571       21.496       17.949       27.926      462.060      322.180      779.888        0.199        0.078       31.710       15.773        0.247      335.419        6.041      869.755
01/28/2015  10:08:00       86.501       38.165        9.984       33.465       19.741       42.843     1119.924      389.708     1835.513        0.619        0.167       94.546       21.619        0.052      335.270        5.793      869.751
01/28/2015  10:09:00       38.719       47.025       -4.911       16.161       26.358       30.017      261.175      694.730      901.008        0.280        0.093       60.914       10.893        0.032      335.321        5.877      869.757
01/28/2015  10:10:00       19.726       90.874       -2.480       28.420       37.920       26.197      807.672     1437.950      686.293        0.579        0.147       92.991       19.393        0.043      335.596        6.336      869.747
01/28/2015  10:11:00       12.523      -24.261       46.005       29.760       60.658       24.161      885.681     3679.349      583.747        0.400        0.257       27.303       30.583        1.255      335.828        6.722      869.758
01/28/2015  10:12:00       25.007       13.805       45.616       31.560       45.151       28.361      996.010     2038.632      804.341        0.337        0.192       28.564       29.320        1.054      335.712        6.529      869.749
01/28/2015  10:13:00        9.352        3.316        2.208       24.444       49.101       16.022      597.492     2410.881      256.693        0.168        0.163        9.922       17.644        3.162      335.407        6.020      869.739
01/28/2015  10:14:00       42.159       37.778        6.710       25.078       30.361       22.265      628.912      921.819      495.736        0.265        0.102       56.609       18.194        0.103      335.725        6.550      869.731
01/28/2015  10:15:00       23.008       49.225       -5.074       20.660       18.711       27.335      426.816      350.099      747.175        0.225        0.076       54.337       14.637        0.073      335.575        6.298      869.725
01/28/2015  10:16:00       52.588       43.098       14.744       39.866       20.432       27.822     1589.265      417.461      774.063        0.381        0.139       67.992       20.659        0.092      335.589        6.324      869.723
01/28/2015  10:17:00       93.306       72.490       54.391       56.142       34.794       48.871     3151.895     1210.637     2388.374        1.183        0.338      118.156       42.314        0.128      335.664        6.448      869.710
01/28/2015  10:18:00       24.148       51.394       74.290       48.666       39.123       30.185     2368.338     1530.602      911.161        0.678        0.241       56.784       20.698        0.133      336.032        7.063      869.705
01/28/2015  10:19:00        0.018       58.146       81.772       24.142       41.500       23.142      582.832     1722.211      535.569        0.645        0.142       58.146       22.243        0.146      336.235        7.400      869.705
01/28/2015  10:20:00       24.531       56.372       67.995       38.483       46.213       30.972     1480.924     2135.633      959.268        0.649        0.229       61.479       24.256        0.156      336.147        7.254      869.701
01/28/2015  10:21:00       24.181       45.489       13.442       22.696       14.995       22.590      515.115      224.840      510.303        0.204        0.063       51.517       11.068        0.046      335.618        6.372      869.698
01/28/2015  10:22:00       18.841       44.559       35.336       29.117       29.264       18.349      847.773      856.355      336.688        0.281        0.102       48.378        7.318        0.023      336.147        7.253      869.690
01/28/2015  10:23:00       52.000       30.876       31.258       47.801       40.033       27.134     2284.910     1602.650      736.270        0.463        0.231       60.476       22.961        0.144      336.176        7.303      869.695
01/28/2015  10:24:00       68.429       86.337      -20.871       48.205       50.475       27.659     2323.734     2547.739      765.019        0.910        0.282      110.166       14.439        0.017      335.961        6.943      869.691
01/28/2015  10:25:00      125.344       90.553       -1.945       58.004       42.772       44.382     3364.437     1829.470     1969.746        1.554        0.358      154.632       12.727        0.007      335.798        6.671      869.699
01/28/2015  10:26:00       53.391       69.200       29.264       51.674       43.913       43.983     2670.235     1928.344     1934.473        0.751        0.327       87.403       31.290        0.128      335.973        6.964      869.703
01/28/2015  10:27:00       48.845       53.412       82.907       58.444       43.409       36.997     3415.739     1884.315     1368.760        0.939        0.333       72.378       29.899        0.171      336.235        7.401      869.713
01/28/2015  10:28:00       57.597       51.168       50.670       50.717       60.820       45.076     2572.183     3699.089     2031.815        0.840        0.415       77.042       31.849        0.171      335.992        6.994      869.727
01/28/2015  10:29:00       79.758       69.143       35.398       54.705       32.393       36.178     2992.652     1049.314     1308.858        0.887        0.268      105.555       32.510        0.095      336.163        7.281      869.725
01/28/2015  10:30:00      100.272       93.684        9.799       43.020       31.806       31.207     1850.724     1011.607      973.886        1.138        0.192      137.227       23.373        0.029      335.770        6.624      869.727
01/28/2015  10:31:00       39.296      104.661        3.148       43.966       47.878       42.024     1933.016     2292.280     1766.038        0.925        0.300      111.795       22.710        0.041      335.918        6.872      869.727
01/28/2015  10:32:00       13.296       44.459       25.910       24.979       38.593       30.811      623.939     1489.427      949.304        0.294        0.153       46.404       23.113        0.248      336.294        7.499      869.725
01/28/2015  10:33:00       38.031       54.259        6.417       28.786       42.465       29.965      828.660     1803.264      897.931        0.398        0.176       66.260       28.935        0.191      336.259        7.440      869.722
01/28/2015  10:34:00       44.126       63.000       45.163       45.036       40.568       37.002     2028.267     1645.784     1369.168        0.650        0.252       76.916       22.327        0.084      336.370        7.626      869.707
01/28/2015  10:35:00       -4.887      -23.891       21.977       47.778       55.133       40.849     2282.712     3039.660     1668.646        0.403        0.350       24.386       33.814        1.923      336.423        7.715      869.699
01/28/2015  10:36:00       24.956      -19.808       33.997       36.254       50.731       38.464     1314.387     2573.674     1479.497        0.377        0.268       31.861       35.543        1.244      336.431        7.728      869.683
01/28/2015  10:37:00       61.216       50.636       47.510       32.094       25.872       34.125     1030.026      669.367     1164.498        0.572        0.143       79.444       24.271        0.093      336.067        7.120      869.674
01/28/2015  10:38:00        1.448        5.563       28.618       33.197       18.452       18.519     1102.064      340.459      342.944        0.132        0.089        5.749       13.020        5.129      336.560        7.945      869.659
01/28/2015  10:39:00      -37.466      -42.394       -1.513       17.947       23.166       17.012      322.111      536.671      289.405        0.218        0.057       56.577       11.431        0.041      336.002        7.012      869.641
01/28/2015  10:40:00        1.873        1.469       17.631       26.958       21.983       22.293      726.754      483.257      496.995        0.101        0.085        2.380       18.704       61.753      336.564        7.951      869.638
01/28/2015  10:41:00      -12.022       36.206       56.169       37.698       40.123       41.185     1421.110     1609.843     1696.215        0.467        0.236       38.149       36.340        0.907      336.565        7.953      869.631
01/28/2015  10:42:00       97.103       81.191       53.791       57.589       36.241       40.287     3316.502     1313.419     1623.014        1.258        0.313      126.574       26.640        0.044      336.013        7.031      869.636
01/28/2015  10:43:00      104.345       71.919       37.006       35.866       47.583       36.400     1286.394     2264.144     1324.938        1.115        0.244      126.729       13.829        0.012      336.086        7.153      869.630
01/28/2015  10:44:00       88.040       51.762       37.735       31.373       32.184       30.059      984.274     1035.836      903.521        0.739        0.146      102.129       19.188        0.035      335.979        6.975      869.631
01/28/2015  10:45:00       84.793       58.938      -16.106       24.566       33.658       20.562      603.482     1132.858      422.802        0.654        0.108      103.265       16.650        0.026      335.867        6.786      869.623
01/28/2015  10:46:00       59.884       41.274      -15.666       40.427       40.491       31.051     1634.367     1639.539      964.189        0.489        0.212       72.730       22.014        0.092      336.151        7.260      869.617
01/28/2015  10:47:00      102.758       91.763        9.356       35.235       34.397       35.079     1241.474     1183.162     1230.532        1.136        0.183      137.767       11.270        0.007      336.083        7.147      869.603
01/28/2015  10:48:00       85.575       69.873        6.771       37.844       27.725       30.164     1432.194      768.694      909.889        0.768        0.156      110.477       20.731        0.035      336.135        7.234      869.592
01/28/2015  10:49:00       40.408       55.873       13.582       40.675       38.449       38.304     1654.440     1478.363     1467.193        0.477        0.230       68.954       26.920        0.152      336.479        7.808      869.584
01/28/2015  10:50:00        9.484       94.514      120.816       54.596       67.716       52.947     2980.697     4585.439     2803.403        1.699        0.518       94.989       49.090        0.267      336.473        7.796      869.583
01/28/2015  10:51:00       70.354       68.991       56.539       65.780       46.626       41.233     4327.001     2173.941     1700.123        1.055        0.410       98.537       38.559        0.153      336.306        7.519      869.600
01/28/2015  10:52:00       31.485       67.531       76.335       36.207       36.109       30.732     1310.968     1303.873      944.474        0.747        0.178       74.510       26.173        0.123      336.424        7.717      869.599
01/28/2015  10:53:00       35.429       51.039       47.407       41.193       33.450       33.109     1696.849     1118.916     1096.194        0.501        0.196       62.131       19.213        0.096      336.668        8.125      869.593
01/28/2015  10:54:00       53.552       83.682       90.089       94.919       65.386       63.701     9009.587     4275.378     4057.770        1.766        0.867       99.350       56.901        0.328      336.805        8.353      869.587
01/28/2015  10:55:00       93.869       76.017       34.569       73.014       37.610       46.136     5331.073     1414.516     2128.523        1.233        0.444      120.789       42.052        0.121      336.293        7.498      869.604
01/28/2015  10:56:00      127.356       86.319       30.134       37.349       35.951       40.054     1394.975     1292.479     1604.320        1.443        0.215      153.852       26.030        0.029      336.212        7.361      869.605
01/28/2015  10:57:00       29.068        0.567       -7.641       40.491       38.507       32.018     1639.534     1482.799     1025.147        0.252        0.207       29.073       28.710        0.975      336.201        7.344      869.599
01/28/2015  10:58:00       18.984       49.022        3.977       41.842       35.894       31.584     1750.717     1288.374      997.544        0.341        0.202       52.569       24.204        0.212      336.568        7.957      869.586
01/28/2015  10:59:00       23.642       15.892       16.706       31.283       18.059       19.228      978.610      326.122      369.727        0.138        0.084       28.487       12.083        0.180      336.534        7.899      869.580
01/28/2015  11:00:00       80.944       60.108       24.026       43.544       35.040       34.748     1896.037     1227.824     1207.398        0.754        0.217      100.821       13.030        0.017      336.512        7.862      869.566
01/28/2015  11:01:00        6.738       62.486       85.106       40.404       58.875       38.972     1632.489     3466.211     1518.806        0.890        0.331       62.849       38.191        0.369      337.048        8.759      869.546
01/28/2015  11:02:00       99.554       61.209       34.160       54.010       59.111       50.043     2917.085     3494.063     2504.320        1.187        0.446      116.865       37.349        0.102      336.344        7.583      869.533
01/28/2015  11:03:00       31.323      112.345      113.725       46.917       41.228       30.040     2201.211     1699.738      902.426        1.567        0.240      116.630       23.076        0.039      336.498        7.840      869.503
01/28/2015  11:04:00       26.693      112.527      111.438       31.424       42.681       26.316      987.457     1821.684      692.517        1.465        0.175      115.650       24.922        0.046      336.399        7.676      869.482
01/28/2015  11:05:00       26.183       52.619       71.796       49.639       57.400       29.244     2464.078     3294.803      855.230        0.761        0.331       58.773       27.898        0.225      336.697        8.174      869.465
01/28/2015  11:06:00       87.185       83.913       40.473       61.217       40.987       36.340     3747.478     1679.909     1320.623        1.151        0.337      121.007       19.797        0.027      336.722        8.214      869.445
01/28/2015  11:07:00       39.288        5.073       45.351       51.704       55.672       52.428     2673.256     3099.383     2748.705        0.607        0.426       39.614       55.425        1.957      336.586        7.987      869.448
01/28/2015  11:08:00       25.983       34.615       61.494       53.252       30.680       27.746     2835.769      941.285      769.835        0.510        0.227       43.282       20.064        0.215      336.879        8.477      869.441
01/28/2015  11:09:00       13.341       53.871       79.399       51.030       52.153       42.641     2604.013     2719.949     1818.250        0.826        0.357       55.498       34.790        0.393      336.968        8.625      869.418
01/28/2015  11:10:00       72.629       51.622       22.370       55.441       31.705       34.598     3073.748     1005.219     1197.003        0.686        0.264       89.106       32.784        0.135      336.676        8.139      869.430
01/28/2015  11:11:00       19.613       37.606       44.013       37.726       30.152       23.432     1423.225      909.149      549.044        0.331        0.144       42.413        6.972        0.027      337.072        8.800      869.412
01/28/2015  11:12:00       37.480      -68.038        0.484       43.497       53.867       34.669     1892.008     2901.662     1201.931        0.601        0.300       77.678       36.009        0.215      337.012        8.699      869.408
01/28/2015  11:13:00       13.520      -34.371       14.101       27.814       45.545       28.696      773.614     2074.359      823.449        0.262        0.184       36.935       16.749        0.206      336.915        8.537      869.408
01/28/2015  11:14:00       -1.414      -49.196       -1.363       25.464       53.719       24.039      648.441     2885.715      577.851        0.327        0.206       49.216       16.864        0.117      336.829        8.393      869.397
01/28/2015  11:15:00       40.061      -37.045       15.447       25.292       71.120       35.431      639.660     5058.031     1255.351        0.508        0.348       54.564       39.166        0.515      336.800        8.343      869.391
01/28/2015  11:16:00        6.710       25.330       30.446       29.116       48.099       38.086      847.722     2313.524     1450.559        0.311        0.231       26.204       22.808        0.758      337.101        8.847      869.377
01/28/2015  11:17:00       71.353       45.009       62.381       52.901       49.530       37.560     2798.556     2453.219     1410.718        0.883        0.333       84.362       43.488        0.266      336.783        8.317      869.374
01/28/2015  11:18:00       49.334       40.636       65.722       64.671       60.821       62.652     4182.342     3699.214     3925.260        1.010        0.590       63.915       61.310        0.920      336.985        8.653      869.346
01/28/2015  11:19:00       22.860       94.334      113.017       43.035       57.475       38.544     1852.039     3303.352     1485.613        1.442        0.332       97.064       35.361        0.133      337.026        8.723      869.317
01/28/2015  11:20:00       51.876      118.785      105.208       63.676       70.146       54.504     4054.694     4920.397     2970.730        1.991        0.597      129.619       45.447        0.123      337.082        8.814      869.301
01/28/2015  11:21:00       56.778       90.348       75.040       35.255       37.925       38.269     1242.948     1438.273     1464.501        1.058        0.207      106.708       27.588        0.067      336.830        8.396      869.294
01/28/2015  11:22:00       11.389       28.873       52.827       21.579       43.246       19.429      465.632     1870.253      377.473        0.323        0.136       31.038       17.653        0.323      337.208        9.029      869.282
01/28/2015  11:23:00       66.899       57.773       22.795       70.141       43.317       43.673     4919.767     1876.339     1907.369        0.852        0.435       88.392       39.872        0.203      337.066        8.790      869.260
01/28/2015  11:24:00       37.460       71.898       46.770       43.407       46.388       42.019     1884.194     2151.855     1765.577        0.728        0.290       81.072       24.927        0.095      337.232        9.067      869.227
01/28/2015  11:25:00       -7.546        9.145       30.555       32.610       56.946       43.595     1063.415     3242.827     1900.529        0.364        0.310       11.856       37.508       10.009      337.398        9.346      869.207
01/28/2015  11:26:00       53.269       99.545       99.430       71.770       43.914       44.609     5151.005     1928.402     1989.975        1.585        0.453      112.902       46.371        0.169      337.128        8.892      869.180
01/28/2015  11:27:00       13.635       43.285       45.839       37.173       28.985       26.968     1381.853      840.104      727.280        0.355        0.147       45.382       12.577        0.077      337.278        9.146      869.174
01/28/2015  11:28:00       -7.056      -45.694       29.087       28.648       53.824       29.602      820.705     2897.028      876.299        0.379        0.230       46.235       29.950        0.420      337.485        9.492      869.139
01/28/2015  11:29:00       49.076       38.902       24.439       45.193       25.321       39.931     2042.383      641.148     1594.460        0.440        0.214       62.625       28.178        0.202      337.478        9.479      869.118
01/28/2015  11:30:00       50.813       58.587       15.043       62.711       29.064       38.290     3932.714      844.704     1466.141        0.624        0.312       77.552       35.257        0.207      337.168        8.960      869.102
01/28/2015  11:31:00       31.511       60.352       18.476       39.681       26.939       38.316     1574.616      725.687     1468.082        0.437        0.188       68.084       17.121        0.063      337.365        9.290      869.076
01/28/2015  11:32:00      -16.692       19.428       16.608       15.262       30.632       17.999      232.925      938.292      323.953        0.121        0.075       25.614       18.082        0.498      337.842       10.090      869.055
01/28/2015  11:33:00      -32.876      -15.099       17.849       25.195       29.354       25.035      634.785      861.660      626.730        0.187        0.106       36.178       12.084        0.112      337.608        9.696      869.036
01/28/2015  11:34:00        4.259      -32.399       50.591       31.686       68.271       45.764     1003.982     4660.907     2094.326        0.569        0.388       32.678       44.274        1.836      337.731        9.903      869.002
01/28/2015  11:35:00       36.801        4.105       64.529       56.742       90.745       49.954     3219.660     8234.650     2495.364        0.974        0.697       37.029       49.438        1.783      337.512        9.536      868.990
01/28/2015  11:36:00      133.493      103.179       74.811       58.134       36.672       42.664     3379.545     1344.833     1820.207        2.030        0.327      168.720       37.741        0.050      337.069        8.793      868.964
01/28/2015  11:37:00       92.754       65.306       40.096       47.148       46.843       33.289     2222.908     2194.237     1108.164        1.000        0.276      113.438       19.028        0.028      336.993        8.666      868.950
01/28/2015  11:38:00       99.781       84.011       16.210       40.755       42.557       32.675     1660.939     1811.130     1067.656        1.091        0.227      130.438       13.796        0.011      336.945        8.588      868.912
01/28/2015  11:39:00       33.732       78.800       -4.546       37.548       46.129       25.452     1409.839     2127.853      647.819        0.578        0.209       85.716       23.705        0.076      337.019        8.712      868.896
01/28/2015  11:40:00       84.079       71.762       15.118       40.763       41.038       28.152     1661.643     1684.105      792.527        0.829        0.207      110.540       13.118        0.014      337.375        9.307      868.874
01/28/2015  11:41:00       19.633       53.583       51.653       50.621       64.585       63.594     2562.493     4171.207     4044.259        0.835        0.539       57.066       56.941        0.996      337.795       10.009      868.856
01/28/2015  11:42:00       -9.409       85.277       69.054       45.934       54.541       70.545     2109.902     2974.761     4976.542        1.109        0.503       85.794       42.662        0.247      337.758        9.949      868.859
01/28/2015  11:43:00       85.123       84.522       30.686       59.565       34.600       55.078     3548.020     1197.151     3033.565        1.155        0.389      119.958       42.144        0.123      337.401        9.352      868.850
01/28/2015  11:44:00       47.278       42.823      -13.994       30.347       24.421       19.727      920.945      596.364      389.170        0.309        0.095       63.789        8.499        0.018      337.116        8.873      868.854
01/28/2015  11:45:00      -10.317       86.280       -6.333       23.570       35.402       28.286      555.537     1253.291      800.095        0.510        0.130       86.895       21.784        0.063      337.345        9.256      868.831
01/28/2015  11:46:00        6.794       65.699       -1.281       27.209       48.879       27.658      740.315     2389.170      764.948        0.413        0.195       66.049       31.043        0.221      337.465        9.458      868.814
01/28/2015  11:47:00       54.049       39.568       13.209       23.292       27.815       25.660      542.525      773.670      658.421        0.332        0.099       66.984       16.788        0.063      337.517        9.544      868.805
01/28/2015  11:48:00       69.558       52.715       19.501       58.667       33.204       41.603     3441.795     1102.530     1730.815        0.714        0.314       87.277       36.954        0.179      337.625        9.724      868.790
01/28/2015  11:49:00       16.316       69.007       85.473       40.479       56.802       47.035     1638.560     3226.464     2212.259        0.970        0.354       70.910       44.222        0.389      337.973       10.309      868.783
01/28/2015  11:50:00        4.286       54.468       70.230       30.689       50.459       36.000      941.822     2546.109     1295.964        0.635        0.239       54.636       35.527        0.423      337.985       10.329      868.779
01/28/2015  11:51:00       69.380       39.093       44.331       69.950       44.422       40.765     4892.942     1973.303     1661.796        0.842        0.426       79.636       42.228        0.281      337.803       10.023      868.778
01/28/2015  11:52:00      121.712       98.685       21.843       39.372       37.558       41.960     1550.150     1410.634     1760.606        1.487        0.236      156.692       12.858        0.007      337.541        9.585      868.754
01/28/2015  11:53:00       79.187       66.209       13.073       81.730       48.816       43.645     6679.858     2383.007     1904.874        1.089        0.548      103.219       16.562        0.026      337.701        9.852      868.751
01/28/2015  11:54:00      124.113       79.956       15.011       35.294       33.390       32.701     1245.657     1114.919     1069.323        1.273        0.171      147.638       17.856        0.015      337.281        9.149      868.742
01/28/2015  11:55:00       73.227       35.861       18.630       23.043       24.127       28.377      530.958      582.089      805.265        0.446        0.096       81.536       11.964        0.022      337.346        9.259      868.743
01/28/2015  11:56:00      -19.269       49.174        4.299       34.928       49.148       22.185     1219.966     2415.574      492.184        0.347        0.206       52.814       24.157        0.209      337.782        9.988      868.712
01/28/2015  11:57:00        9.608       80.244       -9.268       24.147       46.049       27.521      583.088     2120.466      757.414        0.504        0.173       80.817       23.626        0.085      337.811       10.038      868.700
01/28/2015  11:58:00       16.421       35.468        6.308       43.284       27.027       25.825     1873.481      730.433      666.941        0.242        0.164       39.085       16.874        0.186      338.025       10.396      868.686
01/28/2015  11:59:00       51.800       54.817       30.166       47.732       33.773       40.871     2278.381     1140.648     1670.439        0.584        0.254       75.420       29.841        0.157      338.075       10.480      868.662
01/28/2015  12:00:00       99.660       58.520       48.832       42.531       32.470       32.263     1808.866     1054.325     1040.925        0.982        0.195      115.571       17.769        0.024      337.805       10.026      868.657
01/28/2015  12:01:00       37.292       65.468       51.842       53.069       51.394       42.412     2816.270     2641.351     1798.752        0.781        0.363       75.345       36.234        0.231      338.151       10.607      868.622
01/28/2015  12:02:00       61.741      116.493      104.740       60.880       65.291       48.001     3706.364     4262.968     2304.139        1.931        0.514      131.843       39.757        0.091      337.930       10.235      868.604
01/28/2015  12:03:00       29.288       68.304       81.054       65.250       72.773       49.227     4257.497     5295.879     2423.258        1.203        0.599       74.318       48.720        0.430      338.223       10.728      868.583
01/28/2015  12:04:00      104.674       53.223       19.040       41.854       37.291       34.270     1751.773     1390.652     1174.466        0.923        0.216      117.428       14.127        0.014      337.749        9.933      868.578
01/28/2015  12:05:00       42.710       48.901       30.390       49.621       28.177       25.467     2462.248      793.970      648.552        0.452        0.195       64.926       18.158        0.078      338.068       10.468      868.562
01/28/2015  12:06:00       32.764       -7.876       53.235       45.682       69.072       39.054     2086.816     4771.007     1525.203        0.617        0.419       33.697       41.108        1.488      338.310       10.875      868.541
01/28/2015  12:07:00       35.221       49.658       28.583       45.292       36.524       33.911     2051.376     1333.998     1149.923        0.453        0.227       60.881       26.966        0.196      338.250       10.774      868.539
01/28/2015  12:08:00       53.163       67.241        6.942       53.188       40.059       27.983     2828.984     1604.699      783.029        0.631        0.261       85.718       16.162        0.036      337.992       10.340      868.527
01/28/2015  12:09:00       96.863       94.936       21.875       76.645       52.129       44.223     5874.524     2717.470     1955.705        1.471        0.527      135.629       27.837        0.042      338.062       10.458      868.515
01/28/2015  12:10:00      103.277      101.172       86.255       50.530       37.502       36.355     2553.329     1406.372     1321.688        1.681        0.264      144.575       18.682        0.017      338.053       10.443      868.513
01/28/2015  12:11:00       54.261       65.907       29.969       45.105       31.345       31.620     2034.477      982.495      999.825        0.610        0.201       85.370        9.011        0.011      338.284       10.830      868.491
01/28/2015  12:12:00       97.496       77.301       65.588       66.142       56.138       60.197     4374.808     3151.507     3623.643        1.546        0.557      124.422       49.031        0.155      338.108       10.534      868.479
01/28/2015  12:13:00       15.858       38.290       80.298       48.932       73.062       38.659     2394.317     5338.071     1494.546        0.869        0.461       41.444       39.212        0.895      338.376       10.986      868.457
01/28/2015  12:14:00       33.967       23.002       46.539       43.576       67.020       36.614     1898.891     4491.644     1340.569        0.579        0.387       41.022       38.983        0.903      338.358       10.956      868.451
01/28/2015  12:15:00       20.954       19.548       12.820       18.774       28.971       29.586      352.446      839.302      875.304        0.153        0.103       28.656       20.178        0.496      338.222       10.727      868.444
01/28/2015  12:16:00       58.922      -51.696       30.984       66.636       51.369       40.711     4440.405     2638.812     1657.354        0.792        0.437       78.385       35.309        0.203      338.491       11.178      868.411
01/28/2015  12:17:00       51.941      -89.175        9.962       67.974       87.754       36.204     4620.533     7700.700     1310.700        1.219        0.682      103.199       45.807        0.197      338.428       11.071      868.384
01/28/2015  12:18:00       66.962     -102.110       24.665       57.060       80.856       34.570     3255.820     6537.646     1195.106        1.325        0.549      122.108       48.392        0.157      338.284       10.830      868.368
01/28/2015  12:19:00       21.981      -19.662       22.019       66.270       74.633       41.540     4391.708     5570.033     1725.586        0.652        0.584       29.492       36.139        1.502      338.479       11.158      868.351
01/28/2015  12:20:00       70.655       38.745       53.709       64.054       42.499       37.978     4102.950     1806.163     1442.310        0.836        0.368       80.581       28.425        0.124      338.434       11.082      868.324
01/28/2015  12:21:00       79.750      -79.175       11.216       63.532       63.579       50.933     4036.276     4042.288     2594.185        1.171        0.534      112.378       39.230        0.122      338.327       10.902      868.310
01/28/2015  12:22:00       60.056      -65.613       15.474       54.440       99.809       53.305     2963.763     9961.931     2841.463        1.196        0.788       88.948       63.341        0.507      338.315       10.883      868.303
01/28/2015  12:23:00       18.975       64.978       76.512       40.738       48.057       35.205     1659.561     2309.442     1239.376        0.782        0.260       67.692       24.322        0.129      338.608       11.376      868.283
01/28/2015  12:24:00      111.585       76.396       12.206       45.514       46.911       39.893     2071.540     2200.621     1591.423        1.215        0.293      135.232       27.909        0.043      338.385       11.001      868.267
01/28/2015  12:25:00      112.554       97.133       18.544       70.687       71.603       60.733     4996.720     5127.008     3688.502        1.813        0.691      148.672       41.519        0.078      338.616       11.388      868.236
01/28/2015  12:26:00       78.993       83.755       43.179       82.992       43.327       45.159     6887.638     1877.233     2039.380        1.296        0.540      115.130       36.143        0.099      338.591       11.347      868.213
01/28/2015  12:27:00       99.047       75.415       23.439       66.971       36.584       46.898     4485.092     1338.383     2199.454        1.203        0.401      124.490       31.387        0.064      338.240       10.758      868.202
01/28/2015  12:28:00       85.478       66.317       -2.761       35.874       27.384       28.513     1286.977      749.856      813.008        0.728        0.142      108.187       13.640        0.016      338.405       11.033      868.173
01/28/2015  12:29:00       41.430       60.182        7.795       33.315       32.607       31.362     1109.896     1063.200      983.563        0.428        0.158       73.064       18.921        0.067      338.408       11.040      868.131
01/28/2015  12:30:00       14.122       13.806       16.819       21.755       18.558       18.245      473.276      344.407      332.865        0.091        0.058       19.750       14.292        0.524      338.540       11.260      868.107
01/28/2015  12:31:00       -5.975       50.320       -4.552       19.259       21.469       14.698      370.906      460.939      216.029        0.182        0.052       50.674        7.831        0.024      338.304       10.865      868.073
01/28/2015  12:32:00       -2.123       14.494       17.415       13.396       16.425       22.457      179.465      269.772      504.325        0.074        0.048       14.649       11.758        0.644      338.864       11.805      868.040
01/28/2015  12:33:00       -2.269      -15.836      -14.067       11.287       17.829       10.829      127.393      317.889      117.274        0.051        0.028       15.998        9.305        0.338      338.407       11.038      868.015
01/28/2015  12:34:00       36.582       52.487       55.916       30.557       31.932       34.295      933.719     1019.657     1176.133        0.517        0.156       63.977       21.750        0.116      338.522       11.232      868.002
01/28/2015  12:35:00       63.827       87.059       67.847       45.439       53.057       52.245     2064.693     2815.063     2729.513        1.193        0.380      107.950       40.300        0.139      338.597       11.354      867.985
01/28/2015  12:36:00       49.189       94.653      104.311       70.489       51.055       45.782     4968.641     2606.624     2095.987        1.596        0.484      106.672       34.861        0.107      338.906       11.876      867.955
01/28/2015  12:37:00       -1.131       68.689       67.253       43.480       52.271       51.403     1890.539     2732.269     2642.248        0.825        0.363       68.698       25.398        0.137      339.131       12.256      867.949
01/28/2015  12:38:00       91.629       79.102       49.446       84.108       49.551       55.119     7074.160     2455.294     3038.075        1.483        0.628      121.049       41.846        0.120      338.852       11.785      867.944
01/28/2015  12:39:00       85.200       53.947       21.475       55.460       38.294       24.534     3075.807     1466.454      601.903        0.789        0.257      100.843       21.497        0.045      338.318       10.887      867.951
01/28/2015  12:40:00       27.724       55.504       82.749       45.875       70.689       38.280     2104.533     4996.882     1465.342        0.963        0.428       62.043       38.852        0.392      338.767       11.642      867.942
01/28/2015  12:41:00       82.836       62.215       49.708       36.301       39.977       34.466     1317.731     1598.182     1187.906        0.865        0.205      103.598       19.214        0.034      338.389       11.008      867.940
01/28/2015  12:42:00       84.274       13.907       49.762       71.339       60.776       49.483     5089.188     3693.692     2448.589        1.050        0.562       85.413       47.019        0.303      338.549       11.277      867.915
01/28/2015  12:43:00       34.571      -70.215       -6.289       38.944       46.110       35.649     1516.649     2126.149     1270.840        0.554        0.246       78.264       34.008        0.189      338.229       10.739      867.913
01/28/2015  12:44:00      -20.964       24.151      -24.361       39.595       46.180       25.339     1567.730     2132.621      642.062        0.298        0.217       31.981       26.854        0.705      338.475       11.152      867.877
01/28/2015  12:45:00      -92.792       -8.322      -21.496       28.521       40.500       23.234      813.442     1640.277      539.799        0.607        0.150       93.165       22.770        0.060      338.446       11.105      867.855
01/28/2015  12:46:00      -59.117      -40.432       -2.473       49.380       26.020       24.777     2438.366      677.063      613.898        0.443        0.186       71.621       20.428        0.081      338.859       11.796      867.834
01/28/2015  12:47:00        5.176      -66.896      -11.057       46.028       41.162       19.300     2118.587     1694.274      372.501        0.440        0.209       67.096       22.413        0.112      338.843       11.769      867.813
01/28/2015  12:48:00        9.366      -26.399        8.200       40.067       31.343       22.431     1605.342      982.358      503.135        0.197        0.155       28.011       20.134        0.517      338.952       11.953      867.801
01/28/2015  12:49:00      -24.620        6.575       -4.779       23.324       22.802       11.848      543.990      519.939      140.383        0.094        0.060       25.483        8.260        0.105      338.868       11.813      867.782
01/28/2015  12:50:00       -2.526      -33.129        9.039       25.017       51.585       28.036      625.855     2661.022      785.996        0.263        0.204       33.225       23.094        0.483      339.220       12.405      867.766
01/28/2015  12:51:00        8.050      -53.688       19.929       39.942       91.760       40.550     1595.395     8419.868     1644.306        0.750        0.583       54.288       47.666        0.771      339.336       12.599      867.755
01/28/2015  12:52:00       59.760        4.227       38.570       84.413       57.170       44.650     7125.548     3268.393     1993.644        0.873        0.619       59.909       37.990        0.402      339.205       12.380      867.738
01/28/2015  12:53:00       66.725       54.383       44.393      106.175       73.555       51.828    11273.093     5410.271     2686.176        1.437        0.968       86.080       50.157        0.340      339.022       12.070      867.741
01/28/2015  12:54:00       55.820       26.054       78.953       72.850       99.226       68.075     5307.167     9845.811     4634.155        1.490        0.989       61.601       75.523        1.503      339.074       12.159      867.738
01/28/2015  12:55:00       70.014       59.117       98.805       86.602       74.515       48.510     7499.827     5552.467     2353.248        1.678        0.770       91.635       55.973        0.373      338.963       11.971      867.720
01/28/2015  12:56:00       26.657       13.306       73.153       70.761       92.447       76.502     5007.088     8546.444     5852.514        1.282        0.970       29.793       73.517        6.089      339.125       12.244      867.704
01/28/2015  12:57:00       74.527       73.953      101.618       74.722       63.738       58.091     5583.360     4062.509     3374.559        1.718        0.651      104.992       56.344        0.288      338.828       11.743      867.693
01/28/2015  12:58:00       89.346       56.036       86.631       69.413       52.861       50.822     4818.123     2794.255     2582.857        1.441        0.510      105.464       37.414        0.126      338.690       11.513      867.686
01/28/2015  12:59:00      114.517       44.040        8.773       54.257       42.803       43.642     2943.794     1832.060     1904.636        1.090        0.334      122.693       31.639        0.066      338.592       11.348      867.685
01/28/2015  13:00:00       42.076       23.675       19.779       67.372       46.897       31.984     4538.963     2199.314     1022.969        0.524        0.388       48.280       34.692        0.516      339.027       12.079      867.657
01/28/2015  13:01:00       27.413       64.025       41.436       48.047       72.331       88.330     2308.551     5231.803     7802.153        1.095        0.767       69.647       68.747        0.974      339.067       12.146      867.644
01/28/2015  13:02:00       92.476       98.825       21.524       76.108       50.560       45.880     5792.410     2556.338     2104.930        1.462        0.523      135.345       43.457        0.103      338.619       11.391      867.639
01/28/2015  13:03:00       27.975      -68.543        8.561       38.674       55.885       24.767     1495.706     3123.182      613.392        0.539        0.262       74.032       23.887        0.104      338.905       11.875      867.627
01/28/2015  13:04:00       32.120      -65.009       15.471       33.279       20.386       21.590     1107.523      415.607      466.128        0.374        0.099       72.511       14.660        0.041      338.742       11.601      867.603
01/28/2015  13:05:00       21.154      -22.865       -5.074       20.873       34.300       30.720      435.675     1176.476      943.737        0.178        0.128       31.149       24.551        0.621      339.006       12.044      867.578
01/28/2015  13:06:00       13.553      -10.195       22.119       16.928       34.110       22.750      286.548     1163.465      517.570        0.137        0.098       16.959       20.691        1.488      339.210       12.389      867.559
01/28/2015  13:07:00       21.009       26.187       24.245       29.856       32.617       30.785      891.394     1063.843      947.720        0.231        0.145       33.573       19.042        0.322      339.294       12.529      867.534
01/28/2015  13:08:00       83.198       59.042       33.074       64.311       51.724       58.964     4135.910     2675.345     3476.710        1.089        0.514      102.019       46.072        0.204      339.216       12.397      867.512
01/28/2015  13:09:00       78.908       85.520        6.137       47.029       61.346       43.554     2211.687     3763.288     1896.941        1.072        0.394      116.362       32.647        0.079      339.186       12.347      867.502
01/28/2015  13:10:00       32.918       82.434        8.520       50.516       56.045       40.991     2551.891     3141.026     1680.243        0.766        0.369       88.763       42.634        0.231      339.050       12.117      867.486
01/28/2015  13:11:00       58.961       93.475       -1.946       48.810       54.616       42.068     2382.400     2982.888     1769.676        0.968        0.357      110.517       39.017        0.125      338.916       11.894      867.493
01/28/2015  13:12:00      169.543       95.628       25.593       60.168       70.700       43.854     3620.243     4998.495     1923.140        2.454        0.527      194.652       37.591        0.037      338.777       11.655      867.488
01/28/2015  13:13:00       69.482       87.704        1.246       75.209       53.900       39.402     5656.345     2905.247     1552.554        1.132        0.506      111.891       34.796        0.097      338.862       11.801      867.479
01/28/2015  13:14:00       32.894       59.005        5.546       52.455       45.860       35.820     2751.477     2103.172     1283.108        0.537        0.307       67.554       29.215        0.187      339.126       12.247      867.485
01/28/2015  13:15:00       17.015      154.750      -19.051       30.751       47.892       19.437      945.630     2293.683      377.783        1.411        0.181      155.683       15.694        0.010      338.766       11.640      867.474
01/28/2015  13:16:00       48.677      115.033      -13.297       54.849       52.560       40.799     3008.418     2762.526     1664.569        1.161        0.372      124.908       32.917        0.069      338.971       11.985      867.466
01/28/2015  13:17:00      -29.280      151.823      -14.220       48.460       80.820       34.916     2348.382     6531.914     1219.149        1.710        0.505      154.621       38.368        0.062      338.926       11.909      867.454
01/28/2015  13:18:00       15.918       28.080       -2.285       63.401       40.752       33.559     4019.632     1660.694     1126.194        0.393        0.340       32.278       26.871        0.693      339.205       12.379      867.451
01/28/2015  13:19:00      112.222     -125.334      -30.247       49.824       60.830       48.364     2482.399     3700.285     2339.059        1.887        0.426      168.233       31.000        0.034      338.985       12.008      867.442
01/28/2015  13:20:00       66.454      -40.818       10.472       38.708       53.859       30.025     1498.322     2900.838      901.526        0.575        0.265       77.989       30.050        0.148      338.953       11.956      867.452
01/28/2015  13:21:00      -61.562       31.131       12.839       47.275       31.603       35.019     2234.940      998.725     1226.333        0.469        0.223       68.986       24.219        0.123      339.214       12.395      867.443
01/28/2015  13:22:00      -15.597       -4.066       24.053       26.022       34.309       22.871      677.136     1177.093      523.084        0.161        0.119       16.119       15.841        0.966      339.624       13.084      867.436
01/28/2015  13:23:00      -32.852      -61.385        6.231       37.558       37.165       26.048     1410.640     1381.257      678.523        0.418        0.174       69.623       16.068        0.053      339.415       12.733      867.440
01/28/2015  13:24:00        4.176      -23.994       11.421       28.537       43.356       24.149      814.368     1879.702      583.165        0.200        0.164       24.355       17.948        0.543      339.534       12.933      867.446
01/28/2015  13:25:00       -6.031      -15.147        6.012       33.348       30.822       16.027     1112.064      949.987      256.876        0.131        0.116       16.304       15.294        0.880      339.407       12.720      867.437
01/28/2015  13:26:00      -18.430       36.444       42.253       17.324       24.402       23.144      300.110      595.463      535.658        0.244        0.072       40.839       11.545        0.080      339.739       13.278      867.439
01/28/2015  13:27:00       -3.535       14.617       -8.172       21.056       17.343       24.104      443.345      300.791      580.988        0.081        0.066       15.039       18.066        1.443      339.590       13.028      867.432
01/28/2015  13:28:00       51.489      -81.322       17.759       61.760       78.482       54.496     3814.287     6159.493     2969.821        1.126        0.647       96.252       36.595        0.145      339.421       12.743      867.417
01/28/2015  13:29:00      102.970      -71.067       13.565       61.895       67.288       40.876     3830.934     4527.678     1670.848        1.293        0.501      125.113       49.551        0.157      339.077       12.162      867.424
01/28/2015  13:30:00       27.191       19.827       55.975       48.336       95.987       40.156     2336.342     9213.445     1612.507        0.871        0.658       33.652       50.341        2.238      339.637       13.106      867.414
01/28/2015  13:31:00      171.985       90.688        2.893       76.475       61.363       51.579     5848.390     3765.450     2660.406        2.504        0.614      194.430       43.028        0.049      339.177       12.330      867.422
01/28/2015  13:32:00       66.943       71.526       66.782       62.662       44.546       40.933     3926.536     1984.360     1675.484        1.082        0.379       97.966       39.201        0.160      339.163       12.308      867.413
01/28/2015  13:33:00       38.898       39.709       42.717       40.380       41.975       36.767     1630.518     1761.861     1351.806        0.483        0.237       55.587       32.107        0.334      339.266       12.483      867.410
01/28/2015  13:34:00      151.963      131.418       16.341       90.867       58.072       54.335     8256.883     3372.325     2952.319        2.760        0.729      200.906       38.712        0.037      339.189       12.349      867.393
01/28/2015  13:35:00      159.596      119.375       15.221       59.554       31.429       31.630     3546.711      987.768     1000.475        2.274        0.277      199.302       18.567        0.009      338.801       11.697      867.414
01/28/2015  13:36:00       59.055       40.036       -6.010       49.247       34.832       26.019     2425.262     1213.275      676.999        0.472        0.216       71.347       18.683        0.069      339.038       12.097      867.411
01/28/2015  13:37:00       30.530       12.364        9.981       33.000       67.606       41.028     1089.022     4570.533     1683.320        0.426        0.367       32.939       28.431        0.745      339.126       12.246      867.385
01/28/2015  13:38:00       40.257       33.147        5.101       58.684       47.712       36.568     3443.822     2276.458     1337.234        0.490        0.353       52.147       26.524        0.259      339.317       12.568      867.369
01/28/2015  13:39:00      167.788      105.207       37.667       90.693       66.587       55.388     8225.309     4433.798     3067.853        2.818        0.786      198.044       38.205        0.037      339.324       12.577      867.350
01/28/2015  13:40:00      233.081      158.667       33.015      119.944       96.964       76.594    14386.594     9401.958     5866.695        5.512        1.483      281.961       36.913        0.017      339.146       12.278      867.316
01/28/2015  13:41:00      216.799      146.989       19.916       86.891       74.627       43.117     7549.984     5569.263     1859.104        4.199        0.749      261.931       33.607        0.016      338.971       11.981      867.341
01/28/2015  13:42:00      108.535       81.743       10.594       82.817       47.773       34.232     6858.679     2282.253     1171.836        1.444        0.516      135.874       23.590        0.030      339.032       12.089      867.346
01/28/2015  13:43:00       86.901       45.055       32.549       86.010       45.001       41.256     7397.696     2025.115     1702.073        1.088        0.556       97.886       46.646        0.227      339.265       12.479      867.336
01/28/2015  13:44:00       27.997       24.219        2.423       82.217       68.825       27.938     6759.587     4736.897      780.526        0.682        0.614       37.019       24.716        0.446      339.077       12.164      867.325
01/28/2015  13:45:00       24.273      107.432      -14.482       48.061       58.126       26.116     2309.890     3378.662      682.020        0.935        0.319      110.140       27.796        0.064      339.206       12.382      867.319
01/28/2015  13:46:00       12.260      102.325       -8.795       26.078       49.676       30.821      680.054     2467.677      949.916        0.740        0.205      103.057       28.320        0.076      339.135       12.260      867.327
01/28/2015  13:47:00       26.952       84.667       59.753       35.829       46.425       69.995     1283.715     2155.266     4899.288        0.990        0.417       88.853       44.981        0.256      339.242       12.440      867.327
01/28/2015  13:48:00       97.637       82.929       55.315       67.263       62.757       66.646     4524.247     3938.466     4441.681        1.618        0.645      128.102       44.074        0.118      339.004       12.042      867.319
01/28/2015  13:49:00       22.909       15.106       34.910       46.162       30.086       21.737     2130.906      905.185      472.490        0.274        0.175       27.441       19.938        0.528      339.333       12.594      867.316
01/28/2015  13:50:00      -18.773       29.998       46.405       22.869       31.586       29.795      522.984      997.668      887.759        0.291        0.120       35.388       23.738        0.450      339.600       13.045      867.314
01/28/2015  13:51:00       -0.458       30.864       53.230       17.707       26.398       20.250      313.522      696.830      410.074        0.260        0.071       30.868       10.858        0.124      339.447       12.788      867.311
01/28/2015  13:52:00      -46.964        2.865        3.078       41.088       31.273       22.674     1688.242      977.982      514.104        0.270        0.159       47.051        3.862        0.007      339.480       12.841      867.299
01/28/2015  13:53:00       -6.684      -13.212       19.120       30.615       29.513       30.636      937.305      871.004      938.535        0.167        0.137       14.807       23.951        2.617      339.698       13.210      867.284
01/28/2015  13:54:00      -30.328      -37.186       14.706       51.422       33.420       31.206     2644.268     1116.917      973.823        0.363        0.237       47.985       12.259        0.065      339.490       12.858      867.281
01/28/2015  13:55:00      -18.287       12.203        0.580       34.067       26.921       22.367     1160.560      724.724      500.295        0.143        0.119       21.985       13.392        0.371      339.589       13.027      867.284
01/28/2015  13:56:00        8.651      104.261      -13.292       35.837       89.653       32.549     1284.282     8037.739     1059.431        1.075        0.519      104.619       47.363        0.205      339.396       12.701      867.277
01/28/2015  13:57:00      -18.093      214.272      -37.166       49.882       59.557       30.735     2488.260     3547.007      944.627        2.730        0.349      215.034       29.137        0.018      339.142       12.269      867.250
01/28/2015  13:58:00      -79.604       46.595      -10.045       26.368       31.186       27.339      695.250      972.541      747.404        0.551        0.121       92.238       16.326        0.031      339.312       12.559      867.220
01/28/2015  13:59:00      -51.608       71.379       -0.811       35.126       44.675       30.851     1233.806     1995.894      951.799        0.597        0.209       88.081       20.866        0.056      339.495       12.869      867.194
01/28/2015  14:00:00      -60.610       39.083        5.341       49.468       39.671       28.757     2447.082     1573.800      826.968        0.504        0.242       72.118       26.232        0.132      339.572       12.997      867.184
01/28/2015  14:01:00       -2.399       93.158       -5.158       46.958       72.552       29.753     2205.025     5263.791      885.220        0.853        0.418       93.188       34.160        0.134      339.642       13.115      867.166
01/28/2015  14:02:00        5.486       81.708       -0.168       28.225       61.666       28.566      796.640     3802.732      816.013        0.606        0.271       81.892       32.216        0.155      339.542       12.946      867.143
01/28/2015  14:03:00       61.069       68.724      -18.214       63.708       54.479       30.244     4058.713     2967.961      914.712        0.836        0.397       91.937       23.611        0.066      339.253       12.459      867.137
01/28/2015  14:04:00      -52.900       12.903      -20.443       35.855       56.964       33.235     1285.596     3244.933     1104.591        0.451        0.282       54.451       23.578        0.188      339.424       12.749      867.110
01/28/2015  14:05:00       31.980       82.939        1.528       39.953       64.813       39.502     1596.222     4200.696     1560.416        0.763        0.368       88.891       42.011        0.223      339.469       12.824      867.098
01/28/2015  14:06:00      129.799       77.098       19.072       43.811       37.106       45.947     1919.375     1376.857     2111.087        1.428        0.270      150.970       18.868        0.016      339.334       12.595      867.079
01/28/2015  14:07:00       14.396      104.556       -9.776       33.152       53.508       27.560     1099.062     2863.133      759.552        0.798        0.236      105.543       22.583        0.046      339.307       12.551      867.070
01/28/2015  14:08:00       38.298       51.004       -1.605       52.123       55.187       33.693     2716.762     3045.615     1135.228        0.548        0.345       63.782       30.718        0.232      339.519       12.909      867.061
01/28/2015  14:09:00       45.433       -8.371       10.436       41.563       54.304       35.227     1727.451     2948.977     1240.972        0.408        0.296       46.198       10.028        0.047      339.461       12.810      867.049
01/28/2015  14:10:00        0.869       -8.370       33.490       57.361       59.373       32.374     3290.269     3525.132     1048.094        0.453        0.393        8.415       31.906       14.377      339.744       13.287      867.038
01/28/2015  14:11:00       73.749     -144.314      -14.161      114.350       72.873       44.852    13075.968     5310.443     2011.691        2.343        1.020      162.066       46.103        0.081      339.476       12.834      867.038
01/28/2015  14:12:00       71.410     -116.693       -1.299       70.528       75.456       44.379     4974.193     5693.545     1969.505        1.568        0.632      136.809       30.948        0.051      339.659       13.142      867.038
01/28/2015  14:13:00       68.938     -114.732       -2.204       61.988       51.799       41.867     3842.561     2683.178     1752.827        1.310        0.414      133.850       16.378        0.015      339.388       12.687      867.024
01/28/2015  14:14:00      -30.458      -91.493       16.166       59.331       90.070       44.878     3520.189     8112.618     2014.047        1.160        0.682       96.430       47.279        0.240      339.562       12.980      867.006
01/28/2015  14:15:00      -38.010       -4.223      -15.290       54.735       47.782       25.231     2995.966     2283.164      636.583        0.381        0.296       38.244       27.118        0.503      339.449       12.789      867.000
01/28/2015  14:16:00       10.812       18.243       61.106       37.781       44.229       32.824     1427.413     1956.188     1077.446        0.432        0.223       21.206       27.949        1.737      339.833       13.437      866.992
01/28/2015  14:17:00      -45.345      -37.934       23.742       32.285       58.955       29.102     1042.348     3475.667      846.917        0.471        0.268       59.120       33.436        0.320      339.566       12.987      866.980
01/28/2015  14:18:00        8.897       18.819        5.647       24.555       17.414       15.863      602.954      303.237      251.633        0.081        0.058       20.816        9.841        0.224      339.664       13.152      866.971
01/28/2015  14:19:00     -113.619      -16.806      -19.838       41.244       32.911       27.159     1701.081     1083.101      737.638        0.855        0.176      114.855       18.308        0.025      339.560       12.977      866.956
01/28/2015  14:20:00      -94.418      -42.989       -7.692       50.493       50.291       31.541     2549.496     2529.147      994.824        0.845        0.304      103.744       27.112        0.068      339.501       12.878      866.956
01/28/2015  14:21:00      -79.151      -64.743       10.612       81.102       55.322       40.938     6577.583     3060.555     1675.894        1.094        0.566      102.257       39.576        0.150      339.682       13.182      866.942
01/28/2015  14:22:00      -38.834      -64.695        2.788       71.897       62.026       43.292     5169.203     3847.237     1874.189        0.829        0.545       75.456       46.148        0.374      339.767       13.326      866.938
01/28/2015  14:23:00      -14.595      -14.160       20.234       62.321       35.999       33.299     3883.871     1295.937     1108.835        0.355        0.314       20.335       38.331        3.553      339.901       13.551      866.932
01/28/2015  14:24:00      -29.243      -26.437       23.249       34.188       26.417       31.094     1168.819      697.862      966.829        0.246        0.142       39.421       20.822        0.279      339.917       13.580      866.942
01/28/2015  14:25:00      -17.061       12.648       39.349       31.257       43.272       33.737      977.026     1872.426     1138.158        0.299        0.199       21.238       26.477        1.554      339.845       13.459      866.958
01/28/2015  14:26:00       20.388      -16.070       11.143       66.618       64.949       53.649     4438.013     4218.412     2878.206        0.616        0.577       25.960       62.409        5.779      339.788       13.361      866.965
01/28/2015  14:27:00       15.439      -41.746       22.752       89.001       81.134       51.055     7921.180     6582.799     2606.651        0.980        0.856       44.510       44.672        1.007      339.857       13.478      866.965
01/28/2015  14:28:00       84.816       89.156       54.282       92.141       64.758       62.375     8489.967     4193.605     3890.643        1.733        0.829      123.055       30.105        0.060      339.776       13.338      866.976
01/28/2015  14:29:00      126.687       67.122       48.451       71.271       62.976       54.311     5079.602     3966.014     2949.713        1.745        0.600      143.369       36.195        0.064      339.443       12.779      866.977
01/28/2015  14:30:00      133.019       89.712       44.504       57.484       49.157       52.290     3304.377     2416.384     2734.265        1.809        0.423      160.444       37.179        0.054      339.518       12.906      866.971
01/28/2015  14:31:00      145.864       80.832       94.026      107.959      101.461       70.810    11655.131    10294.273     5014.045        3.180        1.348      166.764       68.916        0.171      339.571       12.991      866.967
01/28/2015  14:32:00      119.751      -24.894       29.916       79.806       73.070       45.227     6369.005     5339.176     2045.443        1.480        0.688      122.311       43.929        0.129      339.629       13.092      866.957
01/28/2015  14:33:00       82.246       -7.374       45.438       96.035       78.602       54.514     9222.629     6178.233     2971.824        1.362        0.919       82.575       47.533        0.331      339.740       13.279      866.951
01/28/2015  14:34:00      104.413      -75.169        4.191       57.706       68.386       31.753     3330.008     4676.675     1008.232        1.279        0.451      128.657       30.790        0.057      339.552       12.964      866.957
01/28/2015  14:35:00       79.941      -38.123       26.371       52.066       44.549       36.850     2710.889     1984.573     1357.952        0.730        0.303       88.566       33.540        0.143      339.606       13.055      866.957
01/28/2015  14:36:00       86.880      -35.001       15.434       70.489       44.887       27.859     4968.732     2014.851      776.123        0.838        0.388       93.665       15.761        0.028      339.558       12.974      866.956
01/28/2015  14:37:00       85.735       39.008       29.507       75.347       47.623       33.988     5677.127     2267.910     1155.181        0.942        0.455       94.192       40.014        0.180      339.751       13.300      866.965
01/28/2015  14:38:00      155.714      116.839       38.355      126.637      108.870       73.303    16037.036    11852.724     5373.275        3.631        1.663      194.675       29.648        0.023      339.631       13.093      866.960
01/28/2015  14:39:00       66.410       66.325       31.902       62.582       85.762       53.461     3916.487     7355.110     2858.038        1.198        0.706       93.858       21.161        0.051      339.557       12.970      866.965
01/28/2015  14:40:00       49.456       68.353       90.226       57.939       68.368       43.040     3356.952     4674.168     1852.465        1.257        0.494       84.368       44.940        0.284      339.546       12.954      866.964
01/28/2015  14:41:00       70.415      -61.786       18.141       53.557       73.450       46.869     2868.397     5394.874     2196.659        0.978        0.523       93.679       50.122        0.286      339.613       13.066      866.936
01/28/2015  14:42:00       26.119       63.885       20.518       25.164       26.306       42.999      633.244      692.020     1848.949        0.418        0.159       69.018       20.882        0.092      339.515       12.900      866.934
01/28/2015  14:43:00       -2.994       34.963       -1.070       35.581       26.297       26.717     1265.999      691.547      713.808        0.195        0.134       35.091       16.946        0.233      339.707       13.224      866.924
01/28/2015  14:44:00       33.504       93.177      115.014      101.107       86.174       61.716    10222.556     7426.032     3808.903        2.224        1.073       99.017       60.715        0.376      339.815       13.405      866.914
01/28/2015  14:45:00      174.308      119.538       70.484      114.627       64.756       71.406    13139.388     4193.354     5098.887        3.603        1.122      211.359       63.458        0.090      339.754       13.302      866.908
01/28/2015  14:46:00      117.559       79.123       17.843       91.214       60.272       57.749     8319.934     3632.689     3334.981        1.784        0.764      141.706       26.050        0.034      339.762       13.316      866.919
01/28/2015  14:47:00       77.706       72.013       39.967       67.950       63.186       51.715     4617.220     3992.506     2674.392        1.205        0.564      105.944       21.892        0.043      339.875       13.508      866.920
01/28/2015  14:48:00       68.900      114.100        5.279       62.542       80.276       50.228     3911.465     6444.280     2522.861        1.533        0.644      133.290       51.865        0.151      339.794       13.371      866.924
01/28/2015  14:49:00       38.942      229.548      -20.883       56.930       95.610       62.211     3241.058     9141.250     3870.259        3.545        0.813      232.827       62.929        0.073      339.575       12.999      866.912
01/28/2015  14:50:00       90.105      151.861        0.420      110.529       96.940       52.124    12216.665     9397.295     2716.917        2.775        1.217      176.580       41.505        0.055      339.505       12.880      866.907
01/28/2015  14:51:00       94.251       75.713       20.471       62.186       55.859       29.344     3867.058     3120.241      861.096        1.144        0.392      120.895       19.253        0.025      339.561       12.977      866.926
01/28/2015  14:52:00       79.604       78.664        6.904       59.116       52.571       45.516     3494.745     2763.713     2071.718        1.045        0.417      111.914       34.862        0.097      339.702       13.214      866.911
01/28/2015  14:53:00      140.683      138.832       13.647      118.890       75.063       73.454    14134.825     5634.523     5395.434        3.220        1.258      197.651       48.175        0.059      339.684       13.183      866.920
01/28/2015  14:54:00       99.218      102.970        8.028       75.579       72.519       67.596     5712.208     5258.988     4569.213        1.802        0.777      142.993       52.920        0.137      339.668       13.158      866.937
01/28/2015  14:55:00       74.400      114.115        4.410       85.462       78.880       63.194     7303.798     6222.002     3993.431        1.805        0.876      136.226       52.808        0.150      339.521       12.910      866.960
01/28/2015  14:56:00      181.696      108.321       38.594      103.413       62.799       55.055    10694.306     3943.658     3031.064        3.195        0.883      211.534       40.880        0.037      339.599       13.040      866.968
01/28/2015  14:57:00       61.205      143.917      -26.060       80.619       51.737       22.920     6499.425     2676.743      525.305        1.742        0.485      156.391       24.213        0.024      339.472       12.827      866.975
01/28/2015  14:58:00       -4.089      156.373      -19.420       24.223       51.581       22.810      586.730     2660.627      520.306        1.431        0.188      156.426       23.095        0.022      339.473       12.830      866.956
01/28/2015  14:59:00       53.357       39.281       14.144       47.601       43.205       30.375     2265.895     1866.709      922.664        0.482        0.253       66.256       10.654        0.026      339.741       13.283      866.950
01/28/2015  15:00:00       30.757       69.064       47.143       55.222       43.344       38.251     3049.418     1878.698     1463.127        0.716        0.320       75.603       32.052        0.180      339.983       13.690      866.948
01/28/2015  15:01:00       59.928       62.096       36.099       72.406       52.294       44.757     5242.658     2734.671     2003.171        0.936        0.499       86.297       33.298        0.149      339.997       13.713      866.940
01/28/2015  15:02:00      126.825      124.869       21.779       67.000       55.012       55.511     4488.991     3026.301     3081.481        2.137        0.530      177.980       40.329        0.051      339.536       12.933      866.944
01/28/2015  15:03:00       58.673       80.245       -1.893       47.100       41.409       34.980     2218.412     1714.725     1223.631        0.752        0.258       99.407       22.292        0.050      339.584       13.017      866.931
01/28/2015  15:04:00      154.489       88.905       54.358       87.383       87.995       60.084     7635.827     7743.087     3610.074        2.685        0.949      178.244       28.412        0.025      339.707       13.223      866.938
01/28/2015  15:05:00      119.956       92.029       36.123       84.657       70.265       55.053     7166.887     4937.204     3030.786        1.965        0.757      151.191       32.119        0.045      339.737       13.274      866.944
01/28/2015  15:06:00      160.238      100.572       79.217       97.385       74.978       61.961     9483.806     5621.641     3839.105        3.050        0.947      189.185       48.416        0.065      339.719       13.242      866.934
01/28/2015  15:07:00      156.360       64.579        6.129       99.229       72.998       57.690     9846.309     5328.768     3328.181        2.358        0.925      169.171       32.102        0.036      339.752       13.298      866.933
01/28/2015  15:08:00      139.224       56.165       68.219      101.450       87.408       68.431    10292.042     7640.215     4682.847        2.490        1.131      150.126       64.385        0.184      339.819       13.411      866.934
01/28/2015  15:09:00       85.622       82.573      123.928       76.101      102.805       55.697     5791.419    10568.779     3102.150        2.448        0.973      118.951       56.275        0.224      339.803       13.384      866.936
01/28/2015  15:10:00      131.011       87.071       96.728      105.893       83.014       74.906    11213.367     6891.367     5610.896        2.890        1.186      157.306       61.211        0.151      339.733       13.266      866.917
01/28/2015  15:11:00       74.779       60.536      127.222      103.889      117.703       74.955    10792.917    13854.039     5618.281        2.785        1.513       96.211       80.643        0.703      339.880       13.514      866.910
01/28/2015  15:12:00       68.606       54.923       81.394       86.630       90.560       69.688     7504.737     8201.029     4856.483        1.745        1.028       87.882       68.297        0.604      339.957       13.645      866.905
01/28/2015  15:13:00      161.157      117.766       53.409      135.340       96.488       65.596    18317.014     9309.941     4302.876        3.731        1.596      199.601       45.395        0.052      339.846       13.457      866.925
01/28/2015  15:14:00      285.170      165.906       54.461      112.501      100.514       71.026    12656.494    10103.122     5044.671        6.980        1.390      329.919       57.167        0.030      339.623       13.080      866.936
01/28/2015  15:15:00      170.683      102.699       66.385       94.480       66.117       67.168     8926.418     4371.449     4511.604        3.095        0.890      199.198       28.468        0.020      339.727       13.256      866.956
01/28/2015  15:16:00       70.722       81.714       51.428       77.957       71.370       62.444     6077.328     5093.623     3899.254        1.469        0.754      108.069       41.586        0.148      339.832       13.435      866.965
01/28/2015  15:17:00      234.707      166.608       91.174      149.937       90.615       97.159    22481.093     8211.090     9439.935        6.564        2.007      287.829       88.043        0.094      339.606       13.050      866.959
01/28/2015  15:18:00      124.493      102.055        5.090      104.006       67.523       56.901    10817.315     4559.390     3237.739        2.227        0.931      160.978       41.757        0.067      339.460       12.807      866.978
01/28/2015  15:19:00      131.816       92.950       10.501       96.241       67.526       47.271     9262.378     4559.799     2234.519        2.109        0.803      161.293       18.407        0.013      339.539       12.938      866.968
01/28/2015  15:20:00      159.836      108.059       21.218       78.009       58.423       61.242     6085.471     3413.201     3750.526        2.546        0.662      192.937       27.230        0.020      339.695       13.203      866.961
01/28/2015  15:21:00      206.582      169.622       22.318      138.766       93.190       91.941    19255.996     8684.448     8453.172        5.416        1.820      267.297       64.257        0.058      339.693       13.198      866.940
01/28/2015  15:22:00      240.289      147.511       56.800      116.880       95.660       91.548    13661.035     9150.827     8381.097        5.695        1.560      281.954       50.730        0.032      339.623       13.080      866.938
01/28/2015  15:23:00      159.987       99.534       91.044      104.565       87.495       83.736    10933.871     7655.435     7011.656        3.469        1.280      188.422       56.879        0.091      339.665       13.152      866.933
01/28/2015  15:24:00      227.448      132.240       72.335      125.194       78.437       85.266    15673.469     6152.378     7270.266        5.177        1.455      263.097       71.085        0.073      339.516       12.898      866.927
01/28/2015  15:25:00      192.262      114.683       14.480      109.696       67.123       51.933    12033.174     4505.536     2697.043        3.478        0.962      223.868       28.346        0.016      339.524       12.915      866.933
01/28/2015  15:26:00      104.578       61.282       26.619       53.777       50.510       42.285     2891.995     2551.240     1788.021        1.131        0.362      121.211       25.780        0.045      339.636       13.106      866.924
01/28/2015  15:27:00      122.046       51.748       45.257       67.639       76.884       48.159     4575.092     5911.101     2319.318        1.621        0.640      132.563       41.720        0.099      339.819       13.414      866.931
01/28/2015  15:28:00       45.727       -8.908       60.745       70.355      100.473       67.529     4949.830    10094.787     4560.195        1.273        0.980       46.586       67.680        2.111      339.905       13.558      866.909
01/28/2015  15:29:00       84.945       74.726       81.798      103.506       77.862       71.280    10713.491     6062.503     5080.853        2.067        1.093      113.135       64.322        0.323      339.827       13.426      866.902
01/28/2015  15:30:00       97.860      103.908       72.826       96.646       79.654       65.167     9340.450     6344.782     4246.771        2.280        0.997      142.735       47.709        0.112      339.879       13.515      866.898
01/28/2015  15:31:00      161.822      164.480       -3.379      117.447       99.030       80.828    13793.709     9806.863     6533.123        4.169        1.507      230.738       52.907        0.053      339.754       13.300      866.887
01/28/2015  15:32:00      223.497      179.020       21.264      124.525       90.967       82.709    15506.480     8275.085     6840.758        5.653        1.531      286.355       58.181        0.041      339.510       12.889      866.904
01/28/2015  15:33:00      138.656      131.416       12.197      113.907       87.949       76.919    12974.753     7735.054     5916.462        3.163        1.331      191.039       53.581        0.079      339.629       13.091      866.892
01/28/2015  15:34:00       72.390      133.494       11.741       86.915      115.607       68.633     7554.174    13364.904     4710.525        2.441        1.281      151.859       61.713        0.165      339.593       13.031      866.879
01/28/2015  15:35:00       91.920       63.309       46.370       62.185       51.494       54.557     3866.923     2651.671     2976.431        1.205        0.475      111.613       38.739        0.120      339.729       13.263      866.887
01/28/2015  15:36:00      171.177      165.720      110.673      110.885       89.752       95.429    12295.503     8055.352     9106.619        4.923        1.473      238.253       78.877        0.110      339.735       13.268      866.887
01/28/2015  15:37:00       91.757       78.726       48.401      105.024       76.058       53.842    11029.968     5784.887     2899.005        1.833        0.986      120.901       30.882        0.065      339.723       13.250      866.897
01/28/2015  15:38:00      138.369      150.293      131.471      142.496      108.128       96.290    20304.984    11691.763     9271.704        5.014        2.063      204.289       78.998        0.150      339.662       13.145      866.893
01/28/2015  15:39:00      216.144      103.936      101.863      151.409      113.186      100.854    22924.807    12811.101    10171.601        5.689        2.295      239.835       81.465        0.115      339.461       12.808      866.893
01/28/2015  15:40:00      199.825      113.028       63.182      123.955       98.195       87.324    15364.904     9642.204     7625.514        4.466        1.632      229.576       74.238        0.105      339.535       12.932      866.886
01/28/2015  15:41:00      203.915      103.778       81.343      131.394      123.995      107.475    17264.262    15374.637    11550.890        5.157        2.209      228.804       83.609        0.134      339.528       12.919      866.875
01/28/2015  15:42:00      247.432      100.021       57.266      126.510       92.336       77.413    16004.780     8525.871     5992.754        5.251        1.526      266.884       59.380        0.050      339.601       13.043      866.887
01/28/2015  15:43:00      187.344      129.949       58.583      163.089       95.478       93.643    26598.033     9116.102     8768.937        4.994        2.224      228.001       76.447        0.112      339.574       12.998      866.897
01/28/2015  15:44:00      159.851      108.656       77.833      113.127       82.950       72.791    12797.709     6880.690     5298.600        3.419        1.249      193.284       56.467        0.085      339.635       13.101      866.903
01/28/2015  15:45:00      177.753       97.522       52.475      111.872       76.609       59.381    12515.272     5868.873     3526.077        3.288        1.096      202.748       43.494        0.046      339.712       13.233      866.924
01/28/2015  15:46:00      238.872      152.143       43.081      129.794       89.355       75.748    16846.427     7984.313     5737.808        5.631        1.528      283.209       60.485        0.046      339.636       13.102      866.934
01/28/2015  15:47:00      152.839      121.466       91.266      135.566       79.144       87.777    18378.157     6263.789     7704.825        3.939        1.617      195.227       78.774        0.163      339.640       13.108      866.933
01/28/2015  15:48:00      228.846      122.840       63.345      146.596      125.500       85.532    21490.298    15750.327     7315.664        5.801        2.228      259.731       70.621        0.074      339.559       12.972      866.931
01/28/2015  15:49:00      180.914       92.573      103.009      145.187      101.451       83.641    21079.280    10292.255     6995.739        4.513        1.918      203.223       68.685        0.114      339.573       12.996      866.912
01/28/2015  15:50:00      254.907      180.063       44.250      140.865       97.525       78.798    19843.018     9511.084     6209.048        6.745        1.778      312.090       35.094        0.013      339.449       12.786      866.922
01/28/2015  15:51:00      232.715      148.305        9.754       98.087       74.597       56.461     9621.011     5564.766     3187.836        4.731        0.919      275.954       32.301        0.014      339.497       12.868      866.913
01/28/2015  15:52:00      147.030       82.877       40.025      129.534       75.608       56.022    16779.000     5716.627     3138.410        2.786        1.282      168.779       36.384        0.046      339.612       13.064      866.921
01/28/2015  15:53:00      217.677      121.918       24.788      133.332      120.955       69.832    17777.478    14630.195     4876.543        5.007        1.864      249.494       47.206        0.036      339.518       12.904      866.947
01/28/2015  15:54:00      155.485       57.560       47.180       90.272       79.009       68.909     8148.980     6242.411     4748.463        2.442        0.957      165.797       57.707        0.121      339.555       12.966      866.945
01/28/2015  15:55:00      135.668       66.503       58.385      105.996       77.286       69.288    11235.107     5973.155     4800.782        2.412        1.100      151.091       53.529        0.126      339.569       12.990      866.945
01/28/2015  15:56:00      195.348      114.829       44.552      104.713       94.602       59.158    10964.915     8949.479     3499.701        3.837        1.171      226.598       44.822        0.039      339.530       12.924      866.955
01/28/2015  15:57:00      151.628      130.301       55.083       69.661       65.731       62.433     4852.674     4320.568     3897.849        2.804        0.654      199.924       45.958        0.053      339.558       12.970      866.960
01/28/2015  15:58:00      105.490       49.234       15.365       64.077       61.316       44.555     4105.810     3759.673     1985.170        1.182        0.493      116.414       37.244        0.102      339.601       13.046      866.953
01/28/2015  15:59:00      114.353       77.576       47.863       63.288       43.010       42.804     4005.365     1849.826     1832.200        1.454        0.384      138.183       37.619        0.074      339.607       13.056      866.961
01/28/2015  16:00:00      179.031       67.639       55.002      179.314       96.588       98.393    32153.605     9329.332     9681.122        4.540        2.558      191.382       93.947        0.241      339.546       12.952      866.962
01/28/2015  16:01:00      198.867      118.117       98.463      129.544      106.946       89.388    16781.667    11437.519     7990.153        4.970        1.810      231.300       74.285        0.103      339.441       12.771      866.978
01/28/2015  16:02:00      176.148      120.762       89.158      120.440       91.241       93.282    14505.690     8324.921     8701.458        4.254        1.577      213.568       83.088        0.151      339.500       12.871      866.975
01/28/2015  16:03:00      211.688       73.694      100.966      155.184      133.582      102.515    24082.147    17844.230    10509.316        5.643        2.622      224.149       89.549        0.160      339.458       12.804      866.982
01/28/2015  16:04:00      196.290      142.390      113.246      139.113       99.720       87.550    19352.293     9944.174     7665.012        5.429        1.848      242.497       76.800        0.100      339.429       12.753      866.996
01/28/2015  16:05:00      195.404       40.584       57.906      148.443       91.514       77.317    22035.444     8374.882     5977.959        3.978        1.819      199.574       48.820        0.060      339.424       12.744      866.999
01/28/2015  16:06:00      151.151      101.913       83.711       99.945       93.023       80.375     9989.064     8653.332     6460.157        3.267        1.255      182.299       70.262        0.149      339.506       12.882      866.992
01/28/2015  16:07:00       95.951      115.047      126.217      107.559       86.587       68.463    11568.945     7497.384     4687.216        3.106        1.188      149.807       51.681        0.119      339.505       12.881      866.998
01/28/2015  16:08:00      260.870      136.149       26.203      120.600       96.170       79.983    14544.367     9248.670     6397.253        5.873        1.510      294.262       57.684        0.038      339.407       12.716      867.006
01/28/2015  16:09:00      179.849      149.097      139.142      126.869      118.369      112.071    16095.747    14011.110    12559.844        5.829        2.133      233.615       88.387        0.143      339.373       12.658      867.001
01/28/2015  16:10:00      197.879      161.035      127.347      131.471      112.662       84.270    17284.499    12692.676     7101.433        5.919        1.854      255.124       77.003        0.091      339.347       12.614      866.991
01/28/2015  16:11:00      214.214       97.573       74.895      131.669      110.853       94.700    17336.648    12288.476     8968.026        4.980        1.930      235.389       60.277        0.066      339.383       12.676      866.991
01/28/2015  16:12:00      214.500      149.057      106.649      116.050       94.808       98.821    13467.701     8988.582     9765.560        5.591        1.611      261.206       73.056        0.078      339.380       12.670      866.985
01/28/2015  16:13:00      220.784      163.158       67.528      109.087       76.441       84.697    11899.882     5843.301     7173.579        5.242        1.246      274.529       64.331        0.055      339.384       12.677      866.999
01/28/2015  16:14:00      189.025      131.949       43.027       75.475       54.800       52.351     5696.468     3003.078     2740.583        3.321        0.572      230.524       27.735        0.014      339.382       12.673      866.995
01/28/2015  16:15:00      196.873      106.118       59.006      123.405       88.772       67.568    15228.827     7880.508     4565.471        4.058        1.384      223.652       43.848        0.038      339.401       12.706      866.993
01/28/2015  16:16:00      321.887      217.556       58.769       90.714       92.457       63.469     8229.052     8548.315     4028.298        8.760        1.040      388.513       35.464        0.008      339.376       12.663      866.982
01/28/2015  16:17:00      217.822      108.016       38.218      135.530      117.343       67.371    18368.516    13769.373     4538.885        4.862        1.834      243.133       54.879        0.051      339.363       12.642      866.972
01/28/2015  16:18:00      211.093      136.219       74.686      132.821      119.394       77.979    17641.297    14254.917     6080.674        5.333        1.899      251.229       44.634        0.032      339.317       12.565      866.952
01/28/2015  16:19:00      250.415      168.891       54.609      103.649       86.380       71.979    10743.071     7461.470     5180.953        5.880        1.169      302.046       68.782        0.052      339.310       12.553      866.952
01/28/2015  16:20:00      245.285      129.025       91.551      162.869      115.544       78.606    26526.302    13350.525     6178.850        6.562        2.303      277.150       66.668        0.058      339.299       12.534      866.930
01/28/2015  16:21:00      246.289      121.915       67.565      117.492       84.035       79.412    13804.382     7061.884     6306.205        5.362        1.359      274.812       57.246        0.043      339.308       12.550      866.929
01/28/2015  16:22:00      199.224      115.983       70.065      103.685      113.626       86.263    10750.481    12910.969     7441.320        4.457        1.555      230.527       46.742        0.041      339.272       12.489      866.917
01/28/2015  16:23:00      168.567      110.735       97.611      114.132      104.038       78.843    13026.219    10823.957     6216.203        4.013        1.503      201.685       66.419        0.108      339.273       12.492      866.914
01/28/2015  16:24:00      172.437      104.844      103.280       92.459       89.767       63.925     8548.604     8058.058     4086.469        3.604        1.035      201.809       49.779        0.061      339.278       12.499      866.933
01/28/2015  16:25:00      166.102       71.162       91.643      134.807       97.915       94.113    18172.883     9587.379     8857.314        3.883        1.831      180.704       79.994        0.196      339.267       12.482      866.924
01/28/2015  16:26:00      108.668       54.363       48.811      111.805       78.780       76.593    12500.430     6206.223     5866.418        2.086        1.229      121.507       72.469        0.356      339.305       12.546      866.939
01/28/2015  16:27:00       93.857       96.313       85.163      117.237       80.029       77.866    13744.409     6404.660     6063.068        2.577        1.311      134.482       70.708        0.276      339.317       12.565      866.934
01/28/2015  16:28:00      135.156       93.002       73.348       93.192       75.005       68.155     8684.713     5625.699     4645.085        2.562        0.948      164.063       58.029        0.125      339.315       12.560      866.937
01/28/2015  16:29:00      133.049       55.100       15.816      105.632       81.685       48.727    11158.134     6672.520     2374.352        2.059        1.010      144.008       30.244        0.044      339.300       12.536      866.953
01/28/2015  16:30:00      169.960      126.237       21.477      129.840      101.892       75.143    16858.387    10381.947     5646.469        3.908        1.644      211.712       72.531        0.117      339.237       12.431      866.947
01/28/2015  16:31:00      252.084      163.451       34.362       97.289       82.903       76.615     9465.227     6872.843     5869.888        5.682        1.110      300.438       34.644        0.013      339.204       12.372      866.953
01/28/2015  16:32:00      159.290      100.349       44.785       75.513       67.030       57.298     5702.260     4493.081     3283.030        2.546        0.674      188.264       25.192        0.018      339.214       12.391      866.966
01/28/2015  16:33:00      246.549      163.058       47.844       89.323       68.412       70.037     7978.535     4680.269     4905.165        5.361        0.878      295.591       32.533        0.012      339.173       12.322      866.963
01/28/2015  16:34:00      260.537      131.825       63.375      110.213       86.436       74.260    12146.951     7471.096     5514.530        5.720        1.257      291.988       46.206        0.025      339.147       12.279      866.955
01/28/2015  16:35:00      236.030      141.688       36.895      106.859       85.143       73.828    11418.826     7249.338     5450.603        5.063        1.206      275.292       44.883        0.027      339.143       12.271      866.951
01/28/2015  16:36:00      143.782      123.820       43.038       94.145       48.109       66.551     8863.216     2314.483     4429.095        2.673        0.780      189.749       12.825        0.005      339.122       12.237      866.947
01/28/2015  16:37:00      120.440       44.448       29.604       79.589       68.951       60.975     6334.482     4754.245     3717.928        1.608        0.740      128.380       37.209        0.084      339.118       12.231      866.944
01/28/2015  16:38:00      173.079      104.587       51.547      109.194       67.984       58.730    11923.299     4621.856     3449.214        3.177        1.000      202.225       46.235        0.052      339.099       12.197      866.950
01/28/2015  16:39:00      217.812      155.077       42.199      104.604       79.268       72.803    10941.923     6283.362     5300.293        4.789        1.126      267.378       56.741        0.045      339.060       12.133      866.943
01/28/2015  16:40:00      307.575      181.994       57.852      102.742       94.589       70.983    10555.966     8947.122     5038.604        7.780        1.227      357.385       51.758        0.021      339.071       12.150      866.944
01/28/2015  16:41:00      196.976      143.356       46.510      144.462       93.531       68.558    20869.400     8747.997     4700.170        4.791        1.716      243.619       70.152        0.083      339.068       12.146      866.939
01/28/2015  16:42:00      201.847      101.123       40.154       84.093       70.351       45.759     7071.677     4949.227     2093.849        3.335        0.706      225.760       12.024        0.003      339.065       12.140      866.954
01/28/2015  16:43:00      155.622       86.251       26.753       82.834       58.834       48.729     6861.525     3461.457     2374.536        2.253        0.635      177.926       16.911        0.009      339.042       12.101      866.953
01/28/2015  16:44:00      186.302      116.225       51.496       59.467       57.600       49.550     3536.363     3317.806     2455.164        3.009        0.465      219.583       36.378        0.027      339.017       12.060      866.969
01/28/2015  16:45:00      147.654       68.534       33.597       89.050       61.593       58.316     7929.988     3793.671     3400.700        2.137        0.756      162.784       40.396        0.062      338.987       12.011      866.969
01/28/2015  16:46:00      105.742       56.193       72.264       99.612       66.925       57.292     9922.604     4478.914     3282.429        1.862        0.884      119.745       59.422        0.246      338.988       12.013      866.975
01/28/2015  16:47:00      166.331       71.325       52.884      120.895       86.255       80.318    14615.652     7439.937     6450.981        3.202        1.425      180.978       67.376        0.139      338.992       12.018      866.988
01/28/2015  16:48:00      222.951      131.724       94.815      147.740       97.606       79.143    21827.036     9526.902     6263.681        5.683        1.881      258.957       57.076        0.049      338.982       12.001      866.992
01/28/2015  16:49:00      135.185       96.263       68.998      139.672       77.644       80.303    19508.152     6028.549     6448.627        3.214        1.599      165.957       59.781        0.130      338.955       11.958      866.999
01/28/2015  16:50:00      130.681       61.157       78.466      114.599       89.784       72.282    13132.949     8061.096     5224.727        2.669        1.321      144.283       70.449        0.238      338.948       11.945      867.001
01/28/2015  16:51:00      135.882       81.462       51.218       75.499       74.151       56.936     5700.131     5498.366     3241.761        2.108        0.722      158.430       38.932        0.060      338.927       11.909      867.030
01/28/2015  16:52:00      200.557       94.200       59.568       86.468       71.923       69.813     7476.769     5172.975     4873.893        3.508        0.876      221.578       40.770        0.034      338.881       11.830      867.033
01/28/2015  16:53:00      215.629      142.982       52.384      123.294      104.035       78.954    15201.483    10823.335     6233.774        5.097        1.613      258.727       76.188        0.087      338.884       11.836      867.036
01/28/2015  16:54:00      248.450      144.448       57.148      123.526       95.481       71.594    15258.734     9116.572     5125.715        5.767        1.475      287.389       60.568        0.044      338.852       11.781      867.059
01/28/2015  16:55:00      191.136      119.400       47.775      126.788      111.949       80.353    16075.256    12532.545     6456.543        4.406        1.753      225.364       47.433        0.044      338.855       11.787      867.066
01/28/2015  16:56:00      151.214      115.643       79.660      106.651       77.672       53.618    11374.482     6032.964     2874.854        3.143        1.014      190.366       51.608        0.073      338.836       11.756      867.070
01/28/2015  16:57:00      233.386      115.234       50.870      122.628      101.961       66.876    15037.541    10396.063     4472.449        5.012        1.495      260.285       36.450        0.020      338.832       11.748      867.068
01/28/2015  16:58:00      214.033      137.337       42.206       76.293       75.606       66.440     5820.555     5716.269     4414.322        4.120        0.798      254.306       43.662        0.029      338.783       11.665      867.075
01/28/2015  16:59:00      192.648      128.438       80.210       95.323       84.556       84.509     9086.498     7149.638     7141.772        4.171        1.169      231.537       56.104        0.059      338.764       11.636      867.088
01/28/2015  17:00:00      203.681      109.337       40.161      100.711       91.479       70.750    10142.645     8368.471     5005.624        3.928        1.176      231.173       59.093        0.065      338.755       11.619      867.084
01/28/2015  17:01:00      169.015       75.119       16.175       90.980       69.050       62.938     8277.314     4767.943     3961.227        2.574        0.850      184.957       58.398        0.100      338.743       11.600      867.097
01/28/2015  17:02:00      138.023       75.524       71.991       95.126       70.958       60.037     9049.006     5035.023     3604.441        2.381        0.884      157.335       44.308        0.079      338.733       11.583      867.102
01/28/2015  17:03:00      206.288      107.580       36.794      110.662       74.417       65.632    12246.002     5537.934     4307.542        3.878        1.105      232.655       52.783        0.051      338.713       11.548      867.108
01/28/2015  17:04:00      298.859      138.348       36.732      123.358       86.139       74.701    15217.081     7420.012     5580.299        6.901        1.411      329.327       55.339        0.028      338.735       11.585      867.113
01/28/2015  17:05:00      184.523      119.000       64.164      141.203       82.099       60.351    19938.173     6740.323     3642.249        4.132        1.516      219.567       70.277        0.102      338.685       11.502      867.110
01/28/2015  17:06:00      226.380      113.434       67.716      118.913       92.950       75.049    14140.242     8639.631     5632.369        4.855        1.421      253.209       60.209        0.057      338.711       11.545      867.119
01/28/2015  17:07:00      199.047      114.131       68.632      101.519       77.839       76.884    10306.182     6058.861     5911.093        3.981        1.114      229.446       53.678        0.055      338.719       11.559      867.115
01/28/2015  17:08:00      136.167       47.163       23.828       87.318       68.019       52.691     7624.374     4626.589     2776.382        1.818        0.751      144.104       44.806        0.097      338.668       11.475      867.124
01/28/2015  17:09:00      168.114       69.367       53.677      137.989       77.155       81.035    19040.988     5952.905     6566.680        3.375        1.578      181.863       55.215        0.092      338.680       11.492      867.108
01/28/2015  17:10:00      233.878      164.129       54.595       87.674       63.129       66.794     7686.811     3985.291     4461.475        5.037        0.807      285.723       42.498        0.022      338.663       11.464      867.111
01/28/2015  17:11:00      124.243       90.362       67.990      114.401       86.945       63.272    13087.532     7559.401     4003.366        2.643        1.233      153.628       56.375        0.135      338.674       11.485      867.111
01/28/2015  17:12:00      182.083       80.333       43.993      141.510       76.379       65.356    20025.105     5833.703     4271.418        3.583        1.507      199.017       68.874        0.120      338.632       11.414      867.109
01/28/2015  17:13:00      196.119      114.908       52.307      173.236       94.738       84.435    30010.610     8975.270     7129.234        5.025        2.306      227.303       85.011        0.140      338.614       11.383      867.117
01/28/2015  17:14:00      246.657      119.681       68.044      138.179      119.800       89.361    19093.501    14352.149     7985.311        6.061        2.072      274.160       73.799        0.072      338.617       11.387      867.109
01/28/2015  17:15:00      235.224      138.968       66.437       81.760       68.816       64.918     6684.777     4735.580     4214.378        4.734        0.782      273.208       40.953        0.022      338.619       11.391      867.126
01/28/2015  17:16:00      207.391       95.224       44.318      110.175       78.057       52.503    12138.631     6092.925     2756.570        3.751        1.049      228.208       39.175        0.029      338.605       11.369      867.133
01/28/2015  17:17:00      224.205      106.170       59.812       94.412       87.605       71.705     8913.688     7674.687     5141.630        4.342        1.087      248.072       60.417        0.059      338.580       11.327      867.142
01/28/2015  17:18:00      158.672       71.653       32.798       67.371       88.890       45.989     4538.794     7901.439     2115.031        2.297        0.728      174.101       35.017        0.040      338.560       11.294      867.144
01/28/2015  17:19:00      122.455       71.754       39.251       93.182       69.906       53.610     8682.921     4886.803     2874.025        1.906        0.822      141.929       32.953        0.054      338.526       11.237      867.148
01/28/2015  17:20:00      122.743       75.013       63.604       73.143       62.888       54.645     5349.921     3954.894     2986.078        1.851        0.615      143.850       31.111        0.047      338.505       11.201      867.155
01/28/2015  17:21:00      130.151       97.705       69.825      117.250       85.830       61.658    13747.536     7366.737     3801.667        2.813        1.246      162.744       53.721        0.109      338.478       11.153      867.146
01/28/2015  17:22:00      230.664       97.258       35.499      118.797       83.929       69.852    14112.675     7044.066     4879.282        4.498        1.302      250.330       59.132        0.056      338.492       11.176      867.144
01/28/2015  17:23:00      162.568       95.405       68.002      127.573       78.952       72.944    16274.751     6233.384     5320.878        3.399        1.391      188.496       64.076        0.116      338.494       11.181      867.143
01/28/2015  17:24:00      152.041       76.847       56.252       79.801       70.068       66.866     6368.189     4909.457     4471.097        2.396        0.787      170.358       40.609        0.057      338.471       11.143      867.159
01/28/2015  17:25:00      162.700       93.444       43.591       92.750       69.904       57.827     8602.519     4886.590     3343.951        2.697        0.842      187.625       41.442        0.049      338.430       11.073      867.174
01/28/2015  17:26:00      202.628      111.198       93.357      108.418       77.953       68.964    11754.466     6076.593     4756.017        4.236        1.129      231.134       63.585        0.076      338.471       11.142      867.167
01/28/2015  17:27:00      154.845       89.367       47.197       68.650       49.407       44.131     4712.877     2441.031     1947.535        2.164        0.455      178.784       19.389        0.012      338.425       11.065      867.178
01/28/2015  17:28:00      121.125       90.058       70.966       86.528       75.348       54.432     7487.078     5677.302     2962.892        2.197        0.806      150.936       44.132        0.085      338.412       11.044      867.179
01/28/2015  17:29:00      125.986       52.305       60.774      108.270       66.776       59.043    11722.309     4459.064     3486.085        2.098        0.983      136.412       56.471        0.171      338.408       11.037      867.186
01/28/2015  17:30:00       39.906       81.340       84.804       52.436       46.475       32.637     2749.512     2159.923     1065.180        1.069        0.299       90.602       25.116        0.077      338.356       10.952      867.190
01/28/2015  17:31:00      100.604       52.666       69.017       91.556       67.618       61.428     8382.427     4572.145     3773.439        1.719        0.836      113.556       55.549        0.239      338.379       10.990      867.198
01/28/2015  17:32:00       99.504       97.607       74.210       79.649       70.438       55.419     6343.961     4961.553     3071.247        1.965        0.719      139.384       44.027        0.100      338.334       10.913      867.212
01/28/2015  17:33:00      226.177      130.264       59.458      106.796       68.132       79.330    11405.471     4641.916     6293.284        4.700        1.117      261.007       63.036        0.058      338.365       10.964      867.202
01/28/2015  17:34:00      121.149       51.533       57.678      103.771       74.621       60.339    10768.479     5568.236     3640.829        2.032        0.999      131.654       59.807        0.206      338.317       10.885      867.196
01/28/2015  17:35:00       78.311       86.669       95.442       75.994       71.696       60.555     5775.150     5140.294     3666.879        1.867        0.729      116.808       55.835        0.228      338.302       10.861      867.193
01/28/2015  17:36:00      120.938       95.022       96.394       85.285       59.684       58.637     7273.520     3562.166     3438.339        2.361        0.714      153.802       55.252        0.129      338.307       10.868      867.192
01/28/2015  17:37:00      145.520       47.295       34.539      124.404       78.444       69.189    15476.357     6153.387     4787.142        2.551        1.321      153.013       54.710        0.128      338.298       10.853      867.194
01/28/2015  17:38:00      174.013      100.079      104.085      104.510       82.238       80.423    10922.386     6763.042     6467.899        3.764        1.208      200.740       57.869        0.083      338.299       10.854      867.194
01/28/2015  17:39:00      140.374       81.875       91.668      122.884       94.841       72.527    15100.426     8994.902     5260.208        3.208        1.468      162.506       62.580        0.148      338.265       10.797      867.203
01/28/2015  17:40:00      236.072       96.497       57.360      113.648       99.390       85.156    12915.862     9878.460     7251.624        4.918        1.502      255.033       70.890        0.077      338.319       10.887      867.191
01/28/2015  17:41:00      195.851      101.824       85.255      117.378       85.989       74.845    13777.548     7394.159     5601.844        4.138        1.339      220.739       50.155        0.052      338.267       10.800      867.202
01/28/2015  17:42:00      140.762       64.249       35.495      100.483       58.079       57.829    10096.860     3373.140     3344.234        2.101        0.841      154.731       54.761        0.125      338.242       10.758      867.211
01/28/2015  17:43:00      169.863       48.190       60.595      124.374       78.789       58.564    15468.907     6207.719     3429.769        2.997        1.255      176.567       56.035        0.101      338.244       10.762      867.201
01/28/2015  17:44:00      116.663      110.683      114.791      104.434       84.862       64.446    10906.481     7201.558     4153.289        3.065        1.113      160.813       58.447        0.132      338.212       10.708      867.202
01/28/2015  17:45:00      134.961       84.985       99.414      112.597       70.452       59.644    12678.136     4963.416     3557.357        2.826        1.060      159.490       69.767        0.191      338.216       10.713      867.211
01/28/2015  17:46:00      101.298       81.318      106.531      119.812       88.829       70.389    14354.965     7890.566     4954.567        2.771        1.360      129.900       63.868        0.242      338.205       10.695      867.215
01/28/2015  17:47:00      134.520      108.733      108.455      101.023       92.796       70.882    10205.683     8611.041     5024.239        3.276        1.192      172.970       65.937        0.145      338.182       10.655      867.216
01/28/2015  17:48:00      225.462      128.365       52.971      119.281       75.571       76.417    14228.046     5710.943     5839.576        4.794        1.289      259.443       57.814        0.050      338.188       10.666      867.218
01/28/2015  17:49:00      158.361      123.775      100.999      101.262       83.775       71.768    10253.978     7018.263     5150.673        3.651        1.121      200.994       62.649        0.097      338.172       10.639      867.229
01/28/2015  17:50:00       79.304       67.645       48.372       87.141       71.357       60.846     7593.535     5091.796     3702.181        1.479        0.819      104.235       54.446        0.273      338.099       10.518      867.233
01/28/2015  17:51:00       69.318       88.802       87.732       80.483       75.850       58.641     6477.542     5753.153     3438.771        1.803        0.783      112.653       49.084        0.190      338.077       10.484      867.240
01/28/2015  17:52:00      178.850       97.947       63.545       75.540       61.924       56.972     5706.270     3834.574     3245.825        2.920        0.639      203.914       35.668        0.031      338.102       10.522      867.250
01/28/2015  17:53:00      181.524      105.352       78.701      123.502       84.817       63.300    15252.782     7193.902     4006.931        3.834        1.323      209.881       54.369        0.067      338.119       10.550      867.251
01/28/2015  17:54:00      202.794      114.452       70.770       92.196       79.797       60.305     8500.118     6367.529     3636.683        3.887        0.925      232.862       33.923        0.021      338.092       10.506      867.260
01/28/2015  17:55:00      142.102       68.464       67.143      115.064       85.477       69.917    13239.614     7306.282     4888.350        2.741        1.272      157.735       50.054        0.101      338.093       10.508      867.257
01/28/2015  17:56:00      122.251       64.576       54.343       67.337       62.588       41.781     4534.307     3917.243     1745.689        1.613        0.510      138.258       37.660        0.074      338.037       10.417      867.274
01/28/2015  17:57:00      152.595       77.504       37.550       98.821       58.816       63.218     9765.614     3459.362     3996.571        2.396        0.861      171.149       45.106        0.069      338.034       10.410      867.275
01/28/2015  17:58:00      129.583       57.913       43.692      104.500       87.372       65.073    10920.178     7633.954     4234.479        2.242        1.139      141.935       45.675        0.104      338.065       10.462      867.278
01/28/2015  17:59:00      141.664       79.825       51.187       66.082       61.029       46.497     4366.887     3724.547     2162.000        1.966        0.513      162.606       29.570        0.033      338.015       10.380      867.289
01/28/2015  18:00:00      129.079       57.415       28.124       66.249       60.913       40.886     4388.917     3710.422     1671.661        1.526        0.489      141.272       29.574        0.044      338.001       10.356      867.299
01/28/2015  18:01:00      100.061       48.567       35.666       72.684       41.735       45.470     5282.912     1741.800     2067.537        1.137        0.455      111.225       33.808        0.092      338.004       10.360      867.312
01/28/2015  18:02:00       26.314       51.496       58.227       48.762       39.340       30.958     2377.732     1547.600      958.427        0.581        0.244       57.830       26.697        0.213      337.921       10.223      867.330
01/28/2015  18:03:00       71.030       15.789       31.487       44.046       35.799       25.765     1940.074     1281.559      663.812        0.509        0.194       72.764       21.170        0.085      337.960       10.288      867.350
01/28/2015  18:04:00      103.461       47.742       53.525       57.336       42.712       39.901     3287.429     1824.335     1592.090        1.127        0.335      113.944       23.870        0.044      337.949       10.269      867.376
01/28/2015  18:05:00       79.440       56.154       75.242       83.992       67.135       41.588     7054.613     4507.142     1729.521        1.421        0.665       97.283       45.557        0.219      337.951       10.273      867.401
01/28/2015  18:06:00      101.361       31.139       24.278       65.896       54.792       50.632     4342.258     3002.169     2563.620        1.087        0.495      106.036       48.405        0.208      337.958       10.283      867.424
01/28/2015  18:07:00       60.130       77.668       78.357       42.260       51.745       36.434     1785.912     2677.575     1327.471        1.079        0.290       98.225       33.806        0.118      337.944       10.261      867.439
01/28/2015  18:08:00       96.744       56.643       43.214       51.507       43.304       39.613     2652.998     1875.236     1569.170        1.027        0.305      112.107       27.426        0.060      337.962       10.292      867.461
01/28/2015  18:09:00       75.894       51.461       43.447       69.183       39.136       39.434     4786.277     1531.664     1555.057        0.908        0.394       91.696       44.521        0.236      337.958       10.284      867.464
01/28/2015  18:10:00       78.829       67.038       43.833       41.147       36.646       40.114     1693.096     1342.901     1609.165        0.864        0.232      103.479       33.289        0.103      337.947       10.266      867.463
01/28/2015  18:11:00       69.425       72.307       57.133       48.283       43.674       40.440     2331.295     1907.422     1635.404        0.959        0.294      100.240       16.536        0.027      337.971       10.306      867.466
01/28/2015  18:12:00       78.378       68.347       56.674       70.127       36.303       39.414     4917.857     1317.881     1553.483        1.091        0.389      103.992       40.161        0.149      337.971       10.307      867.482
01/28/2015  18:13:00       78.660       51.009       51.609       25.896       25.297       28.421      670.597      639.945      807.726        0.679        0.106       93.752       16.660        0.032      337.953       10.276      867.492
01/28/2015  18:14:00       48.826       -1.561       17.918       48.699       36.043       27.486     2371.585     1299.062      755.505        0.357        0.221       48.851       25.830        0.280      337.900       10.187      867.499
01/28/2015  18:15:00       89.516       54.691       24.915       26.314       15.523       16.103      692.448      240.977      259.311        0.641        0.060      104.901       13.607        0.017      337.873       10.140      867.510
01/28/2015  18:16:00       83.906       37.054       13.242       17.672       18.937       15.840      312.305      358.610      250.893        0.476        0.046       91.724        9.782        0.011      337.854       10.108      867.509
01/28/2015  18:17:00       90.085       45.865       14.321       40.416       26.181       30.499     1633.488      685.430      930.215        0.684        0.162      101.088       18.826        0.035      337.887       10.165      867.515
01/28/2015  18:18:00       80.172       21.824       17.008       43.439       25.787       25.830     1886.915      664.972      667.172        0.521        0.161       83.089       18.173        0.048      337.937       10.249      867.512
01/28/2015  18:19:00       93.387       36.357       21.619       43.737       30.446       26.040     1912.920      926.940      678.103        0.701        0.176      100.214       21.669        0.047      337.905       10.195      867.507
01/28/2015  18:20:00       67.345       43.672       26.369       48.544       30.442       28.596     2356.499      926.687      817.713        0.562        0.205       80.265       29.012        0.131      337.855       10.110      867.501
01/28/2015  18:21:00       63.969       24.792       24.676       21.968       27.088       26.451      482.609      733.762      699.681        0.362        0.096       68.605       12.413        0.033      337.833       10.074      867.509
01/28/2015  18:22:00       66.792       45.591       14.332       21.919       18.528       16.995      480.425      343.278      288.823        0.393        0.056       80.869       12.965        0.026      337.823       10.059      867.506
01/28/2015  18:23:00       79.043       41.974       16.497       18.804       14.824       15.163      353.594      219.741      229.923        0.454        0.040       89.496       11.314        0.016      337.810       10.036      867.510
01/28/2015  18:24:00       81.632       48.181       11.926       23.164       19.655       16.410      536.586      386.302      269.296        0.516        0.060       94.790       12.055        0.016      337.854       10.111      867.520
01/28/2015  18:25:00       80.200       50.708       13.259       18.342       16.254       13.381      336.417      264.207      179.064        0.498        0.039       94.886        8.985        0.009      337.841       10.089      867.521
01/28/2015  18:26:00       68.391       32.008        3.486       27.592       24.047       16.321      761.337      578.238      266.386        0.366        0.080       75.510       13.062        0.030      337.793       10.005      867.531
01/28/2015  18:27:00       79.724       47.022       17.946       23.355       20.952       15.883      545.443      439.002      252.283        0.506        0.062       92.558       13.258        0.021      337.854       10.110      867.542
01/28/2015  18:28:00       69.642       45.267        8.342       13.681       13.376       15.304      187.171      178.931      234.214        0.378        0.030       83.061        9.898        0.014      337.850       10.103      867.540
01/28/2015  18:29:00       56.703       30.452       10.550       16.283       15.730       13.078      265.140      247.423      171.028        0.247        0.034       64.363       11.706        0.033      337.802       10.022      867.540
01/28/2015  18:30:00       51.620       16.629        3.665       25.765       15.167       12.509      663.820      230.034      156.476        0.200        0.053       54.232        6.599        0.015      337.767        9.962      867.558
01/28/2015  18:31:00       59.391       30.568        4.837       24.708       20.955       13.284      610.461      439.125      176.475        0.286        0.061       66.796        7.730        0.013      337.704        9.858      867.564
01/28/2015  18:32:00       77.832       53.629        3.810       13.529       11.922        8.809      183.025      142.123       77.593        0.468        0.020       94.520        7.388        0.006      337.742        9.921      867.571
01/28/2015  18:33:00       64.571       39.228        2.683       13.604       11.221        7.064      185.075      125.904       49.897        0.304        0.018       75.553        3.147        0.002      337.769        9.965      867.578
01/28/2015  18:34:00       46.163       26.511        2.767       16.670       17.526        8.916      277.878      307.156       79.489        0.175        0.033       53.234        7.495        0.020      337.750        9.934      867.584
01/28/2015  18:35:00       44.580       24.082        4.212       12.877       16.390       12.141      165.815      268.647      147.408        0.158        0.029       50.669       10.238        0.041      337.745        9.927      867.597
01/28/2015  18:36:00       46.329       35.744        5.182       25.040       16.252       14.856      627.005      264.114      220.691        0.228        0.056       58.515        6.697        0.013      337.673        9.806      867.605
01/28/2015  18:37:00       44.001       39.905        1.905       25.884       21.247       23.696      669.989      451.435      561.515        0.261        0.084       59.401       16.699        0.079      337.659        9.782      867.611
01/28/2015  18:38:00       76.706       52.597       10.491       23.237       21.918       18.865      539.968      480.400      355.882        0.507        0.069       93.007       12.174        0.017      337.713        9.873      867.616
01/28/2015  18:39:00       81.705       52.577       11.738       23.250       25.127       17.006      540.583      631.387      289.216        0.552        0.073       97.160        5.144        0.003      337.682        9.821      867.637
01/28/2015  18:40:00       63.864       48.984       13.149       21.417       16.566       16.782      458.670      274.424      281.649        0.383        0.051       80.487       11.513        0.020      337.675        9.810      867.647
01/28/2015  18:41:00       36.329       41.045       -1.499       23.519       20.211       17.070      553.157      408.465      291.373        0.213        0.063       54.813       13.277        0.059      337.637        9.745      867.644
01/28/2015  18:42:00       73.187       45.895       12.680       32.783       16.865       19.883     1074.717      284.430      395.325        0.469        0.088       86.387       18.857        0.048      337.645        9.760      867.651
01/28/2015  18:43:00       78.842       38.749       13.495       19.207       19.554       15.486      368.923      382.375      239.816        0.445        0.050       87.849       13.037        0.022      337.931       10.239      867.657
01/28/2015  18:44:00       20.775       50.008       -2.054       17.772       18.320       13.735      315.835      335.641      188.659        0.189        0.042       54.152       12.681        0.055      337.756        9.946      867.671
01/28/2015  18:45:00       20.802       37.935        0.921       19.828       12.940       13.710      393.156      167.443      187.957        0.131        0.037       43.264       11.724        0.073      337.767        9.964      867.680
01/28/2015  18:46:00       -6.444       45.018       -5.600       12.635       18.449       10.286      159.649      340.355      105.802        0.135        0.030       45.477        5.756        0.016      337.673        9.806      867.675
01/28/2015  18:47:00      -29.708       53.141      -11.695       17.599       13.657        9.237      309.737      186.517       85.321        0.221        0.029       60.882        4.206        0.005      337.729        9.900      867.664
01/28/2015  18:48:00       -6.051       76.943       -6.309       11.396       17.916        9.463      129.858      320.993       89.551        0.327        0.027       77.181        2.568        0.001      337.720        9.884      867.665
01/28/2015  18:49:00       10.062       92.025      -17.202       12.276       13.364        8.016      150.712      178.591       64.255        0.463        0.020       92.574        5.647        0.004      337.677        9.814      867.678
01/28/2015  18:50:00       10.759      115.433      -17.217       15.634       20.425       10.458      244.409      417.174      109.371        0.725        0.039      115.933        9.069        0.006      337.639        9.750      867.682
01/28/2015  18:51:00       -0.998      151.011      -22.901       16.623       21.429       12.138      276.325      459.197      147.330        1.211        0.044      151.015       11.517        0.006      337.761        9.953      867.686
01/28/2015  18:52:00      -15.886      128.775      -20.295       22.250       27.466       12.429      495.047      754.371      154.482        0.933        0.070      129.751       11.005        0.007      337.714        9.875      867.694
01/28/2015  18:53:00      -16.793      136.087      -16.659       20.495       18.462       10.820      420.056      340.843      117.076        0.998        0.044      137.119       10.603        0.006      337.675        9.810      867.703
01/28/2015  18:54:00        5.272      140.402      -25.638       18.357       26.180        8.126      336.979      685.394       66.029        1.074        0.054      140.501        8.009        0.003      337.629        9.733      867.718
01/28/2015  18:55:00       -8.062       93.595      -15.193       22.886       20.346       10.769      523.768      413.960      115.977        0.505        0.053       93.942        9.767        0.011      337.592        9.670      867.727
01/28/2015  18:56:00      -21.189      135.731      -23.045       20.234       21.771       13.971      409.396      473.958      195.188        1.024        0.054      137.375       12.677        0.009      337.639        9.750      867.733
01/28/2015  18:57:00      -16.830      125.979      -17.581       21.645       14.125       11.457      468.506      199.527      131.255        0.863        0.040      127.098       10.863        0.007      337.626        9.727      867.728
01/28/2015  18:58:00      -21.448      113.976      -19.407       15.578       19.717       10.000      242.679      388.755      100.000        0.728        0.037      115.977        7.014        0.004      337.648        9.764      867.726
01/28/2015  18:59:00        6.892       86.265      -10.464       19.135       21.995       10.432      366.132      483.776      108.835        0.428        0.048       86.539        9.199        0.011      337.599        9.682      867.724
01/28/2015  19:00:00       23.455      101.947      -16.732       16.536       14.512       11.305      273.432      210.594      127.806        0.592        0.031      104.610        7.524        0.005      337.614        9.706      867.727
01/28/2015  19:01:00       20.043       74.601       -8.816       18.154       23.507       15.339      329.557      552.597      235.300        0.358        0.056       77.247        8.324        0.012      337.531        9.567      867.739
01/28/2015  19:02:00       20.685       45.390       -5.417       18.735       29.743       14.134      350.996      884.635      199.763        0.198        0.072       49.881       11.236        0.051      337.472        9.468      867.742
01/28/2015  19:03:00        7.004        0.889       -0.267       24.138       20.758       13.693      582.649      430.882      187.502        0.063        0.060        7.060       11.114        2.478      337.438        9.412      867.752
01/28/2015  19:04:00       20.133       30.341       -0.876       24.993       24.679       23.005      624.626      609.053      529.249        0.154        0.088       36.414       15.979        0.193      337.520        9.549      867.760
01/28/2015  19:05:00       16.275        9.016        6.064       18.645       14.721       14.023      347.652      216.721      196.634        0.057        0.038       18.605       10.471        0.317      337.435        9.406      867.774
01/28/2015  19:06:00       34.598       34.968        2.869       27.780       29.911       24.826      771.733      894.679      616.324        0.235        0.114       49.191       19.340        0.155      337.462        9.452      867.785
01/28/2015  19:07:00       18.808       23.441        4.003       22.061       26.497       20.532      486.667      702.086      421.568        0.126        0.081       30.054       17.303        0.331      337.405        9.357      867.785
01/28/2015  19:08:00       11.320       40.658       -4.469       24.312       29.838       16.398      591.073      890.311      268.899        0.178        0.088       42.205       16.405        0.151      337.419        9.380      867.784
01/28/2015  19:09:00       19.502       32.604       -2.227       17.231       27.972       16.973      296.907      782.435      288.067        0.141        0.068       37.991       17.976        0.224      337.384        9.321      867.782
01/28/2015  19:10:00       44.155       39.172        3.642       21.822       15.628       12.145      476.212      244.225      147.496        0.218        0.043       59.026        8.832        0.022      337.389        9.330      867.784
01/28/2015  19:11:00       17.560       44.735        2.098       12.309       18.699       15.994      151.502      349.646      255.812        0.154        0.038       48.058       14.338        0.089      337.300        9.181      867.782
01/28/2015  19:12:00       19.400       60.357       -6.148       12.856       17.205       10.584      165.266      295.999      112.028        0.232        0.029       63.398       10.463        0.027      337.391        9.333      867.778
01/28/2015  19:13:00       15.206       86.734      -15.409       17.252       18.470        7.957      297.622      341.155       63.315        0.435        0.035       88.057        7.372        0.007      337.476        9.475      867.774
01/28/2015  19:14:00       11.849      117.132      -20.441       16.751       15.788       10.452      280.610      249.251      109.234        0.746        0.032      117.730        8.462        0.005      337.450        9.433      867.780
01/28/2015  19:15:00        9.885      137.346      -22.106       12.051       19.837        8.311      145.216      393.489       69.070        1.003        0.030      137.701        8.763        0.004      337.434        9.406      867.799
01/28/2015  19:16:00        3.839      128.871      -18.864       12.800       18.682        7.034      163.853      349.016       49.476        0.877        0.028      128.928        4.098        0.001      337.494        9.506      867.808
01/28/2015  19:17:00        4.321      131.331      -20.955       15.322       19.159        8.233      234.770      367.066       67.782        0.919        0.033      131.403        6.878        0.003      337.424        9.387      867.810
01/28/2015  19:18:00        3.133      111.997      -15.582       22.832       24.685       17.285      521.321      609.368      298.759        0.711        0.071      112.041       15.135        0.018      337.309        9.196      867.813
01/28/2015  19:19:00       18.543      136.460      -27.797       15.282       16.592       11.995      233.539      275.291      143.868        1.020        0.033      137.714        6.529        0.002      337.283        9.153      867.818
01/28/2015  19:20:00        7.701      128.280      -23.353       15.909       19.917        9.267      253.101      396.694       85.884        0.890        0.037      128.510        8.169        0.004      337.230        9.065      867.822
01/28/2015  19:21:00       -3.594      140.872      -21.541       17.455       25.146        8.056      304.676      632.335       64.901        1.066        0.050      140.917        9.716        0.005      337.241        9.082      867.820
01/28/2015  19:22:00       18.333      135.375      -23.806       20.757       27.524       14.168      430.872      757.596      200.719        1.031        0.069      136.611       12.840        0.009      337.229        9.062      867.816
01/28/2015  19:23:00        6.393      127.695      -21.386       19.629       25.095       11.126      385.308      629.775      123.791        0.897        0.057      127.855        9.047        0.005      337.230        9.062      867.825
01/28/2015  19:24:00       17.781       95.045      -14.133       31.257       48.014       18.763      976.975     2305.391      352.041        0.659        0.182       96.694       15.943        0.027      337.149        8.930      867.839
01/28/2015  19:25:00       30.423       74.493      -10.314       26.820       36.834       20.040      719.331     1356.755      401.609        0.453        0.124       80.466       16.768        0.043      337.118        8.875      867.861
01/28/2015  19:26:00       18.685       60.570       -3.680       22.005       48.636       19.303      484.231     2365.439      372.595        0.363        0.161       63.386       24.072        0.144      337.156        8.938      867.862
01/28/2015  19:27:00       56.703       53.750        7.801       51.186       36.346       32.965     2619.987     1321.032     1086.715        0.560        0.251       78.130       24.215        0.096      337.284        9.156      867.870
01/28/2015  19:28:00      100.700       65.051       13.374       36.477       30.569       32.110     1330.562      934.445     1031.057        0.892        0.165      119.884       21.235        0.031      337.354        9.270      867.889
01/28/2015  19:29:00      127.055       76.326       27.435       40.277       21.280       31.139     1622.259      452.853      969.667        1.288        0.152      148.218       27.607        0.035      337.475        9.473      867.906
01/28/2015  19:30:00      114.948       75.260       17.356       25.454       16.317       19.741      647.918      266.252      389.701        1.024        0.065      137.394       13.649        0.010      337.368        9.292      867.913
01/28/2015  19:31:00       94.563       56.044       17.384       24.495       15.451       17.869      600.026      238.722      319.314        0.677        0.058      109.923       12.745        0.013      337.291        9.166      867.917
01/28/2015  19:32:00       72.673       44.875       29.606       28.202       24.824       22.629      795.346      616.227      512.094        0.505        0.096       85.412       14.659        0.029      337.305        9.189      867.931
01/28/2015  19:33:00       63.209       20.143        2.755       31.326       24.519       21.718      981.297      601.184      471.686        0.323        0.103       66.341       12.526        0.036      337.282        9.151      867.954
01/28/2015  19:34:00       45.673       13.986        5.547       26.925       18.773       15.499      724.963      352.423      240.234        0.181        0.066       47.766       10.781        0.051      337.233        9.070      867.962
01/28/2015  19:35:00       47.378       27.920       11.893       13.824       11.288       15.847      191.093      127.426      251.112        0.187        0.028       54.993        9.763        0.032      337.234        9.072      867.967
01/28/2015  19:36:00       28.607        9.810       17.308       14.015       12.805        7.715      196.417      163.972       59.516        0.082        0.021       30.242        4.228        0.020      337.069        8.794      867.978
01/28/2015  19:37:00       22.394        1.725        1.247       12.980        8.346        6.939      168.475       69.664       48.149        0.040        0.014       22.460        6.631        0.087      337.178        8.977      867.991
01/28/2015  19:38:00       23.411       -1.908        9.034       13.678       14.999        7.997      187.092      224.962       63.959        0.055        0.024       23.489        3.139        0.018      337.201        9.018      867.995
01/28/2015  19:39:00       50.404       22.463       12.838       21.506       16.951       13.074      462.522      287.329      170.919        0.207        0.046       55.183       12.460        0.051      337.286        9.158      867.993
01/28/2015  19:40:00       50.718        7.445       12.485       31.565       15.143       19.319      996.320      229.317      373.217        0.219        0.080       51.262        9.774        0.036      337.198        9.011      867.993
01/28/2015  19:41:00       -0.583       11.088        4.201       13.895       10.599       10.726      193.081      112.346      115.044        0.028        0.021       11.104        6.219        0.314      337.129        8.896      868.005
01/28/2015  19:42:00      -10.727      -24.982        4.350       21.773       11.621        8.796      474.046      135.040       77.376        0.072        0.034       27.188        5.934        0.048      337.187        8.994      868.014
01/28/2015  19:43:00      -17.925        3.388        5.142        6.592        6.223        5.818       43.450       38.723       33.845        0.024        0.006       18.242        1.800        0.010      337.035        8.737      868.021
01/28/2015  19:44:00       15.625        2.555       -7.386       33.721        6.556        6.413     1137.081       42.979       41.124        0.076        0.061       15.832        7.702        0.237      337.195        9.003      868.031
01/28/2015  19:45:00       31.794       12.093       16.504       10.592       11.036       12.144      112.191      121.804      147.485        0.091        0.019       34.016        8.334        0.060      337.194        9.005      868.036
01/28/2015  19:46:00       50.247       19.193       25.154       22.866       19.582       18.889      522.832      383.456      356.788        0.239        0.063       53.788       16.277        0.092      337.248        9.094      868.038
01/28/2015  19:47:00       52.785       44.567       19.265       21.532       17.513       18.587      463.623      306.699      345.463        0.313        0.056       69.083       11.293        0.027      337.080        8.814      868.045
01/28/2015  19:48:00       70.578       17.902       22.400       29.727       21.166       16.614      883.711      448.009      276.015        0.371        0.080       72.813       15.123        0.043      337.138        8.909      868.046
01/28/2015  19:49:00       49.729       15.158       25.734       24.171       20.194       16.770      584.243      407.796      281.230        0.232        0.064       51.988       12.124        0.054      337.143        8.917      868.033
01/28/2015  19:50:00       57.940       46.875       30.839       29.964       20.713       17.018      897.838      429.012      289.610        0.406        0.081       74.527       10.719        0.021      337.210        9.031      868.031
01/28/2015  19:51:00       68.703       43.853       23.881       13.545       11.371       11.752      183.460      129.302      138.100        0.383        0.023       81.506        5.169        0.004      337.199        9.014      868.036
01/28/2015  19:52:00       51.830       26.250       11.584       49.810       36.271       22.636     2480.997     1315.584      512.369        0.391        0.215       58.098       22.480        0.150      337.703        9.855      868.033
01/28/2015  19:53:00       54.585       32.301       10.956       24.432       26.432       19.744      596.925      698.662      389.815        0.291        0.084       63.426       12.267        0.037      337.434        9.405      868.036
01/28/2015  19:54:00       25.352        5.044        9.517       19.426       16.550       13.578      377.370      273.901      184.370        0.080        0.042       25.849        6.470        0.063      337.088        8.824      868.049
01/28/2015  19:55:00       52.881       16.308        6.752       24.739       12.583       12.960      612.000      158.320      167.969        0.202        0.047       55.339       10.169        0.034      336.988        8.658      868.059
01/28/2015  19:56:00       34.963       21.546        2.982       18.209        9.704        9.605      331.581       94.163       92.252        0.111        0.026       41.069        8.271        0.041      336.953        8.599      868.066
01/28/2015  19:57:00       19.447       24.986       -1.823       18.152       13.828       10.905      329.490      191.226      118.924        0.082        0.032       31.662       10.329        0.106      336.935        8.572      868.064
01/28/2015  19:58:00       11.977       30.462       -6.359       14.632       14.596       11.180      214.109      213.037      124.999        0.083        0.028       32.732        7.968        0.059      336.965        8.620      868.062
01/28/2015  19:59:00        6.333       59.105       -8.421       18.986       23.243        9.122      360.461      540.238       83.211        0.229        0.049       59.443        4.415        0.006      337.050        8.762      868.061
01/28/2015  20:00:00       19.924       84.145      -12.720       21.946       22.415       12.395      481.605      502.441      153.633        0.439        0.057       86.471       12.070        0.019      337.035        8.737      868.061
01/28/2015  20:01:00       17.440       88.664      -14.460       17.479       22.641       11.529      305.522      512.621      132.917        0.466        0.048       90.363        8.760        0.009      337.000        8.679      868.060
01/28/2015  20:02:00       20.029       56.015       -7.631       19.393       27.635       14.970      376.085      763.696      224.100        0.248        0.068       59.488       15.092        0.064      336.843        8.418      868.069
01/28/2015  20:03:00       10.376       56.471       -8.008       14.495       34.774       12.660      210.110     1209.198      160.275        0.247        0.079       57.417       15.401        0.072      336.822        8.382      868.073
01/28/2015  20:04:00       -0.546       83.739      -12.381       15.326       15.002        7.691      234.896      225.065       59.154        0.384        0.026       83.740        7.175        0.007      336.881        8.481      868.067
01/28/2015  20:05:00        7.636       84.387      -14.539       15.019       14.883        8.695      225.574      221.492       75.608        0.396        0.026       84.732        5.167        0.004      336.929        8.561      868.057
01/28/2015  20:06:00       12.634       85.073      -12.463       20.717       15.586       12.611      429.191      242.915      159.030        0.419        0.042       86.006        5.521        0.004      336.829        8.393      868.049
01/28/2015  20:07:00       22.074       41.125        0.800       27.775       34.900       21.524      771.461     1217.996      463.280        0.232        0.123       46.675       20.318        0.189      336.746        8.257      868.044
01/28/2015  20:08:00       24.701       64.989       -6.766       27.512       36.425       22.980      756.922     1326.771      528.069        0.375        0.131       69.525       20.624        0.088      336.752        8.265      868.028
01/28/2015  20:09:00       20.019       47.815        3.990       31.239       30.950       26.811      975.882      957.910      718.810        0.268        0.133       51.837       19.296        0.139      336.728        8.225      868.023
01/28/2015  20:10:00       22.446       75.994       -4.636       25.052       39.813       20.425      627.611     1585.092      417.196        0.446        0.131       79.240       21.161        0.071      336.762        8.281      868.021
01/28/2015  20:11:00       22.325       90.174       -6.807       27.535       27.771       29.074      758.160      771.223      845.322        0.553        0.119       92.897       21.784        0.055      336.746        8.256      868.004
01/28/2015  20:12:00        9.295      112.901      -12.936       24.185       31.481       23.865      584.906      991.068      569.546        0.757        0.107      113.283       18.770        0.027      336.696        8.171      867.998
01/28/2015  20:13:00       21.570      168.579      -29.076       24.777       22.554       13.458      613.923      508.674      181.117        1.552        0.065      169.954        9.805        0.003      336.772        8.299      867.990
01/28/2015  20:14:00       31.852      179.132      -28.465       28.099       31.417       18.598      789.575      987.004      345.880        1.802        0.106      181.942       16.043        0.008      336.811        8.362      868.000
01/28/2015  20:15:00       29.723      143.574      -23.218       25.788       33.227       23.381      665.044     1104.046      546.667        1.218        0.116      146.618       19.298        0.017      336.752        8.265      868.009
01/28/2015  20:16:00       23.938      117.949       -9.997       28.023       51.269       25.030      785.264     2628.476      626.518        0.931        0.202      120.353       25.998        0.047      336.739        8.243      868.009
01/28/2015  20:17:00       30.789      130.111      -16.517       33.461       35.256       21.598     1119.649     1242.959      466.479        1.049        0.141      133.704       17.201        0.017      336.773        8.301      868.008
01/28/2015  20:18:00       30.254      145.890      -20.930       23.582       28.734       16.563      556.111      825.647      274.331        1.215        0.083      148.994       12.579        0.007      336.840        8.411      868.007
01/28/2015  20:19:00       13.904      157.563      -22.767       26.156       23.106       12.768      684.151      533.882      163.028        1.346        0.069      158.175        9.812        0.004      336.897        8.506      868.008
01/28/2015  20:20:00       24.379      151.567      -27.059       32.819       29.925       14.308     1077.073      895.525      204.731        1.324        0.109      153.515        9.762        0.004      336.827        8.389      868.018
01/28/2015  20:21:00       14.468      159.515      -23.448       29.415       24.106       16.711      865.216      581.088      279.274        1.396        0.086      160.170       11.146        0.005      336.821        8.380      868.022
01/28/2015  20:22:00       26.776      134.544      -18.627       30.786       36.657       19.771      947.781     1343.759      390.878        1.092        0.134      137.183       19.579        0.020      336.771        8.296      868.030
01/28/2015  20:23:00       26.221      120.632      -15.115       29.536       37.869       25.042      872.369     1434.024      627.108        0.920        0.147      123.449       22.942        0.035      336.766        8.287      868.033
01/28/2015  20:24:00        9.549      107.950      -15.954       35.816       35.990       14.968     1282.787     1295.312      224.054        0.740        0.140      108.372       11.057        0.010      336.804        8.353      868.039
01/28/2015  20:25:00        9.843      104.196      -17.020       22.932       38.311       14.339      525.893     1467.724      205.595        0.672        0.110      104.660       16.057        0.024      336.813        8.368      868.048
01/28/2015  20:26:00       31.328       75.671      -12.301       36.459       57.938       23.907     1329.249     3356.778      571.529        0.606        0.263       81.900       27.979        0.117      336.784        8.318      868.046
01/28/2015  20:27:00       20.133       78.763      -16.383       28.434       22.399       17.881      808.516      501.711      319.738        0.425        0.081       81.295       15.629        0.037      336.859        8.443      868.040
01/28/2015  20:28:00       -0.679       73.117       -7.557       17.236       14.934       10.376      297.089      223.024      107.662        0.302        0.031       73.120        9.966        0.019      336.818        8.376      868.049
01/28/2015  20:29:00       18.832       23.776       -4.791       25.611       27.951       12.906      655.919      781.235      166.554        0.127        0.080       30.330       14.673        0.234      336.782        8.314      868.053
01/28/2015  20:30:00       -7.302       36.475       -5.177       18.815       11.471        6.449      354.017      131.573       41.592        0.097        0.026       37.199        4.217        0.013      336.864        8.451      868.048
01/28/2015  20:31:00      -33.481       14.752       -5.083       17.987       16.839        9.279      323.516      283.543       86.093        0.103        0.035       36.587        3.278        0.008      336.596        8.005      868.047
01/28/2015  20:32:00      -41.459       -6.026       -8.283       18.610       15.619        9.136      346.335      243.968       83.468        0.125        0.034       41.895        7.551        0.032      336.498        7.839      868.044
01/28/2015  20:33:00      -65.969      -22.426      -16.258       11.612        5.732        5.263      134.835       32.856       27.700        0.266        0.010       69.677        4.504        0.004      336.273        7.464      868.054
01/28/2015  20:34:00      -47.949      -15.913      -13.610       11.267       11.690        8.436      126.948      136.647       71.174        0.154        0.017       50.520        4.791        0.009      336.209        7.357      868.060
01/28/2015  20:35:00      -78.372      -45.393      -10.704       17.049       10.993        9.994      290.672      120.849       99.876        0.441        0.026       90.569        7.903        0.008      336.215        7.366      868.068
01/28/2015  20:36:00     -100.636      -45.331      -15.138       14.507       15.767       12.134      210.447      248.590      147.234        0.651        0.030      110.374        5.493        0.002      336.197        7.336      868.064
01/28/2015  20:37:00     -112.597      -44.460      -17.665       15.333        9.384        8.043      235.101       88.056       64.692        0.768        0.019      121.057        4.173        0.001      336.148        7.255      868.069
01/28/2015  20:38:00     -100.614      -32.602      -14.001        7.933        8.864        6.123       62.932       78.562       37.494        0.578        0.009      105.764        2.967        0.001      336.157        7.270      868.085
01/28/2015  20:39:00      -85.028      -30.140      -13.644        7.955       11.490        8.556       63.278      132.014       73.209        0.430        0.013       90.212        2.936        0.001      336.149        7.257      868.086
01/28/2015  20:40:00      -83.421      -25.710      -13.681       10.195       11.510        7.430      103.931      132.486       55.207        0.405        0.015       87.293        5.217        0.004      336.084        7.147      868.090
01/28/2015  20:41:00     -102.371      -35.187      -13.393       12.897       12.273        9.300      166.338      150.626       86.483        0.615        0.020      108.249        2.482        0.001      336.055        7.100      868.103
01/28/2015  20:42:00     -122.734       -6.892      -13.990       17.468       13.517       12.037      305.115      182.707      144.893        0.797        0.032      122.927        9.237        0.006      335.967        6.953      868.105
01/28/2015  20:43:00     -118.401       -4.885      -16.392        8.810       11.515        8.206       77.615      132.593       67.331        0.729        0.014      118.501        5.562        0.002      335.970        6.957      868.098
01/28/2015  20:44:00      -99.420       -6.482      -16.205       13.300       11.468       10.222      176.890      131.505      104.489        0.530        0.021       99.631        7.728        0.006      336.006        7.018      868.087
01/28/2015  20:45:00     -102.496      -20.860      -17.379       12.167       12.221       11.265      148.033      149.341      126.911        0.583        0.021      104.598        4.188        0.002      335.910        6.858      868.081
01/28/2015  20:46:00      -97.321       -9.389      -15.625       27.781       10.067        8.799      771.805      101.348       77.423        0.538        0.048       97.773        6.260        0.004      335.926        6.884      868.085
01/28/2015  20:47:00      -52.072      -12.178      -13.666       11.911       10.469        9.160      141.876      109.599       83.901        0.169        0.017       53.477        7.711        0.021      335.819        6.707      868.089
01/28/2015  20:48:00      -54.548      -12.330      -12.312       20.578       24.146       13.769      423.454      583.017      189.584        0.224        0.060       55.924       11.967        0.046      335.912        6.861      868.090
01/28/2015  20:49:00      -22.305        2.436       -5.173       21.833       18.367       12.417      476.667      337.352      154.187        0.075        0.048       22.438        7.663        0.117      335.902        6.844      868.111
01/28/2015  20:50:00      -42.885       -5.506       -7.092       19.726       14.954       11.744      389.123      223.619      137.930        0.134        0.038       43.237        5.407        0.016      335.909        6.856      868.121
01/28/2015  20:51:00      -72.933       -9.083      -11.640       14.680       13.075       11.984      215.502      170.958      143.606        0.303        0.027       73.496       10.150        0.019      335.782        6.646      868.116
01/28/2015  20:52:00      -66.073      -33.860       -8.977       13.588       12.416       10.630      184.630      154.155      112.998        0.302        0.023       74.244        4.467        0.004      335.815        6.701      868.103
01/28/2015  20:53:00      -71.099      -35.418       -9.894       10.449       15.184        8.899      109.179      230.554       79.184        0.341        0.021       79.432        4.791        0.004      335.806        6.685      868.123
01/28/2015  20:54:00      -74.151      -24.646      -11.640        9.630       16.177        9.068       92.742      261.703       82.220        0.334        0.022       78.140        7.564        0.009      335.755        6.602      868.126
01/28/2015  20:55:00      -94.013      -23.249      -13.800       18.526       15.534       11.766      343.230      241.291      138.436        0.515        0.036       96.846        8.727        0.008      335.684        6.482      868.122
01/28/2015  20:56:00      -88.951      -11.910      -18.310       24.046       18.072       13.320      578.199      326.590      177.419        0.474        0.054       89.744       12.620        0.020      335.720        6.542      868.126
01/28/2015  20:57:00      -73.489       -9.035      -12.742       22.789       19.157       12.635      519.348      366.998      159.643        0.335        0.052       74.042        9.733        0.017      335.650        6.426      868.133
01/28/2015  20:58:00     -100.898       -8.895      -17.029       23.395       15.768       13.344      547.305      248.637      178.070        0.576        0.049      101.290       12.018        0.014      335.638        6.407      868.134
01/28/2015  20:59:00     -100.521      -16.207      -16.091       19.260       18.407       11.802      370.954      338.819      139.298        0.574        0.042      101.819       11.305        0.012      335.612        6.362      868.128
01/28/2015  21:00:00      -86.979      -14.052      -13.067       16.035       12.421       12.397      257.124      154.285      153.688        0.425        0.028       88.106        6.640        0.006      335.567        6.287      868.126
01/28/2015  21:01:00     -118.551      -18.465      -19.411       17.355       17.122       15.055      301.197      293.169      226.662        0.780        0.041      119.980        9.315        0.006      335.525        6.217      868.129
01/28/2015  21:02:00      -98.425      -23.641      -17.499       19.795       24.303       17.231      391.825      590.620      296.892        0.592        0.064      101.224       13.089        0.017      335.531        6.226      868.123
01/28/2015  21:03:00      -72.522      -26.009       -5.038       23.377       21.210       15.786      546.496      449.861      249.202        0.360        0.062       77.045       13.324        0.030      335.523        6.214      868.123
01/28/2015  21:04:00     -110.128       -9.600       -9.032       21.313       19.893       13.458      454.234      395.733      181.130        0.667        0.052      110.546        6.595        0.004      335.497        6.170      868.140
01/28/2015  21:05:00      -74.574      -15.134      -11.571       23.101       25.092       16.985      533.661      629.585      288.483        0.369        0.073       76.094       12.489        0.027      335.538        6.237      868.158
01/28/2015  21:06:00      -85.992       -8.927      -16.137       24.062       14.773       12.197      579.003      218.247      148.765        0.434        0.047       86.454        5.931        0.005      335.801        6.677      868.162
01/28/2015  21:07:00      -60.779      -14.475      -17.745       12.928       23.690       12.248      167.139      561.200      150.025        0.255        0.044       62.479        5.092        0.007      335.706        6.519      868.171
01/28/2015  21:08:00      -63.520        7.137      -12.147       17.024       20.053       11.242      289.804      402.127      126.374        0.253        0.041       63.920        6.918        0.012      335.678        6.472      868.173
01/28/2015  21:09:00      -89.692       -9.065      -18.599       29.253       25.730       14.890      855.749      662.014      221.710        0.511        0.087       90.148       13.235        0.022      335.640        6.408      868.171
01/28/2015  21:10:00     -108.625      -21.977       -6.185       34.475       34.339       18.865     1188.516     1179.191      355.870        0.752        0.136      110.825       10.872        0.010      335.443        6.079      868.172
01/28/2015  21:11:00     -119.506      -18.808       -8.898       33.636       33.733       20.370     1131.389     1137.884      414.947        0.870        0.134      120.977        8.635        0.005      335.431        6.060      868.182
01/28/2015  21:12:00      -49.536      -25.418       -1.010       39.311       24.003       19.755     1545.358      576.136      390.247        0.281        0.126       55.677       16.392        0.087      335.415        6.033      868.194
01/28/2015  21:13:00      -25.979       -6.989       -6.439       32.700       16.580       14.972     1069.301      274.880      224.166        0.117        0.078       26.903        8.693        0.104      335.453        6.096      868.208
01/28/2015  21:14:00      -71.744      -13.709      -13.453       15.916       15.413       16.623      253.304      237.551      276.309        0.314        0.038       73.042        5.316        0.005      335.515        6.200      868.219
01/28/2015  21:15:00      -81.518       -5.990      -12.849       30.396       23.710       16.814      923.900      562.171      282.716        0.431        0.088       81.738       17.756        0.047      335.546        6.252      868.215
01/28/2015  21:16:00     -100.869       -1.647      -16.417       22.623       17.559       17.817      511.793      308.305      317.462        0.579        0.057      100.882       16.396        0.026      335.477        6.137      868.219
01/28/2015  21:17:00      -90.236       -8.997      -11.911       18.285       17.647       16.205      334.325      311.411      262.599        0.464        0.045       90.683        5.567        0.004      335.455        6.101      868.228
01/28/2015  21:18:00      -79.368      -18.601      -14.864       15.420       12.231       10.702      237.772      149.602      114.527        0.368        0.025       81.519        3.874        0.002      335.443        6.080      868.229
01/28/2015  21:19:00      -73.595      -33.584      -16.457       13.741       12.466        9.669      188.807      155.412       93.498        0.363        0.022       80.896        4.264        0.003      335.501        6.176      868.227
01/28/2015  21:20:00      -80.884      -29.409      -20.102       18.451       24.209        9.597      340.443      586.057       92.101        0.441        0.051       86.065        3.253        0.001      335.508        6.189      868.227
01/28/2015  21:21:00      -84.604      -28.623      -15.846       23.601       19.763       14.275      557.019      390.591      203.765        0.469        0.058       89.314       11.102        0.015      335.538        6.237      868.217
01/28/2015  21:22:00      -95.136      -29.354      -15.523       17.442       21.451       11.913      304.207      460.136      141.927        0.553        0.045       99.562        9.353        0.009      335.490        6.159      868.196
01/28/2015  21:23:00      -81.979      -28.370      -16.754       17.201       21.855       16.503      295.883      477.660      272.353        0.443        0.052       86.749        8.560        0.010      335.507        6.186      868.177
01/28/2015  21:24:00      -81.845      -18.835      -15.322       23.868       18.206       12.014      569.695      331.441      144.334        0.417        0.052       83.984        8.229        0.010      335.512        6.194      868.174
01/28/2015  21:25:00      -78.295      -34.337      -12.561       18.012       20.198       10.686      324.433      407.953      114.180        0.416        0.042       85.493        5.173        0.004      335.508        6.188      868.168
01/28/2015  21:26:00      -75.457       -9.924      -16.087       16.154       19.431       12.220      260.963      377.583      149.328        0.342        0.039       76.107        7.683        0.010      335.518        6.206      868.163
01/28/2015  21:27:00      -76.164      -25.098      -11.988       15.967       15.534       14.870      254.948      241.293      221.108        0.365        0.036       80.193       11.344        0.020      335.435        6.066      868.169
01/28/2015  21:28:00      -55.137      -38.137      -11.043       16.574       14.668       13.349      274.690      215.136      178.184        0.264        0.033       67.042        6.227        0.009      335.548        6.255      868.160
01/28/2015  21:29:00      -74.785      -35.165      -11.582       20.622       21.587       15.375      425.255      466.000      236.394        0.405        0.056       82.640       11.700        0.020      335.414        6.033      868.161
01/28/2015  21:30:00      -83.551      -40.882      -13.552       22.650       21.801       16.561      513.043      475.299      274.283        0.505        0.063       93.016       15.002        0.026      335.409        6.022      868.163
01/28/2015  21:31:00      -80.693      -25.273      -16.887       21.212       18.044       11.463      449.935      325.602      131.408        0.417        0.045       84.558        6.838        0.007      335.430        6.059      868.162
01/28/2015  21:32:00      -88.997      -29.633      -14.132       15.545       20.139       12.455      241.651      405.583      155.132        0.490        0.040       93.801       10.414        0.012      335.464        6.117      868.178
01/28/2015  21:33:00      -68.082      -25.597      -11.766       14.739       15.273       11.202      217.233      233.264      125.486        0.300        0.029       72.735        9.207        0.016      335.455        6.099      868.181
01/28/2015  21:34:00      -76.956      -48.599      -10.103       22.092       12.758       12.217      488.053      162.765      149.259        0.459        0.040       91.017        7.783        0.007      335.404        6.014      868.170
01/28/2015  21:35:00      -87.261      -35.373      -14.859       13.793       18.040       13.590      190.244      325.438      184.685        0.489        0.035       94.158       10.409        0.012      335.420        6.041      868.163
01/28/2015  21:36:00      -79.171      -30.766      -13.371       13.558       18.702       10.938      183.827      349.752      119.649        0.402        0.033       84.939        8.432        0.010      335.448        6.088      868.169
01/28/2015  21:37:00      -85.017      -19.098      -14.547       17.469       13.012       14.584      305.159      169.305      212.703        0.425        0.034       87.136        8.758        0.010      335.411        6.027      868.163
01/28/2015  21:38:00      -83.957      -13.232      -17.711       13.821       13.767       10.712      191.012      189.530      114.744        0.402        0.025       84.993        7.708        0.008      335.412        6.025      868.151
01/28/2015  21:39:00      -80.006      -22.165      -14.146       11.253       15.176        9.969      126.622      230.307       99.379        0.377        0.023       83.020        7.824        0.009      335.427        6.051      868.155
01/28/2015  21:40:00      -65.737      -29.501      -17.142       15.590       16.111       12.249      243.039      259.561      150.038        0.307        0.033       72.053        8.054        0.012      335.437        6.069      868.141
01/28/2015  21:41:00      -69.909      -29.727      -16.872       10.069       15.917       11.231      101.394      253.339      126.139        0.327        0.024       75.967        4.377        0.003      335.337        5.901      868.127
01/28/2015  21:42:00      -72.608      -26.069      -17.959       10.208       13.588        9.583      104.194      184.626       91.827        0.333        0.019       77.146        5.683        0.005      335.284        5.816      868.120
01/28/2015  21:43:00      -70.239      -36.381      -18.586       12.144       14.547       13.418      147.477      211.622      180.050        0.357        0.027       79.102        7.558        0.009      335.255        5.765      868.111
01/28/2015  21:44:00      -76.655      -24.693      -18.924       11.011       13.062        9.909      121.235      170.604       98.188        0.362        0.020       80.534        5.270        0.004      335.195        5.667      868.098
01/28/2015  21:45:00      -77.517      -26.762      -15.063       11.310       12.562        7.863      127.921      157.797       61.822        0.365        0.017       82.007        5.132        0.004      335.160        5.609      868.098
01/28/2015  21:46:00      -75.248      -38.370      -16.135       13.995       14.177       10.654      195.863      200.982      113.517        0.395        0.026       84.466        4.125        0.002      335.162        5.613      868.108
01/28/2015  21:47:00      -85.843      -33.707      -15.230       15.012       15.008       11.066      225.365      225.242      122.454        0.465        0.029       92.223        6.013        0.004      335.179        5.640      868.104
01/28/2015  21:48:00      -96.900      -28.866      -19.450       17.190       23.069       11.636      295.506      532.165      135.396        0.578        0.048      101.108       12.015        0.014      335.138        5.573      868.100
01/28/2015  21:49:00      -99.250      -49.322      -14.512       16.244       17.483       15.263      263.869      305.662      232.958        0.665        0.040      110.830        6.987        0.004      335.096        5.503      868.102
01/28/2015  21:50:00      -83.740      -51.252      -20.361       18.445       17.802       13.335      340.204      316.912      177.821        0.544        0.042       98.179        7.132        0.005      335.092        5.495      868.101
01/28/2015  21:51:00      -71.214      -49.305      -18.069       23.382       19.329       19.819      546.705      373.628      392.779        0.457        0.066       86.617       13.226        0.023      335.088        5.491      868.107
01/28/2015  21:52:00      -69.595      -47.847       -7.342       25.068       27.240       23.811      628.425      742.005      566.943        0.456        0.097       84.456       13.052        0.024      335.082        5.479      868.126
01/28/2015  21:53:00      -85.226      -42.937      -14.380       21.563       21.168       14.291      464.970      448.077      204.221        0.522        0.056       95.431       11.748        0.015      335.152        5.598      868.155
01/28/2015  21:54:00      -85.628      -26.820      -16.198       28.996       18.752       12.871      840.758      351.641      165.660        0.484        0.068       89.730        8.795        0.010      335.139        5.575      868.168
01/28/2015  21:55:00     -105.807      -48.461      -24.353       34.427       19.213       15.798     1185.226      369.147      249.567        0.797        0.090      116.377       11.615        0.010      335.067        5.455      868.174
01/28/2015  21:56:00     -116.964      -48.559      -22.759       20.009       26.512       14.302      400.367      702.891      204.556        0.893        0.065      126.644       12.153        0.009      335.033        5.399      868.168
01/28/2015  21:57:00     -110.546      -41.675      -22.784       32.827       27.456       12.085     1077.589      753.824      146.036        0.823        0.099      118.141        4.233        0.001      334.992        5.331      868.169
01/28/2015  21:58:00      -63.014      -52.406      -11.059       37.684       29.902       26.996     1420.056      894.149      728.758        0.494        0.152       81.959       21.148        0.067      334.992        5.332      868.163
01/28/2015  21:59:00     -109.608      -24.174      -19.894       26.121       23.794       15.293      682.330      566.141      233.876        0.724        0.074      112.242       10.962        0.010      334.922        5.214      868.166
01/28/2015  22:00:00      -80.939       -9.468      -10.587       20.506       20.712       18.610      420.511      428.980      346.341        0.397        0.060       81.491       13.945        0.029      334.967        5.290      868.181
01/28/2015  22:01:00      -86.922      -11.362      -12.267       20.321       24.027       17.845      412.955      577.312      318.447        0.457        0.065       87.661        9.513        0.012      334.935        5.236      868.198
01/28/2015  22:02:00      -84.861      -35.808      -16.020       22.446       18.163       17.221      503.837      329.877      296.552        0.494        0.057       92.106        8.415        0.008      335.011        5.362      868.190
01/28/2015  22:03:00      -61.839      -28.258       -3.837       33.694       26.739       22.868     1135.272      714.975      522.958        0.350        0.119       67.990       21.227        0.097      335.044        5.418      868.192
01/28/2015  22:04:00     -138.618       -7.642      -20.932       40.354       22.025       20.092     1628.476      485.099      403.679        1.111        0.126      138.829       15.914        0.013      334.994        5.335      868.191
01/28/2015  22:05:00      -74.963      -13.923      -10.172       26.128       30.840       16.166      682.687      951.082      261.346        0.391        0.095       76.245        8.551        0.013      335.232        5.728      868.192
01/28/2015  22:06:00      -48.582        1.676       -2.398       33.725       32.975       19.058     1137.373     1087.351      363.220        0.248        0.129       48.611       17.614        0.131      335.287        5.821      868.202
01/28/2015  22:07:00     -106.798      -49.645      -13.262       18.582       19.048       11.883      345.296      362.825      141.203        0.745        0.042      117.773        8.037        0.005      334.921        5.212      868.209
01/28/2015  22:08:00     -128.390      -35.304      -25.840       21.148       22.540       11.279      447.245      508.037      127.218        0.974        0.054      133.155        7.370        0.003      334.893        5.165      868.210
01/28/2015  22:09:00     -113.340      -38.588      -23.631       25.938       23.049       14.646      672.789      531.272      214.497        0.816        0.071      119.729       11.012        0.008      334.932        5.231      868.211
01/28/2015  22:10:00      -73.093      -45.984      -20.755       30.688       31.635       13.839      941.731     1000.797      191.513        0.501        0.107       86.355        9.748        0.013      335.016        5.370      868.204
01/28/2015  22:11:00      -39.584      -44.808      -10.726       32.855       29.789       22.592     1079.437      887.382      510.421        0.308        0.124       59.788       21.458        0.129      335.010        5.361      868.203
01/28/2015  22:12:00      -79.650      -36.702      -15.298       31.508       26.341       17.286      992.770      693.846      298.791        0.495        0.099       87.699       12.488        0.020      335.028        5.391      868.199
01/28/2015  22:13:00     -114.460      -28.402      -21.525       22.361       14.742       13.109      500.018      217.338      171.843        0.763        0.044      117.931        7.734        0.004      335.030        5.394      868.185
01/28/2015  22:14:00     -118.845      -24.185      -21.452       15.968       16.732       12.830      254.978      279.956      164.606        0.793        0.035      121.281        6.947        0.003      335.000        5.344      868.174
01/28/2015  22:15:00     -100.044      -15.263      -15.583       17.395       14.744       10.132      302.570      217.387      102.663        0.555        0.031      101.202        4.939        0.002      334.949        5.259      868.160
01/28/2015  22:16:00      -84.100      -14.903      -13.024       12.630       12.995       10.560      159.509      168.861      111.519        0.395        0.022       85.410        2.957        0.001      334.914        5.202      868.160
01/28/2015  22:17:00      -70.158      -34.294      -15.733       19.334       17.375       11.654      373.811      301.907      135.816        0.358        0.041       78.091        6.206        0.006      334.927        5.223      868.162
01/28/2015  22:18:00      -76.032      -18.017       -6.053       14.880       15.267       11.982      221.409      233.081      143.579        0.337        0.030       78.137        6.429        0.007      334.926        5.222      868.154
01/28/2015  22:19:00      -85.095      -37.059       -9.484       12.296       20.953       12.394      151.200      439.037      153.615        0.472        0.037       92.815        6.191        0.004      334.996        5.338      868.166
01/28/2015  22:20:00     -103.016      -38.014      -15.690       17.447       24.374       12.069      304.389      594.099      145.666        0.667        0.052      109.806        9.598        0.008      334.938        5.241      868.161
01/28/2015  22:21:00      -68.380      -57.352      -15.327       14.854       17.409       10.670      220.641      303.075      113.843        0.442        0.032       89.247        4.469        0.003      334.937        5.238      868.171
01/28/2015  22:22:00      -50.760      -14.083       -8.576       28.885       13.727       12.704      834.335      188.419      161.383        0.202        0.059       52.678       12.958        0.061      334.939        5.244      868.187
01/28/2015  22:23:00      -87.949      -33.285      -13.227       21.931       17.907       10.000      480.975      320.663      100.003        0.496        0.045       94.037        4.863        0.003      334.924        5.217      868.181
01/28/2015  22:24:00      -83.875      -39.362       -5.645       11.716       12.385        9.394      137.264      153.380       88.252        0.450        0.019       92.652        4.899        0.003      334.870        5.128      868.190
01/28/2015  22:25:00      -91.118      -31.244       -6.014       15.287       13.428        8.351      233.699      180.306       69.732        0.490        0.024       96.325        6.820        0.005      334.899        5.175      868.194
01/28/2015  22:26:00     -117.175      -35.460      -15.225        9.911       13.560        9.699       98.224      183.869       94.076        0.780        0.019      122.423        6.869        0.003      334.931        5.229      868.180
01/28/2015  22:27:00     -105.996      -49.178       -9.938       11.758       12.410       11.483      138.240      154.010      131.856        0.709        0.021      116.849        7.195        0.004      334.960        5.277      868.179
01/28/2015  22:28:00     -102.595      -44.317       -3.658       20.262       14.797       11.245      410.545      218.963      126.449        0.663        0.038      111.757        7.537        0.005      334.998        5.340      868.183
01/28/2015  22:29:00      -93.530      -49.831       -5.861       19.101       21.341       15.650      364.857      455.438      244.916        0.617        0.053      105.977       11.931        0.013      334.973        5.299      868.178
01/28/2015  22:30:00      -58.526      -50.555        2.222       36.224       26.768       15.784     1312.171      716.510      249.127        0.413        0.114       77.338       16.643        0.046      335.036        5.403      868.186
01/28/2015  22:31:00      -48.608      -27.895       -0.443       36.993       19.478       19.626     1368.489      379.389      385.191        0.264        0.107       56.044       14.189        0.064      335.031        5.395      868.191
01/28/2015  22:32:00      -93.977      -55.522       -8.034       17.117       17.966       11.082      292.987      322.781      122.807        0.636        0.037      109.153        7.481        0.005      335.079        5.476      868.186
01/28/2015  22:33:00      -67.090      -39.302        1.328       31.401       21.169       15.845      986.019      448.108      251.073        0.387        0.084       77.754       14.464        0.035      334.997        5.340      868.196
01/28/2015  22:34:00      -74.250      -35.682       -0.576       24.276       23.559       14.263      589.333      555.040      203.440        0.407        0.067       82.379        9.184        0.012      334.896        5.170      868.208
01/28/2015  22:35:00      -63.316      -43.986        0.687       32.372       23.673       17.580     1047.970      560.391      309.058        0.393        0.096       77.095       13.822        0.032      334.876        5.137      868.210
01/28/2015  22:36:00      -61.362      -36.652        0.907       33.961       22.782       14.833     1153.340      518.999      220.030        0.350        0.095       71.475       13.661        0.037      334.889        5.158      868.214
01/28/2015  22:37:00      -99.977      -35.181      -14.263       19.209       15.913       12.176      368.984      253.222      148.249        0.610        0.039      105.986        9.024        0.007      334.883        5.149      868.211
01/28/2015  22:38:00      -77.070      -27.773       -0.374       23.260       18.756       14.765      541.044      351.782      218.015        0.391        0.056       81.921       13.540        0.027      334.842        5.082      868.212
01/28/2015  22:39:00      -85.992      -38.530       -7.003       21.804       16.987       13.642      475.424      288.553      186.091        0.494        0.048       94.229       11.991        0.016      334.782        4.983      868.215
01/28/2015  22:40:00      -86.452      -43.980      -10.831       16.119       17.996       14.577      259.819      323.852      212.481        0.516        0.040       96.996        8.275        0.007      334.792        4.996      868.224
01/28/2015  22:41:00      -84.780      -30.157       -9.055       13.680       17.384       11.273      187.152      302.213      127.084        0.440        0.031       89.984        5.239        0.003      334.778        4.975      868.246
01/28/2015  22:42:00      -75.964      -28.264        2.512       27.920       18.942       14.466      779.536      358.791      209.276        0.396        0.067       81.052       16.049        0.039      334.795        5.005      868.258
01/28/2015  22:43:00     -103.740      -26.316      -10.210       21.177       24.887       14.932      448.452      619.364      222.963        0.642        0.065      107.026       10.944        0.010      334.807        5.023      868.263
01/28/2015  22:44:00     -117.451      -19.796       -8.165       24.338       14.952       13.042      592.354      223.548      170.099        0.762        0.049      119.108       13.409        0.013      334.758        4.942      868.269
01/28/2015  22:45:00     -118.348      -39.423      -14.839       32.792       23.604       17.065     1075.296      557.142      291.215        0.885        0.096      124.741       20.454        0.027      334.705        4.854      868.280
01/28/2015  22:46:00     -105.670      -56.330      -19.072       38.244       25.514       18.878     1462.581      650.978      356.392        0.859        0.123      119.747       19.440        0.026      334.702        4.848      868.284
01/28/2015  22:47:00     -100.423      -44.040      -17.283       20.888       19.133       12.442      436.311      366.082      154.801        0.664        0.048      109.656        5.626        0.003      334.658        4.775      868.280
01/28/2015  22:48:00      -73.484      -53.314       -6.541       15.979       22.419       18.354      255.324      502.619      336.886        0.469        0.055       90.787       11.545        0.016      334.643        4.750      868.286
01/28/2015  22:49:00     -110.567      -34.307       -7.749       20.866       20.724       15.708      435.410      429.473      246.735        0.729        0.056      115.768        9.133        0.006      334.581        4.647      868.289
01/28/2015  22:50:00     -141.640      -26.077      -15.121       27.748       30.967       16.926      769.925      958.947      286.498        1.149        0.101      144.020        7.798        0.003      334.600        4.679      868.297
01/28/2015  22:51:00     -104.279      -21.130        3.263       48.974       42.544       21.793     2398.432     1809.957      474.947        0.801        0.234      106.398       20.167        0.036      334.610        4.697      868.290
01/28/2015  22:52:00      -99.659       -7.125        1.385       56.247       32.052       26.134     3163.679     1027.316      683.006        0.743        0.244       99.913       28.224        0.080      334.559        4.610      868.291
01/28/2015  22:53:00     -114.395      -37.068       -5.012       31.317       29.857       20.796      980.785      891.424      432.460        0.839        0.115      120.251       10.575        0.008      334.552        4.599      868.279
01/28/2015  22:54:00     -125.317      -32.642      -14.544       27.019       30.779       19.302      730.045      947.339      372.560        0.952        0.102      129.499        9.232        0.005      334.522        4.548      868.286
01/28/2015  22:55:00      -85.350      -17.514        0.462       49.645       31.996       25.208     2464.601     1023.719      635.436        0.586        0.206       87.129       23.515        0.073      334.463        4.452      868.285
01/28/2015  22:56:00     -113.739      -25.408       -9.393       34.527       41.332       27.443     1192.134     1708.342      753.118        0.866        0.183      116.542       20.582        0.031      334.508        4.526      868.278
01/28/2015  22:57:00     -106.132      -19.571       -2.354       40.664       42.223       23.231     1653.591     1782.795      539.684        0.781        0.199      107.922       17.865        0.027      334.490        4.496      868.268
01/28/2015  22:58:00     -102.620      -18.375       -4.821       35.300       40.104       24.388     1246.121     1608.343      594.795        0.717        0.172      104.252       19.549        0.035      334.451        4.433      868.263
01/28/2015  22:59:00     -111.911      -18.584       -8.518       43.581       35.775       23.812     1899.342     1279.881      567.027        0.834        0.187      113.443       20.416        0.032      334.452        4.434      868.265
01/28/2015  23:00:00     -116.387      -21.848       -5.561       34.660       37.641       20.262     1201.305     1416.823      410.545        0.854        0.151      118.420       12.673        0.011      334.467        4.459      868.270
01/28/2015  23:01:00     -102.083      -35.260       -1.862       32.073       29.206       23.967     1028.676      852.987      574.425        0.706        0.123      108.001       19.422        0.032      334.489        4.496      868.275
01/28/2015  23:02:00     -117.450      -13.673      -23.201       25.621       21.081       22.075      656.455      444.395      487.302        0.805        0.079      118.244       10.425        0.008      334.452        4.433      868.285
01/28/2015  23:03:00      -84.077       -8.645      -17.907       22.533       19.599       12.426      507.752      384.129      154.404        0.426        0.052       84.520        8.524        0.010      334.496        4.507      868.301
01/28/2015  23:04:00      -92.954      -25.808      -18.622       15.739       22.654       15.445      247.728      513.219      238.533        0.533        0.050       96.471       14.591        0.023      334.472        4.467      868.319
01/28/2015  23:05:00      -97.449      -15.316      -17.105       19.600       18.888       13.105      384.143      356.762      171.749        0.547        0.046       98.645        5.323        0.003      334.483        4.486      868.321
01/28/2015  23:06:00     -110.344      -28.382      -10.162       23.738       29.015       13.743      563.480      841.854      188.881        0.734        0.080      113.936        5.737        0.003      334.424        4.388      868.319
01/28/2015  23:07:00     -102.036      -15.157      -10.394       28.944       22.926       19.686      837.783      525.616      387.554        0.625        0.088      103.156       15.044        0.021      334.457        4.442      868.320
01/28/2015  23:08:00     -112.186      -15.403      -11.848       26.111       23.811       12.826      681.760      566.972      164.518        0.719        0.071      113.238       10.235        0.008      334.466        4.456      868.323
01/28/2015  23:09:00      -77.600      -28.994       -7.301       32.159       23.256       13.269     1034.210      540.855      176.066        0.433        0.088       82.840       13.297        0.026      334.459        4.447      868.312
01/28/2015  23:10:00      -51.981      -26.906       -6.957       27.966       19.193       16.149      782.075      368.386      260.775        0.244        0.071       58.532       13.211        0.051      334.491        4.500      868.310
01/28/2015  23:11:00      -85.806      -18.753      -17.055       17.577       19.521       13.258      308.939      381.057      175.771        0.444        0.043       87.831        7.648        0.008      334.564        4.619      868.315
01/28/2015  23:12:00      -94.642      -39.141      -12.452       13.465       12.303       12.200      181.293      151.375      148.834        0.556        0.024      102.417        6.294        0.004      334.668        4.792      868.303
01/28/2015  23:13:00     -105.222      -18.190      -19.094       16.308       16.546       13.435      265.945      273.764      180.498        0.624        0.036      106.783        7.857        0.005      334.614        4.703      868.291
01/28/2015  23:14:00     -118.332      -21.176      -24.437       20.798       14.998       11.542      432.565      224.926      133.211        0.792        0.040      120.211        4.459        0.001      334.514        4.538      868.288
01/28/2015  23:15:00     -101.796      -15.077      -16.521       19.685       13.380       13.250      387.487      179.012      175.571        0.580        0.037      102.906        7.546        0.005      334.484        4.487      868.285
01/28/2015  23:16:00      -51.599      -13.683       -6.490       20.730       23.312       16.317      429.737      543.447      266.250        0.207        0.062       53.383       13.225        0.061      334.559        4.611      868.288
01/28/2015  23:17:00      -53.831      -26.006       -6.522       16.526       11.885        9.011      273.124      141.261       81.192        0.206        0.025       59.784        7.020        0.014      334.519        4.546      868.292
01/28/2015  23:18:00      -54.267      -16.447       -8.103       12.630       13.147        8.958      159.517      172.852       80.250        0.185        0.021       56.705        3.967        0.005      334.706        4.855      868.283
01/28/2015  23:19:00      -44.355      -24.432      -10.706       15.488       11.928       10.111      239.871      142.284      102.234        0.158        0.024       50.639        6.813        0.018      334.616        4.705      868.277
01/28/2015  23:20:00      -55.982      -33.104      -11.142       22.924       15.196       11.059      525.527      230.920      122.300        0.262        0.044       65.037       10.298        0.025      334.440        4.416      868.271
01/28/2015  23:21:00      -84.249      -30.433      -16.141       16.706       13.513        8.780      279.089      182.595       77.087        0.441        0.027       89.577        6.570        0.005      334.386        4.326      868.276
01/28/2015  23:22:00      -99.137      -37.120      -19.772       19.016       23.232       11.423      361.617      539.745      130.490        0.631        0.052      105.858       10.091        0.009      334.381        4.318      868.270
01/28/2015  23:23:00     -113.584      -22.015      -15.344       13.767       15.071       12.645      189.536      227.147      159.905        0.710        0.029      115.698       10.120        0.008      334.445        4.423      868.259
01/28/2015  23:24:00     -112.186      -10.994      -15.927       13.588       14.630       11.189      184.638      214.040      125.203        0.674        0.026      112.724        6.665        0.003      334.447        4.426      868.258
01/28/2015  23:25:00     -133.999      -27.351      -20.543       22.818       25.113       20.574      520.668      630.653      423.304        1.035        0.079      136.762       17.390        0.016      334.359        4.280      868.267
01/28/2015  23:26:00     -141.312      -45.957      -21.533       15.762       17.606       15.824      248.426      309.970      250.402        1.168        0.040      148.597        9.247        0.004      334.253        4.104      868.263
01/28/2015  23:27:00     -139.939      -45.485      -21.184       18.084       17.536       12.939      327.036      307.509      167.427        1.145        0.040      147.146        7.897        0.003      334.292        4.169      868.259
01/28/2015  23:28:00     -117.752      -49.120      -22.245       29.114       18.594       12.940      847.634      345.718      167.448        0.907        0.068      127.587       12.643        0.010      334.355        4.273      868.257
01/28/2015  23:29:00     -108.176      -41.624      -12.810       23.615       21.989       14.339      557.660      483.534      205.595        0.742        0.062      115.908        9.993        0.007      334.312        4.203      868.257
01/28/2015  23:30:00      -98.036      -23.373       -5.202       30.145       26.236       18.682      908.725      688.330      349.000        0.606        0.097      100.784       11.566        0.013      334.295        4.174      868.254
01/28/2015  23:31:00      -91.720       -9.556       -1.104       33.353       25.014       18.298     1112.401      625.682      334.834        0.529        0.104       92.216       19.594        0.045      334.311        4.200      868.257
01/28/2015  23:32:00      -88.533      -14.868      -13.875       24.491       18.491       15.333      599.793      341.905      235.106        0.471        0.059       89.773       10.235        0.013      334.449        4.430      868.249
01/28/2015  23:33:00      -82.898      -14.982       -6.976       30.133       38.958       20.834      907.989     1517.712      434.055        0.500        0.143       84.241       11.114        0.017      334.488        4.493      868.249
01/28/2015  23:34:00     -104.762      -23.948       -9.783       38.184       21.621       19.723     1458.044      467.456      388.984        0.698        0.116      107.465       19.170        0.032      334.353        4.271      868.252
01/28/2015  23:35:00      -93.028      -28.883      -15.768       25.264       30.016       14.097      638.271      900.963      198.739        0.574        0.087       97.409       11.166        0.013      334.335        4.241      868.247
01/28/2015  23:36:00     -108.041      -20.792      -22.091       21.307       22.491       14.243      453.991      505.842      202.867        0.688        0.058      110.023        8.427        0.006      334.349        4.263      868.228
01/28/2015  23:37:00      -88.932      -16.395      -13.789       22.701       16.126       16.168      515.352      260.060      261.411        0.470        0.052       90.431       12.581        0.019      334.384        4.320      868.206
01/28/2015  23:38:00      -84.636      -21.207      -13.874       16.713       18.110       14.014      279.309      327.974      196.389        0.430        0.040       87.252        5.427        0.004      334.380        4.315      868.198
01/28/2015  23:39:00      -97.728      -25.978      -14.865       19.624       17.580       12.740      385.087      309.064      162.305        0.565        0.043      101.122        9.219        0.008      334.359        4.280      868.195
01/28/2015  23:40:00     -103.429      -30.850      -17.727       17.488       19.564       11.527      305.847      382.741      132.876        0.639        0.041      107.932        5.463        0.003      334.372        4.302      868.195
01/28/2015  23:41:00      -71.736      -27.148      -11.754       18.124       18.402       14.739      328.480      338.635      217.231        0.345        0.044       76.701        9.403        0.015      334.381        4.316      868.188
01/28/2015  23:42:00      -71.433      -27.392      -16.492       16.002       23.315       12.694      256.072      543.590      161.137        0.354        0.048       76.505        6.419        0.007      334.422        4.384      868.183
01/28/2015  23:43:00      -69.868      -34.069      -13.855       21.072       24.385       13.577      444.017      594.628      184.331        0.373        0.061       77.732        6.433        0.007      334.412        4.369      868.171
01/28/2015  23:44:00     -106.220      -50.395      -20.306       22.846       24.909       13.093      521.918      620.478      171.427        0.777        0.066      117.568        9.305        0.006      334.448        4.428      868.178
01/28/2015  23:45:00     -121.695      -38.694      -23.149       14.565       17.830       16.146      212.147      317.916      260.678        0.882        0.040      127.699        4.958        0.002      334.350        4.265      868.174
01/28/2015  23:46:00     -121.011      -37.511      -17.625       16.796       20.911       17.148      282.102      437.253      294.060        0.869        0.051      126.691       10.250        0.007      334.351        4.266      868.176
01/28/2015  23:47:00     -114.110      -47.488      -14.921       19.600       15.288       13.646      384.143      233.715      186.203        0.815        0.040      123.597        5.529        0.002      334.474        4.471      868.175
01/28/2015  23:48:00     -124.835      -40.874      -13.665       14.648       11.121       11.959      214.578      123.669      143.016        0.896        0.024      131.356        7.970        0.004      334.485        4.488      868.182
01/28/2015  23:49:00     -104.782      -20.610      -10.660       22.883       11.811       11.475      523.613      139.488      131.672        0.616        0.040      106.789        8.267        0.006      334.528        4.559      868.179
01/28/2015  23:50:00     -113.823      -26.531      -11.168       11.251       11.606        7.175      126.586      134.705       51.474        0.705        0.016      116.874        3.118        0.001      334.494        4.504      868.174
01/28/2015  23:51:00     -112.921      -22.771      -15.575       12.127       11.205        9.928      147.060      125.544       98.561        0.694        0.019      115.194        7.447        0.004      334.484        4.487      868.167
01/28/2015  23:52:00      -92.480      -33.519      -10.076       28.031       16.708       14.203      785.760      279.172      201.728        0.552        0.063       98.367       15.678        0.025      334.437        4.410      868.159
01/28/2015  23:53:00     -108.105      -40.683      -13.797       33.042       20.440       14.819     1091.769      417.790      219.608        0.763        0.086      115.507       16.058        0.019      334.412        4.368      868.160
01/28/2015  23:54:00     -105.743      -73.539      -10.617       20.850       23.863       16.459      434.738      569.444      270.895        0.899        0.064      128.801       10.829        0.007      334.459        4.446      868.167
01/28/2015  23:55:00     -125.601      -64.750      -14.031       26.527       16.832       12.642      703.657      283.308      159.832        1.066        0.057      141.309        4.488        0.001      334.415        4.373      868.162
01/28/2015  23:56:00     -127.295      -56.209      -12.646       18.979       19.567       15.182      360.201      382.863      230.496        1.025        0.049      139.152        8.503        0.004      334.341        4.250      868.154
01/28/2015  23:57:00     -105.143      -59.643       -3.147       31.614       21.882       21.300      999.439      478.812      453.699        0.828        0.097      120.881       20.770        0.030      334.312        4.201      868.158
01/28/2015  23:58:00     -139.186      -61.107      -19.099       13.708       15.968       11.518      187.909      254.978      132.655        1.202        0.029      152.009        3.417        0.001      334.301        4.183      868.156
01/28/2015  23:59:00     -142.230      -60.139       -9.073       26.050       23.959       21.619      678.602      574.056      467.384        1.282        0.086      154.422       18.308        0.014      334.263        4.121      868.150
